<?xml version="1.0" encoding="UTF-8" standalone="no" ?>
<gpx xmlns="http://www.topografix.com/GPX/1/1" xmlns:xsi="http://www.w3.org/2001/XMLSchema-instance" xsi:schemaLocation="http://www.topografix.com/GPX/1/1 http://www.topografix.com/GPX/1/1/gpx.xsd" version="1.1" creator="VisuGPX - https://www.visugpx.com">
  <metadata>
    <name>exp_5 juil. 2023 à 08-04-41.gpx</name>
  </metadata>
  <trk>
    <name><![CDATA[5 juil. 2023 à 08:04:41]]></name>
    <extensions>
      <line xmlns="http://www.topografix.com/GPX/gpx_style/0/2">
        <color>0000FF</color>
        <width>4</width>
      </line>
    </extensions>
    <trkseg>
      <trkpt lat="48.54842" lon="7.22902">
        <ele>924</ele>
        <time>2023-07-05T06:04:42Z</time>
      </trkpt>
      <trkpt lat="48.54842" lon="7.22902">
        <ele>924</ele>
        <time>2023-07-05T06:04:43Z</time>
      </trkpt>
      <trkpt lat="48.54843" lon="7.22909">
        <ele>924</ele>
        <time>2023-07-05T06:04:46Z</time>
      </trkpt>
      <trkpt lat="48.54843" lon="7.22907">
        <ele>924</ele>
        <time>2023-07-05T06:05:42Z</time>
      </trkpt>
      <trkpt lat="48.54834" lon="7.22901">
        <ele>924</ele>
        <time>2023-07-05T06:05:49Z</time>
      </trkpt>
      <trkpt lat="48.5483" lon="7.22903">
        <ele>924</ele>
        <time>2023-07-05T06:06:06Z</time>
      </trkpt>
      <trkpt lat="48.54825" lon="7.22904">
        <ele>924</ele>
        <time>2023-07-05T06:06:11Z</time>
      </trkpt>
      <trkpt lat="48.5482" lon="7.22905">
        <ele>924</ele>
        <time>2023-07-05T06:06:15Z</time>
      </trkpt>
      <trkpt lat="48.54815" lon="7.22908">
        <ele>924</ele>
        <time>2023-07-05T06:06:19Z</time>
      </trkpt>
      <trkpt lat="48.54816" lon="7.22916">
        <ele>924</ele>
        <time>2023-07-05T06:06:47Z</time>
      </trkpt>
      <trkpt lat="48.54815" lon="7.22922">
        <ele>923</ele>
        <time>2023-07-05T06:07:11Z</time>
      </trkpt>
      <trkpt lat="48.54821" lon="7.22912">
        <ele>924</ele>
        <time>2023-07-05T06:07:33Z</time>
      </trkpt>
      <trkpt lat="48.54833" lon="7.22904">
        <ele>925</ele>
        <time>2023-07-05T06:07:42Z</time>
      </trkpt>
      <trkpt lat="48.54829" lon="7.22893">
        <ele>925</ele>
        <time>2023-07-05T06:07:51Z</time>
      </trkpt>
      <trkpt lat="48.54822" lon="7.2288">
        <ele>926</ele>
        <time>2023-07-05T06:08:00Z</time>
      </trkpt>
      <trkpt lat="48.54821" lon="7.22873">
        <ele>926</ele>
        <time>2023-07-05T06:08:07Z</time>
      </trkpt>
      <trkpt lat="48.54817" lon="7.22869">
        <ele>927</ele>
        <time>2023-07-05T06:08:11Z</time>
      </trkpt>
      <trkpt lat="48.54813" lon="7.2286">
        <ele>927</ele>
        <time>2023-07-05T06:08:18Z</time>
      </trkpt>
      <trkpt lat="48.54811" lon="7.22853">
        <ele>927</ele>
        <time>2023-07-05T06:08:23Z</time>
      </trkpt>
      <trkpt lat="48.54811" lon="7.22844">
        <ele>928</ele>
        <time>2023-07-05T06:08:27Z</time>
      </trkpt>
      <trkpt lat="48.54805" lon="7.22834">
        <ele>929</ele>
        <time>2023-07-05T06:08:33Z</time>
      </trkpt>
      <trkpt lat="48.54803" lon="7.22828">
        <ele>929</ele>
        <time>2023-07-05T06:08:37Z</time>
      </trkpt>
      <trkpt lat="48.548" lon="7.22822">
        <ele>929</ele>
        <time>2023-07-05T06:08:42Z</time>
      </trkpt>
      <trkpt lat="48.54788" lon="7.22788">
        <ele>929</ele>
        <time>2023-07-05T06:09:01Z</time>
      </trkpt>
      <trkpt lat="48.5478" lon="7.2278">
        <ele>929</ele>
        <time>2023-07-05T06:09:08Z</time>
      </trkpt>
      <trkpt lat="48.54777" lon="7.22773">
        <ele>930</ele>
        <time>2023-07-05T06:09:16Z</time>
      </trkpt>
      <trkpt lat="48.54778" lon="7.22767">
        <ele>930</ele>
        <time>2023-07-05T06:09:20Z</time>
      </trkpt>
      <trkpt lat="48.54779" lon="7.22758">
        <ele>930</ele>
        <time>2023-07-05T06:09:25Z</time>
      </trkpt>
      <trkpt lat="48.54776" lon="7.22753">
        <ele>930</ele>
        <time>2023-07-05T06:09:28Z</time>
      </trkpt>
      <trkpt lat="48.54772" lon="7.22749">
        <ele>930</ele>
        <time>2023-07-05T06:09:32Z</time>
      </trkpt>
      <trkpt lat="48.5477" lon="7.22742">
        <ele>931</ele>
        <time>2023-07-05T06:09:36Z</time>
      </trkpt>
      <trkpt lat="48.54768" lon="7.22734">
        <ele>931</ele>
        <time>2023-07-05T06:09:40Z</time>
      </trkpt>
      <trkpt lat="48.54758" lon="7.2271">
        <ele>932</ele>
        <time>2023-07-05T06:09:54Z</time>
      </trkpt>
      <trkpt lat="48.54751" lon="7.22698">
        <ele>933</ele>
        <time>2023-07-05T06:10:04Z</time>
      </trkpt>
      <trkpt lat="48.54748" lon="7.22684">
        <ele>934</ele>
        <time>2023-07-05T06:10:12Z</time>
      </trkpt>
      <trkpt lat="48.54744" lon="7.22678">
        <ele>934</ele>
        <time>2023-07-05T06:10:16Z</time>
      </trkpt>
      <trkpt lat="48.54737" lon="7.22656">
        <ele>935</ele>
        <time>2023-07-05T06:10:29Z</time>
      </trkpt>
      <trkpt lat="48.54737" lon="7.22649">
        <ele>935</ele>
        <time>2023-07-05T06:10:32Z</time>
      </trkpt>
      <trkpt lat="48.54731" lon="7.22638">
        <ele>936</ele>
        <time>2023-07-05T06:10:40Z</time>
      </trkpt>
      <trkpt lat="48.54722" lon="7.22627">
        <ele>937</ele>
        <time>2023-07-05T06:10:49Z</time>
      </trkpt>
      <trkpt lat="48.54714" lon="7.22629">
        <ele>937</ele>
        <time>2023-07-05T06:11:05Z</time>
      </trkpt>
      <trkpt lat="48.5471" lon="7.22615">
        <ele>938</ele>
        <time>2023-07-05T06:11:12Z</time>
      </trkpt>
      <trkpt lat="48.54706" lon="7.22609">
        <ele>938</ele>
        <time>2023-07-05T06:11:16Z</time>
      </trkpt>
      <trkpt lat="48.54698" lon="7.22604">
        <ele>938</ele>
        <time>2023-07-05T06:11:23Z</time>
      </trkpt>
      <trkpt lat="48.54694" lon="7.22598">
        <ele>938</ele>
        <time>2023-07-05T06:11:27Z</time>
      </trkpt>
      <trkpt lat="48.5469" lon="7.22595">
        <ele>938</ele>
        <time>2023-07-05T06:11:31Z</time>
      </trkpt>
      <trkpt lat="48.54685" lon="7.22593">
        <ele>938</ele>
        <time>2023-07-05T06:11:34Z</time>
      </trkpt>
      <trkpt lat="48.54681" lon="7.22589">
        <ele>938</ele>
        <time>2023-07-05T06:11:37Z</time>
      </trkpt>
      <trkpt lat="48.54677" lon="7.22587">
        <ele>938</ele>
        <time>2023-07-05T06:11:41Z</time>
      </trkpt>
      <trkpt lat="48.54673" lon="7.22583">
        <ele>938</ele>
        <time>2023-07-05T06:11:44Z</time>
      </trkpt>
      <trkpt lat="48.54669" lon="7.22579">
        <ele>938</ele>
        <time>2023-07-05T06:11:48Z</time>
      </trkpt>
      <trkpt lat="48.54664" lon="7.22578">
        <ele>938</ele>
        <time>2023-07-05T06:11:51Z</time>
      </trkpt>
      <trkpt lat="48.54655" lon="7.22567">
        <ele>938</ele>
        <time>2023-07-05T06:12:01Z</time>
      </trkpt>
      <trkpt lat="48.54649" lon="7.22563">
        <ele>938</ele>
        <time>2023-07-05T06:12:05Z</time>
      </trkpt>
      <trkpt lat="48.54644" lon="7.22562">
        <ele>938</ele>
        <time>2023-07-05T06:12:08Z</time>
      </trkpt>
      <trkpt lat="48.54641" lon="7.22557">
        <ele>938</ele>
        <time>2023-07-05T06:12:11Z</time>
      </trkpt>
      <trkpt lat="48.54632" lon="7.22556">
        <ele>938</ele>
        <time>2023-07-05T06:12:18Z</time>
      </trkpt>
      <trkpt lat="48.54612" lon="7.22534">
        <ele>938</ele>
        <time>2023-07-05T06:12:38Z</time>
      </trkpt>
      <trkpt lat="48.54609" lon="7.22529">
        <ele>938</ele>
        <time>2023-07-05T06:12:42Z</time>
      </trkpt>
      <trkpt lat="48.54604" lon="7.22508">
        <ele>939</ele>
        <time>2023-07-05T06:12:54Z</time>
      </trkpt>
      <trkpt lat="48.54604" lon="7.22501">
        <ele>939</ele>
        <time>2023-07-05T06:12:58Z</time>
      </trkpt>
      <trkpt lat="48.54603" lon="7.22494">
        <ele>939</ele>
        <time>2023-07-05T06:13:02Z</time>
      </trkpt>
      <trkpt lat="48.54603" lon="7.22487">
        <ele>939</ele>
        <time>2023-07-05T06:13:06Z</time>
      </trkpt>
      <trkpt lat="48.546" lon="7.22472">
        <ele>939</ele>
        <time>2023-07-05T06:13:14Z</time>
      </trkpt>
      <trkpt lat="48.54601" lon="7.22466">
        <ele>939</ele>
        <time>2023-07-05T06:13:18Z</time>
      </trkpt>
      <trkpt lat="48.54599" lon="7.22458">
        <ele>939</ele>
        <time>2023-07-05T06:13:22Z</time>
      </trkpt>
      <trkpt lat="48.546" lon="7.2245">
        <ele>939</ele>
        <time>2023-07-05T06:13:26Z</time>
      </trkpt>
      <trkpt lat="48.54601" lon="7.22443">
        <ele>939</ele>
        <time>2023-07-05T06:13:30Z</time>
      </trkpt>
      <trkpt lat="48.54601" lon="7.22422">
        <ele>938</ele>
        <time>2023-07-05T06:13:41Z</time>
      </trkpt>
      <trkpt lat="48.546" lon="7.22415">
        <ele>938</ele>
        <time>2023-07-05T06:13:45Z</time>
      </trkpt>
      <trkpt lat="48.54604" lon="7.22409">
        <ele>937</ele>
        <time>2023-07-05T06:13:50Z</time>
      </trkpt>
      <trkpt lat="48.54603" lon="7.22402">
        <ele>937</ele>
        <time>2023-07-05T06:13:53Z</time>
      </trkpt>
      <trkpt lat="48.54602" lon="7.22395">
        <ele>937</ele>
        <time>2023-07-05T06:13:57Z</time>
      </trkpt>
      <trkpt lat="48.54605" lon="7.22373">
        <ele>940</ele>
        <time>2023-07-05T06:14:09Z</time>
      </trkpt>
      <trkpt lat="48.54604" lon="7.22344">
        <ele>939</ele>
        <time>2023-07-05T06:14:23Z</time>
      </trkpt>
      <trkpt lat="48.54605" lon="7.22329">
        <ele>939</ele>
        <time>2023-07-05T06:14:32Z</time>
      </trkpt>
      <trkpt lat="48.54607" lon="7.22316">
        <ele>939</ele>
        <time>2023-07-05T06:14:38Z</time>
      </trkpt>
      <trkpt lat="48.54609" lon="7.22308">
        <ele>939</ele>
        <time>2023-07-05T06:14:44Z</time>
      </trkpt>
      <trkpt lat="48.54609" lon="7.22298">
        <ele>940</ele>
        <time>2023-07-05T06:14:49Z</time>
      </trkpt>
      <trkpt lat="48.54608" lon="7.22292">
        <ele>940</ele>
        <time>2023-07-05T06:14:52Z</time>
      </trkpt>
      <trkpt lat="48.54609" lon="7.22284">
        <ele>940</ele>
        <time>2023-07-05T06:14:55Z</time>
      </trkpt>
      <trkpt lat="48.54607" lon="7.22276">
        <ele>940</ele>
        <time>2023-07-05T06:15:00Z</time>
      </trkpt>
      <trkpt lat="48.54611" lon="7.22248">
        <ele>941</ele>
        <time>2023-07-05T06:15:16Z</time>
      </trkpt>
      <trkpt lat="48.5461" lon="7.2223">
        <ele>941</ele>
        <time>2023-07-05T06:15:27Z</time>
      </trkpt>
      <trkpt lat="48.5461" lon="7.22223">
        <ele>941</ele>
        <time>2023-07-05T06:15:31Z</time>
      </trkpt>
      <trkpt lat="48.54608" lon="7.22217">
        <ele>941</ele>
        <time>2023-07-05T06:15:35Z</time>
      </trkpt>
      <trkpt lat="48.54608" lon="7.22211">
        <ele>941</ele>
        <time>2023-07-05T06:15:38Z</time>
      </trkpt>
      <trkpt lat="48.54607" lon="7.22202">
        <ele>942</ele>
        <time>2023-07-05T06:15:43Z</time>
      </trkpt>
      <trkpt lat="48.54609" lon="7.22185">
        <ele>942</ele>
        <time>2023-07-05T06:15:51Z</time>
      </trkpt>
      <trkpt lat="48.54606" lon="7.2217">
        <ele>942</ele>
        <time>2023-07-05T06:15:58Z</time>
      </trkpt>
      <trkpt lat="48.54606" lon="7.22161">
        <ele>942</ele>
        <time>2023-07-05T06:16:03Z</time>
      </trkpt>
      <trkpt lat="48.54605" lon="7.22155">
        <ele>942</ele>
        <time>2023-07-05T06:16:06Z</time>
      </trkpt>
      <trkpt lat="48.54605" lon="7.22148">
        <ele>942</ele>
        <time>2023-07-05T06:16:10Z</time>
      </trkpt>
      <trkpt lat="48.54604" lon="7.22141">
        <ele>942</ele>
        <time>2023-07-05T06:16:14Z</time>
      </trkpt>
      <trkpt lat="48.54602" lon="7.22134">
        <ele>941</ele>
        <time>2023-07-05T06:16:18Z</time>
      </trkpt>
      <trkpt lat="48.546" lon="7.22113">
        <ele>941</ele>
        <time>2023-07-05T06:16:30Z</time>
      </trkpt>
      <trkpt lat="48.546" lon="7.22098">
        <ele>942</ele>
        <time>2023-07-05T06:16:38Z</time>
      </trkpt>
      <trkpt lat="48.54597" lon="7.22083">
        <ele>943</ele>
        <time>2023-07-05T06:16:46Z</time>
      </trkpt>
      <trkpt lat="48.54598" lon="7.22074">
        <ele>943</ele>
        <time>2023-07-05T06:16:50Z</time>
      </trkpt>
      <trkpt lat="48.54597" lon="7.2206">
        <ele>942</ele>
        <time>2023-07-05T06:16:56Z</time>
      </trkpt>
      <trkpt lat="48.54597" lon="7.22043">
        <ele>943</ele>
        <time>2023-07-05T06:17:06Z</time>
      </trkpt>
      <trkpt lat="48.54597" lon="7.22037">
        <ele>943</ele>
        <time>2023-07-05T06:17:10Z</time>
      </trkpt>
      <trkpt lat="48.54598" lon="7.22029">
        <ele>943</ele>
        <time>2023-07-05T06:17:14Z</time>
      </trkpt>
      <trkpt lat="48.54599" lon="7.2202">
        <ele>944</ele>
        <time>2023-07-05T06:17:19Z</time>
      </trkpt>
      <trkpt lat="48.54599" lon="7.22012">
        <ele>945</ele>
        <time>2023-07-05T06:17:23Z</time>
      </trkpt>
      <trkpt lat="48.54601" lon="7.22002">
        <ele>945</ele>
        <time>2023-07-05T06:17:30Z</time>
      </trkpt>
      <trkpt lat="48.54601" lon="7.21987">
        <ele>945</ele>
        <time>2023-07-05T06:17:37Z</time>
      </trkpt>
      <trkpt lat="48.54603" lon="7.21965">
        <ele>944</ele>
        <time>2023-07-05T06:17:49Z</time>
      </trkpt>
      <trkpt lat="48.54605" lon="7.21957">
        <ele>944</ele>
        <time>2023-07-05T06:17:53Z</time>
      </trkpt>
      <trkpt lat="48.54605" lon="7.2195">
        <ele>944</ele>
        <time>2023-07-05T06:17:57Z</time>
      </trkpt>
      <trkpt lat="48.54608" lon="7.21933">
        <ele>945</ele>
        <time>2023-07-05T06:18:08Z</time>
      </trkpt>
      <trkpt lat="48.54611" lon="7.21911">
        <ele>947</ele>
        <time>2023-07-05T06:18:20Z</time>
      </trkpt>
      <trkpt lat="48.54613" lon="7.21905">
        <ele>947</ele>
        <time>2023-07-05T06:18:24Z</time>
      </trkpt>
      <trkpt lat="48.54614" lon="7.21898">
        <ele>946</ele>
        <time>2023-07-05T06:18:28Z</time>
      </trkpt>
      <trkpt lat="48.54618" lon="7.21889">
        <ele>946</ele>
        <time>2023-07-05T06:18:32Z</time>
      </trkpt>
      <trkpt lat="48.5462" lon="7.21879">
        <ele>946</ele>
        <time>2023-07-05T06:18:39Z</time>
      </trkpt>
      <trkpt lat="48.54622" lon="7.21873">
        <ele>946</ele>
        <time>2023-07-05T06:18:42Z</time>
      </trkpt>
      <trkpt lat="48.54626" lon="7.21868">
        <ele>946</ele>
        <time>2023-07-05T06:18:46Z</time>
      </trkpt>
      <trkpt lat="48.54634" lon="7.2185">
        <ele>945</ele>
        <time>2023-07-05T06:18:57Z</time>
      </trkpt>
      <trkpt lat="48.54638" lon="7.21838">
        <ele>946</ele>
        <time>2023-07-05T06:19:04Z</time>
      </trkpt>
      <trkpt lat="48.54641" lon="7.21832">
        <ele>945</ele>
        <time>2023-07-05T06:19:08Z</time>
      </trkpt>
      <trkpt lat="48.54648" lon="7.21812">
        <ele>946</ele>
        <time>2023-07-05T06:19:20Z</time>
      </trkpt>
      <trkpt lat="48.54649" lon="7.21805">
        <ele>945</ele>
        <time>2023-07-05T06:19:23Z</time>
      </trkpt>
      <trkpt lat="48.54653" lon="7.21792">
        <ele>946</ele>
        <time>2023-07-05T06:19:31Z</time>
      </trkpt>
      <trkpt lat="48.54657" lon="7.2178">
        <ele>947</ele>
        <time>2023-07-05T06:19:39Z</time>
      </trkpt>
      <trkpt lat="48.54659" lon="7.21759">
        <ele>947</ele>
        <time>2023-07-05T06:19:49Z</time>
      </trkpt>
      <trkpt lat="48.54662" lon="7.21752">
        <ele>946</ele>
        <time>2023-07-05T06:19:53Z</time>
      </trkpt>
      <trkpt lat="48.54663" lon="7.21738">
        <ele>946</ele>
        <time>2023-07-05T06:20:00Z</time>
      </trkpt>
      <trkpt lat="48.54662" lon="7.21731">
        <ele>946</ele>
        <time>2023-07-05T06:20:03Z</time>
      </trkpt>
      <trkpt lat="48.54663" lon="7.21718">
        <ele>947</ele>
        <time>2023-07-05T06:20:11Z</time>
      </trkpt>
      <trkpt lat="48.54666" lon="7.2171">
        <ele>947</ele>
        <time>2023-07-05T06:20:15Z</time>
      </trkpt>
      <trkpt lat="48.54667" lon="7.21703">
        <ele>947</ele>
        <time>2023-07-05T06:20:19Z</time>
      </trkpt>
      <trkpt lat="48.54667" lon="7.21695">
        <ele>949</ele>
        <time>2023-07-05T06:20:23Z</time>
      </trkpt>
      <trkpt lat="48.54668" lon="7.2168">
        <ele>949</ele>
        <time>2023-07-05T06:20:31Z</time>
      </trkpt>
      <trkpt lat="48.5467" lon="7.21673">
        <ele>948</ele>
        <time>2023-07-05T06:20:34Z</time>
      </trkpt>
      <trkpt lat="48.5467" lon="7.21666">
        <ele>948</ele>
        <time>2023-07-05T06:20:38Z</time>
      </trkpt>
      <trkpt lat="48.54669" lon="7.21657">
        <ele>948</ele>
        <time>2023-07-05T06:20:42Z</time>
      </trkpt>
      <trkpt lat="48.54672" lon="7.2165">
        <ele>948</ele>
        <time>2023-07-05T06:20:46Z</time>
      </trkpt>
      <trkpt lat="48.5467" lon="7.21644">
        <ele>948</ele>
        <time>2023-07-05T06:20:49Z</time>
      </trkpt>
      <trkpt lat="48.5467" lon="7.21623">
        <ele>949</ele>
        <time>2023-07-05T06:21:00Z</time>
      </trkpt>
      <trkpt lat="48.54671" lon="7.21616">
        <ele>948</ele>
        <time>2023-07-05T06:21:04Z</time>
      </trkpt>
      <trkpt lat="48.54672" lon="7.21608">
        <ele>948</ele>
        <time>2023-07-05T06:21:08Z</time>
      </trkpt>
      <trkpt lat="48.54672" lon="7.216">
        <ele>949</ele>
        <time>2023-07-05T06:21:12Z</time>
      </trkpt>
      <trkpt lat="48.54673" lon="7.21593">
        <ele>950</ele>
        <time>2023-07-05T06:21:15Z</time>
      </trkpt>
      <trkpt lat="48.54673" lon="7.21585">
        <ele>949</ele>
        <time>2023-07-05T06:21:19Z</time>
      </trkpt>
      <trkpt lat="48.54673" lon="7.21578">
        <ele>950</ele>
        <time>2023-07-05T06:21:23Z</time>
      </trkpt>
      <trkpt lat="48.54672" lon="7.21567">
        <ele>951</ele>
        <time>2023-07-05T06:21:28Z</time>
      </trkpt>
      <trkpt lat="48.54672" lon="7.21552">
        <ele>951</ele>
        <time>2023-07-05T06:21:35Z</time>
      </trkpt>
      <trkpt lat="48.54671" lon="7.21537">
        <ele>952</ele>
        <time>2023-07-05T06:21:43Z</time>
      </trkpt>
      <trkpt lat="48.54672" lon="7.2153">
        <ele>951</ele>
        <time>2023-07-05T06:21:46Z</time>
      </trkpt>
      <trkpt lat="48.5467" lon="7.21523">
        <ele>951</ele>
        <time>2023-07-05T06:21:50Z</time>
      </trkpt>
      <trkpt lat="48.5467" lon="7.2151">
        <ele>953</ele>
        <time>2023-07-05T06:21:57Z</time>
      </trkpt>
      <trkpt lat="48.54669" lon="7.21485">
        <ele>953</ele>
        <time>2023-07-05T06:22:09Z</time>
      </trkpt>
      <trkpt lat="48.54668" lon="7.21479">
        <ele>953</ele>
        <time>2023-07-05T06:22:13Z</time>
      </trkpt>
      <trkpt lat="48.54668" lon="7.2147">
        <ele>953</ele>
        <time>2023-07-05T06:22:17Z</time>
      </trkpt>
      <trkpt lat="48.54669" lon="7.21462">
        <ele>952</ele>
        <time>2023-07-05T06:22:21Z</time>
      </trkpt>
      <trkpt lat="48.54668" lon="7.21455">
        <ele>952</ele>
        <time>2023-07-05T06:22:25Z</time>
      </trkpt>
      <trkpt lat="48.54667" lon="7.21448">
        <ele>954</ele>
        <time>2023-07-05T06:22:28Z</time>
      </trkpt>
      <trkpt lat="48.54666" lon="7.21441">
        <ele>954</ele>
        <time>2023-07-05T06:22:32Z</time>
      </trkpt>
      <trkpt lat="48.54666" lon="7.21434">
        <ele>954</ele>
        <time>2023-07-05T06:22:36Z</time>
      </trkpt>
      <trkpt lat="48.54665" lon="7.21427">
        <ele>954</ele>
        <time>2023-07-05T06:22:40Z</time>
      </trkpt>
      <trkpt lat="48.54665" lon="7.21419">
        <ele>954</ele>
        <time>2023-07-05T06:22:43Z</time>
      </trkpt>
      <trkpt lat="48.54664" lon="7.21411">
        <ele>953</ele>
        <time>2023-07-05T06:22:47Z</time>
      </trkpt>
      <trkpt lat="48.54663" lon="7.21405">
        <ele>954</ele>
        <time>2023-07-05T06:22:50Z</time>
      </trkpt>
      <trkpt lat="48.54662" lon="7.21398">
        <ele>954</ele>
        <time>2023-07-05T06:22:53Z</time>
      </trkpt>
      <trkpt lat="48.5466" lon="7.21392">
        <ele>954</ele>
        <time>2023-07-05T06:22:57Z</time>
      </trkpt>
      <trkpt lat="48.5466" lon="7.21385">
        <ele>954</ele>
        <time>2023-07-05T06:23:00Z</time>
      </trkpt>
      <trkpt lat="48.54656" lon="7.21373">
        <ele>953</ele>
        <time>2023-07-05T06:23:06Z</time>
      </trkpt>
      <trkpt lat="48.54658" lon="7.21366">
        <ele>953</ele>
        <time>2023-07-05T06:23:09Z</time>
      </trkpt>
      <trkpt lat="48.54657" lon="7.2136">
        <ele>954</ele>
        <time>2023-07-05T06:23:13Z</time>
      </trkpt>
      <trkpt lat="48.54655" lon="7.21353">
        <ele>954</ele>
        <time>2023-07-05T06:23:16Z</time>
      </trkpt>
      <trkpt lat="48.54642" lon="7.21322">
        <ele>953</ele>
        <time>2023-07-05T06:23:33Z</time>
      </trkpt>
      <trkpt lat="48.54638" lon="7.21319">
        <ele>953</ele>
        <time>2023-07-05T06:23:36Z</time>
      </trkpt>
      <trkpt lat="48.54636" lon="7.21314">
        <ele>953</ele>
        <time>2023-07-05T06:23:39Z</time>
      </trkpt>
      <trkpt lat="48.54634" lon="7.21306">
        <ele>952</ele>
        <time>2023-07-05T06:23:43Z</time>
      </trkpt>
      <trkpt lat="48.54632" lon="7.213">
        <ele>952</ele>
        <time>2023-07-05T06:23:47Z</time>
      </trkpt>
      <trkpt lat="48.54629" lon="7.21294">
        <ele>953</ele>
        <time>2023-07-05T06:23:51Z</time>
      </trkpt>
      <trkpt lat="48.54629" lon="7.21287">
        <ele>953</ele>
        <time>2023-07-05T06:23:54Z</time>
      </trkpt>
      <trkpt lat="48.54624" lon="7.21283">
        <ele>953</ele>
        <time>2023-07-05T06:23:57Z</time>
      </trkpt>
      <trkpt lat="48.54616" lon="7.21265">
        <ele>953</ele>
        <time>2023-07-05T06:24:08Z</time>
      </trkpt>
      <trkpt lat="48.54614" lon="7.2125">
        <ele>952</ele>
        <time>2023-07-05T06:24:15Z</time>
      </trkpt>
      <trkpt lat="48.54612" lon="7.21244">
        <ele>952</ele>
        <time>2023-07-05T06:24:18Z</time>
      </trkpt>
      <trkpt lat="48.54611" lon="7.21237">
        <ele>952</ele>
        <time>2023-07-05T06:24:22Z</time>
      </trkpt>
      <trkpt lat="48.54613" lon="7.2122">
        <ele>951</ele>
        <time>2023-07-05T06:24:31Z</time>
      </trkpt>
      <trkpt lat="48.54613" lon="7.21213">
        <ele>951</ele>
        <time>2023-07-05T06:24:35Z</time>
      </trkpt>
      <trkpt lat="48.54615" lon="7.21206">
        <ele>951</ele>
        <time>2023-07-05T06:24:38Z</time>
      </trkpt>
      <trkpt lat="48.54615" lon="7.212">
        <ele>951</ele>
        <time>2023-07-05T06:24:41Z</time>
      </trkpt>
      <trkpt lat="48.54616" lon="7.21193">
        <ele>951</ele>
        <time>2023-07-05T06:24:45Z</time>
      </trkpt>
      <trkpt lat="48.54615" lon="7.21185">
        <ele>951</ele>
        <time>2023-07-05T06:24:48Z</time>
      </trkpt>
      <trkpt lat="48.54615" lon="7.21178">
        <ele>951</ele>
        <time>2023-07-05T06:24:52Z</time>
      </trkpt>
      <trkpt lat="48.54614" lon="7.21171">
        <ele>951</ele>
        <time>2023-07-05T06:24:56Z</time>
      </trkpt>
      <trkpt lat="48.54617" lon="7.21162">
        <ele>950</ele>
        <time>2023-07-05T06:25:03Z</time>
      </trkpt>
      <trkpt lat="48.54621" lon="7.21141">
        <ele>948</ele>
        <time>2023-07-05T06:25:12Z</time>
      </trkpt>
      <trkpt lat="48.54626" lon="7.21128">
        <ele>947</ele>
        <time>2023-07-05T06:25:19Z</time>
      </trkpt>
      <trkpt lat="48.54626" lon="7.21121">
        <ele>947</ele>
        <time>2023-07-05T06:25:22Z</time>
      </trkpt>
      <trkpt lat="48.54634" lon="7.21096">
        <ele>946</ele>
        <time>2023-07-05T06:25:36Z</time>
      </trkpt>
      <trkpt lat="48.54638" lon="7.21091">
        <ele>945</ele>
        <time>2023-07-05T06:25:40Z</time>
      </trkpt>
      <trkpt lat="48.54642" lon="7.21086">
        <ele>945</ele>
        <time>2023-07-05T06:25:44Z</time>
      </trkpt>
      <trkpt lat="48.54644" lon="7.2108">
        <ele>945</ele>
        <time>2023-07-05T06:25:47Z</time>
      </trkpt>
      <trkpt lat="48.54645" lon="7.21073">
        <ele>944</ele>
        <time>2023-07-05T06:25:50Z</time>
      </trkpt>
      <trkpt lat="48.54649" lon="7.21067">
        <ele>944</ele>
        <time>2023-07-05T06:25:54Z</time>
      </trkpt>
      <trkpt lat="48.54652" lon="7.2106">
        <ele>943</ele>
        <time>2023-07-05T06:25:58Z</time>
      </trkpt>
      <trkpt lat="48.54654" lon="7.21053">
        <ele>943</ele>
        <time>2023-07-05T06:26:02Z</time>
      </trkpt>
      <trkpt lat="48.54657" lon="7.21045">
        <ele>943</ele>
        <time>2023-07-05T06:26:06Z</time>
      </trkpt>
      <trkpt lat="48.5466" lon="7.21042">
        <ele>943</ele>
        <time>2023-07-05T06:26:10Z</time>
      </trkpt>
      <trkpt lat="48.5467" lon="7.21032">
        <ele>942</ele>
        <time>2023-07-05T06:26:18Z</time>
      </trkpt>
      <trkpt lat="48.54675" lon="7.21027">
        <ele>942</ele>
        <time>2023-07-05T06:26:22Z</time>
      </trkpt>
      <trkpt lat="48.5468" lon="7.21021">
        <ele>942</ele>
        <time>2023-07-05T06:26:27Z</time>
      </trkpt>
      <trkpt lat="48.54702" lon="7.21004">
        <ele>938</ele>
        <time>2023-07-05T06:26:46Z</time>
      </trkpt>
      <trkpt lat="48.54711" lon="7.21002">
        <ele>938</ele>
        <time>2023-07-05T06:26:53Z</time>
      </trkpt>
      <trkpt lat="48.54727" lon="7.21001">
        <ele>936</ele>
        <time>2023-07-05T06:27:05Z</time>
      </trkpt>
      <trkpt lat="48.54731" lon="7.21003">
        <ele>936</ele>
        <time>2023-07-05T06:27:09Z</time>
      </trkpt>
      <trkpt lat="48.54741" lon="7.21011">
        <ele>937</ele>
        <time>2023-07-05T06:27:19Z</time>
      </trkpt>
      <trkpt lat="48.54745" lon="7.21013">
        <ele>936</ele>
        <time>2023-07-05T06:27:23Z</time>
      </trkpt>
      <trkpt lat="48.5475" lon="7.21014">
        <ele>935</ele>
        <time>2023-07-05T06:27:26Z</time>
      </trkpt>
      <trkpt lat="48.54758" lon="7.21022">
        <ele>936</ele>
        <time>2023-07-05T06:27:33Z</time>
      </trkpt>
      <trkpt lat="48.54772" lon="7.21033">
        <ele>935</ele>
        <time>2023-07-05T06:27:44Z</time>
      </trkpt>
      <trkpt lat="48.54789" lon="7.21048">
        <ele>936</ele>
        <time>2023-07-05T06:27:58Z</time>
      </trkpt>
      <trkpt lat="48.54798" lon="7.21056">
        <ele>935</ele>
        <time>2023-07-05T06:28:07Z</time>
      </trkpt>
      <trkpt lat="48.54807" lon="7.21062">
        <ele>936</ele>
        <time>2023-07-05T06:28:15Z</time>
      </trkpt>
      <trkpt lat="48.54811" lon="7.21064">
        <ele>936</ele>
        <time>2023-07-05T06:28:18Z</time>
      </trkpt>
      <trkpt lat="48.5482" lon="7.2107">
        <ele>936</ele>
        <time>2023-07-05T06:28:25Z</time>
      </trkpt>
      <trkpt lat="48.54829" lon="7.21073">
        <ele>936</ele>
        <time>2023-07-05T06:28:33Z</time>
      </trkpt>
      <trkpt lat="48.54834" lon="7.21072">
        <ele>936</ele>
        <time>2023-07-05T06:28:36Z</time>
      </trkpt>
      <trkpt lat="48.54839" lon="7.21074">
        <ele>935</ele>
        <time>2023-07-05T06:28:40Z</time>
      </trkpt>
      <trkpt lat="48.54849" lon="7.21076">
        <ele>936</ele>
        <time>2023-07-05T06:28:48Z</time>
      </trkpt>
      <trkpt lat="48.54855" lon="7.21078">
        <ele>936</ele>
        <time>2023-07-05T06:28:52Z</time>
      </trkpt>
      <trkpt lat="48.54859" lon="7.21079">
        <ele>936</ele>
        <time>2023-07-05T06:28:56Z</time>
      </trkpt>
      <trkpt lat="48.54864" lon="7.2108">
        <ele>936</ele>
        <time>2023-07-05T06:29:00Z</time>
      </trkpt>
      <trkpt lat="48.54874" lon="7.21082">
        <ele>936</ele>
        <time>2023-07-05T06:29:08Z</time>
      </trkpt>
      <trkpt lat="48.54879" lon="7.21083">
        <ele>937</ele>
        <time>2023-07-05T06:29:12Z</time>
      </trkpt>
      <trkpt lat="48.54888" lon="7.21086">
        <ele>937</ele>
        <time>2023-07-05T06:29:20Z</time>
      </trkpt>
      <trkpt lat="48.54898" lon="7.21085">
        <ele>936</ele>
        <time>2023-07-05T06:29:27Z</time>
      </trkpt>
      <trkpt lat="48.54908" lon="7.21087">
        <ele>937</ele>
        <time>2023-07-05T06:29:35Z</time>
      </trkpt>
      <trkpt lat="48.54923" lon="7.21087">
        <ele>937</ele>
        <time>2023-07-05T06:29:46Z</time>
      </trkpt>
      <trkpt lat="48.54927" lon="7.21086">
        <ele>937</ele>
        <time>2023-07-05T06:29:51Z</time>
      </trkpt>
      <trkpt lat="48.54932" lon="7.21087">
        <ele>937</ele>
        <time>2023-07-05T06:29:54Z</time>
      </trkpt>
      <trkpt lat="48.54937" lon="7.21089">
        <ele>938</ele>
        <time>2023-07-05T06:29:58Z</time>
      </trkpt>
      <trkpt lat="48.54947" lon="7.21089">
        <ele>939</ele>
        <time>2023-07-05T06:30:05Z</time>
      </trkpt>
      <trkpt lat="48.54952" lon="7.21088">
        <ele>939</ele>
        <time>2023-07-05T06:30:09Z</time>
      </trkpt>
      <trkpt lat="48.54957" lon="7.21088">
        <ele>939</ele>
        <time>2023-07-05T06:30:13Z</time>
      </trkpt>
      <trkpt lat="48.54976" lon="7.21084">
        <ele>940</ele>
        <time>2023-07-05T06:30:26Z</time>
      </trkpt>
      <trkpt lat="48.5498" lon="7.21084">
        <ele>941</ele>
        <time>2023-07-05T06:30:29Z</time>
      </trkpt>
      <trkpt lat="48.54985" lon="7.21083">
        <ele>941</ele>
        <time>2023-07-05T06:30:33Z</time>
      </trkpt>
      <trkpt lat="48.54994" lon="7.21083">
        <ele>942</ele>
        <time>2023-07-05T06:30:41Z</time>
      </trkpt>
      <trkpt lat="48.55008" lon="7.21081">
        <ele>941</ele>
        <time>2023-07-05T06:30:52Z</time>
      </trkpt>
      <trkpt lat="48.55017" lon="7.21079">
        <ele>942</ele>
        <time>2023-07-05T06:31:00Z</time>
      </trkpt>
      <trkpt lat="48.55021" lon="7.21077">
        <ele>942</ele>
        <time>2023-07-05T06:31:03Z</time>
      </trkpt>
      <trkpt lat="48.55026" lon="7.21077">
        <ele>942</ele>
        <time>2023-07-05T06:31:07Z</time>
      </trkpt>
      <trkpt lat="48.55031" lon="7.21077">
        <ele>942</ele>
        <time>2023-07-05T06:31:11Z</time>
      </trkpt>
      <trkpt lat="48.55037" lon="7.21078">
        <ele>942</ele>
        <time>2023-07-05T06:31:16Z</time>
      </trkpt>
      <trkpt lat="48.55051" lon="7.21071">
        <ele>942</ele>
        <time>2023-07-05T06:31:26Z</time>
      </trkpt>
      <trkpt lat="48.55055" lon="7.21069">
        <ele>942</ele>
        <time>2023-07-05T06:31:29Z</time>
      </trkpt>
      <trkpt lat="48.5506" lon="7.21065">
        <ele>942</ele>
        <time>2023-07-05T06:31:33Z</time>
      </trkpt>
      <trkpt lat="48.55069" lon="7.2105">
        <ele>940</ele>
        <time>2023-07-05T06:31:43Z</time>
      </trkpt>
      <trkpt lat="48.55077" lon="7.21041">
        <ele>939</ele>
        <time>2023-07-05T06:31:50Z</time>
      </trkpt>
      <trkpt lat="48.55084" lon="7.21033">
        <ele>938</ele>
        <time>2023-07-05T06:31:58Z</time>
      </trkpt>
      <trkpt lat="48.55087" lon="7.21026">
        <ele>937</ele>
        <time>2023-07-05T06:32:02Z</time>
      </trkpt>
      <trkpt lat="48.55104" lon="7.20999">
        <ele>934</ele>
        <time>2023-07-05T06:32:20Z</time>
      </trkpt>
      <trkpt lat="48.55105" lon="7.20991">
        <ele>934</ele>
        <time>2023-07-05T06:32:24Z</time>
      </trkpt>
      <trkpt lat="48.55108" lon="7.20986">
        <ele>934</ele>
        <time>2023-07-05T06:32:27Z</time>
      </trkpt>
      <trkpt lat="48.5511" lon="7.20979">
        <ele>933</ele>
        <time>2023-07-05T06:32:31Z</time>
      </trkpt>
      <trkpt lat="48.55114" lon="7.20973">
        <ele>932</ele>
        <time>2023-07-05T06:32:35Z</time>
      </trkpt>
      <trkpt lat="48.55116" lon="7.20966">
        <ele>932</ele>
        <time>2023-07-05T06:32:39Z</time>
      </trkpt>
      <trkpt lat="48.5512" lon="7.20936">
        <ele>929</ele>
        <time>2023-07-05T06:32:55Z</time>
      </trkpt>
      <trkpt lat="48.55122" lon="7.2093">
        <ele>928</ele>
        <time>2023-07-05T06:32:58Z</time>
      </trkpt>
      <trkpt lat="48.55123" lon="7.20922">
        <ele>928</ele>
        <time>2023-07-05T06:33:02Z</time>
      </trkpt>
      <trkpt lat="48.55125" lon="7.20914">
        <ele>927</ele>
        <time>2023-07-05T06:33:06Z</time>
      </trkpt>
      <trkpt lat="48.55128" lon="7.20893">
        <ele>925</ele>
        <time>2023-07-05T06:33:17Z</time>
      </trkpt>
      <trkpt lat="48.55131" lon="7.20885">
        <ele>924</ele>
        <time>2023-07-05T06:33:21Z</time>
      </trkpt>
      <trkpt lat="48.55133" lon="7.20879">
        <ele>924</ele>
        <time>2023-07-05T06:33:25Z</time>
      </trkpt>
      <trkpt lat="48.55136" lon="7.20873">
        <ele>923</ele>
        <time>2023-07-05T06:33:29Z</time>
      </trkpt>
      <trkpt lat="48.55148" lon="7.20816">
        <ele>920</ele>
        <time>2023-07-05T06:34:00Z</time>
      </trkpt>
      <trkpt lat="48.55148" lon="7.20809">
        <ele>919</ele>
        <time>2023-07-05T06:34:03Z</time>
      </trkpt>
      <trkpt lat="48.55155" lon="7.20773">
        <ele>916</ele>
        <time>2023-07-05T06:34:21Z</time>
      </trkpt>
      <trkpt lat="48.55158" lon="7.20766">
        <ele>916</ele>
        <time>2023-07-05T06:34:25Z</time>
      </trkpt>
      <trkpt lat="48.55157" lon="7.20704">
        <ele>910</ele>
        <time>2023-07-05T06:34:57Z</time>
      </trkpt>
      <trkpt lat="48.55156" lon="7.20675">
        <ele>908</ele>
        <time>2023-07-05T06:35:11Z</time>
      </trkpt>
      <trkpt lat="48.55154" lon="7.20668">
        <ele>908</ele>
        <time>2023-07-05T06:35:15Z</time>
      </trkpt>
      <trkpt lat="48.55154" lon="7.2066">
        <ele>907</ele>
        <time>2023-07-05T06:35:19Z</time>
      </trkpt>
      <trkpt lat="48.55152" lon="7.20654">
        <ele>906</ele>
        <time>2023-07-05T06:35:23Z</time>
      </trkpt>
      <trkpt lat="48.55152" lon="7.20639">
        <ele>906</ele>
        <time>2023-07-05T06:35:30Z</time>
      </trkpt>
      <trkpt lat="48.5515" lon="7.20616">
        <ele>903</ele>
        <time>2023-07-05T06:35:42Z</time>
      </trkpt>
      <trkpt lat="48.5515" lon="7.20609">
        <ele>902</ele>
        <time>2023-07-05T06:35:45Z</time>
      </trkpt>
      <trkpt lat="48.55148" lon="7.20594">
        <ele>901</ele>
        <time>2023-07-05T06:35:53Z</time>
      </trkpt>
      <trkpt lat="48.55149" lon="7.20571">
        <ele>899</ele>
        <time>2023-07-05T06:36:04Z</time>
      </trkpt>
      <trkpt lat="48.55147" lon="7.20542">
        <ele>896</ele>
        <time>2023-07-05T06:36:19Z</time>
      </trkpt>
      <trkpt lat="48.55148" lon="7.20526">
        <ele>895</ele>
        <time>2023-07-05T06:36:26Z</time>
      </trkpt>
      <trkpt lat="48.55151" lon="7.20518">
        <ele>894</ele>
        <time>2023-07-05T06:36:30Z</time>
      </trkpt>
      <trkpt lat="48.55149" lon="7.20512">
        <ele>894</ele>
        <time>2023-07-05T06:36:34Z</time>
      </trkpt>
      <trkpt lat="48.5515" lon="7.20479">
        <ele>891</ele>
        <time>2023-07-05T06:36:50Z</time>
      </trkpt>
      <trkpt lat="48.55153" lon="7.20471">
        <ele>890</ele>
        <time>2023-07-05T06:36:54Z</time>
      </trkpt>
      <trkpt lat="48.55151" lon="7.20457">
        <ele>889</ele>
        <time>2023-07-05T06:37:01Z</time>
      </trkpt>
      <trkpt lat="48.5515" lon="7.20449">
        <ele>890</ele>
        <time>2023-07-05T06:37:05Z</time>
      </trkpt>
      <trkpt lat="48.55152" lon="7.20435">
        <ele>888</ele>
        <time>2023-07-05T06:37:12Z</time>
      </trkpt>
      <trkpt lat="48.55151" lon="7.20427">
        <ele>887</ele>
        <time>2023-07-05T06:37:16Z</time>
      </trkpt>
      <trkpt lat="48.55151" lon="7.2042">
        <ele>887</ele>
        <time>2023-07-05T06:37:20Z</time>
      </trkpt>
      <trkpt lat="48.55149" lon="7.20412">
        <ele>887</ele>
        <time>2023-07-05T06:37:24Z</time>
      </trkpt>
      <trkpt lat="48.55148" lon="7.20406">
        <ele>886</ele>
        <time>2023-07-05T06:37:28Z</time>
      </trkpt>
      <trkpt lat="48.55149" lon="7.20399">
        <ele>885</ele>
        <time>2023-07-05T06:37:32Z</time>
      </trkpt>
      <trkpt lat="48.55149" lon="7.20377">
        <ele>883</ele>
        <time>2023-07-05T06:37:44Z</time>
      </trkpt>
      <trkpt lat="48.55149" lon="7.2037">
        <ele>882</ele>
        <time>2023-07-05T06:37:47Z</time>
      </trkpt>
      <trkpt lat="48.55148" lon="7.20363">
        <ele>881</ele>
        <time>2023-07-05T06:37:51Z</time>
      </trkpt>
      <trkpt lat="48.55146" lon="7.20355">
        <ele>881</ele>
        <time>2023-07-05T06:37:55Z</time>
      </trkpt>
      <trkpt lat="48.55146" lon="7.20348">
        <ele>881</ele>
        <time>2023-07-05T06:37:59Z</time>
      </trkpt>
      <trkpt lat="48.55148" lon="7.2034">
        <ele>880</ele>
        <time>2023-07-05T06:38:03Z</time>
      </trkpt>
      <trkpt lat="48.55148" lon="7.20332">
        <ele>879</ele>
        <time>2023-07-05T06:38:07Z</time>
      </trkpt>
      <trkpt lat="48.55144" lon="7.20326">
        <ele>879</ele>
        <time>2023-07-05T06:38:11Z</time>
      </trkpt>
      <trkpt lat="48.55142" lon="7.20312">
        <ele>877</ele>
        <time>2023-07-05T06:38:18Z</time>
      </trkpt>
      <trkpt lat="48.55147" lon="7.20254">
        <ele>871</ele>
        <time>2023-07-05T06:38:49Z</time>
      </trkpt>
      <trkpt lat="48.55139" lon="7.20236">
        <ele>869</ele>
        <time>2023-07-05T06:38:59Z</time>
      </trkpt>
      <trkpt lat="48.55136" lon="7.20233">
        <ele>869</ele>
        <time>2023-07-05T06:39:02Z</time>
      </trkpt>
      <trkpt lat="48.55134" lon="7.20219">
        <ele>870</ele>
        <time>2023-07-05T06:39:09Z</time>
      </trkpt>
      <trkpt lat="48.55133" lon="7.20212">
        <ele>869</ele>
        <time>2023-07-05T06:39:20Z</time>
      </trkpt>
      <trkpt lat="48.55131" lon="7.20205">
        <ele>868</ele>
        <time>2023-07-05T06:39:30Z</time>
      </trkpt>
      <trkpt lat="48.55127" lon="7.20192">
        <ele>866</ele>
        <time>2023-07-05T06:39:39Z</time>
      </trkpt>
      <trkpt lat="48.55125" lon="7.20185">
        <ele>865</ele>
        <time>2023-07-05T06:39:43Z</time>
      </trkpt>
      <trkpt lat="48.55126" lon="7.2017">
        <ele>863</ele>
        <time>2023-07-05T06:39:51Z</time>
      </trkpt>
      <trkpt lat="48.55124" lon="7.20163">
        <ele>863</ele>
        <time>2023-07-05T06:39:54Z</time>
      </trkpt>
      <trkpt lat="48.55124" lon="7.20154">
        <ele>862</ele>
        <time>2023-07-05T06:39:59Z</time>
      </trkpt>
      <trkpt lat="48.55123" lon="7.20147">
        <ele>862</ele>
        <time>2023-07-05T06:40:02Z</time>
      </trkpt>
      <trkpt lat="48.55121" lon="7.20138">
        <ele>861</ele>
        <time>2023-07-05T06:40:07Z</time>
      </trkpt>
      <trkpt lat="48.5512" lon="7.20132">
        <ele>861</ele>
        <time>2023-07-05T06:40:10Z</time>
      </trkpt>
      <trkpt lat="48.55116" lon="7.20121">
        <ele>862</ele>
        <time>2023-07-05T06:40:17Z</time>
      </trkpt>
      <trkpt lat="48.55115" lon="7.20113">
        <ele>861</ele>
        <time>2023-07-05T06:40:20Z</time>
      </trkpt>
      <trkpt lat="48.55113" lon="7.20102">
        <ele>860</ele>
        <time>2023-07-05T06:40:27Z</time>
      </trkpt>
      <trkpt lat="48.55112" lon="7.20094">
        <ele>858</ele>
        <time>2023-07-05T06:40:32Z</time>
      </trkpt>
      <trkpt lat="48.55106" lon="7.20083">
        <ele>857</ele>
        <time>2023-07-05T06:40:40Z</time>
      </trkpt>
      <trkpt lat="48.55106" lon="7.20076">
        <ele>856</ele>
        <time>2023-07-05T06:40:44Z</time>
      </trkpt>
      <trkpt lat="48.55101" lon="7.20056">
        <ele>854</ele>
        <time>2023-07-05T06:40:57Z</time>
      </trkpt>
      <trkpt lat="48.55096" lon="7.20051">
        <ele>853</ele>
        <time>2023-07-05T06:41:02Z</time>
      </trkpt>
      <trkpt lat="48.55087" lon="7.20027">
        <ele>851</ele>
        <time>2023-07-05T06:41:19Z</time>
      </trkpt>
      <trkpt lat="48.55085" lon="7.20013">
        <ele>850</ele>
        <time>2023-07-05T06:41:28Z</time>
      </trkpt>
      <trkpt lat="48.55082" lon="7.20007">
        <ele>850</ele>
        <time>2023-07-05T06:41:32Z</time>
      </trkpt>
      <trkpt lat="48.55082" lon="7.2">
        <ele>850</ele>
        <time>2023-07-05T06:41:39Z</time>
      </trkpt>
      <trkpt lat="48.55081" lon="7.19993">
        <ele>849</ele>
        <time>2023-07-05T06:42:09Z</time>
      </trkpt>
      <trkpt lat="48.55075" lon="7.1998">
        <ele>847</ele>
        <time>2023-07-05T06:42:28Z</time>
      </trkpt>
      <trkpt lat="48.55071" lon="7.19976">
        <ele>847</ele>
        <time>2023-07-05T06:42:33Z</time>
      </trkpt>
      <trkpt lat="48.55067" lon="7.19961">
        <ele>846</ele>
        <time>2023-07-05T06:42:40Z</time>
      </trkpt>
      <trkpt lat="48.55064" lon="7.19956">
        <ele>846</ele>
        <time>2023-07-05T06:42:44Z</time>
      </trkpt>
      <trkpt lat="48.55064" lon="7.1995">
        <ele>846</ele>
        <time>2023-07-05T06:42:52Z</time>
      </trkpt>
      <trkpt lat="48.55058" lon="7.1994">
        <ele>846</ele>
        <time>2023-07-05T06:43:30Z</time>
      </trkpt>
      <trkpt lat="48.55055" lon="7.19935">
        <ele>845</ele>
        <time>2023-07-05T06:43:35Z</time>
      </trkpt>
      <trkpt lat="48.55053" lon="7.19926">
        <ele>845</ele>
        <time>2023-07-05T06:43:40Z</time>
      </trkpt>
      <trkpt lat="48.55047" lon="7.19917">
        <ele>844</ele>
        <time>2023-07-05T06:43:48Z</time>
      </trkpt>
      <trkpt lat="48.55045" lon="7.19909">
        <ele>843</ele>
        <time>2023-07-05T06:43:52Z</time>
      </trkpt>
      <trkpt lat="48.55041" lon="7.19905">
        <ele>843</ele>
        <time>2023-07-05T06:43:59Z</time>
      </trkpt>
      <trkpt lat="48.55038" lon="7.199">
        <ele>842</ele>
        <time>2023-07-05T06:44:02Z</time>
      </trkpt>
      <trkpt lat="48.55033" lon="7.19899">
        <ele>842</ele>
        <time>2023-07-05T06:44:06Z</time>
      </trkpt>
      <trkpt lat="48.55032" lon="7.1989">
        <ele>841</ele>
        <time>2023-07-05T06:44:12Z</time>
      </trkpt>
      <trkpt lat="48.55026" lon="7.19886">
        <ele>841</ele>
        <time>2023-07-05T06:44:22Z</time>
      </trkpt>
      <trkpt lat="48.55026" lon="7.19876">
        <ele>840</ele>
        <time>2023-07-05T06:44:33Z</time>
      </trkpt>
      <trkpt lat="48.55021" lon="7.19869">
        <ele>839</ele>
        <time>2023-07-05T06:44:39Z</time>
      </trkpt>
      <trkpt lat="48.55017" lon="7.1987">
        <ele>839</ele>
        <time>2023-07-05T06:44:43Z</time>
      </trkpt>
      <trkpt lat="48.55016" lon="7.1986">
        <ele>838</ele>
        <time>2023-07-05T06:44:48Z</time>
      </trkpt>
      <trkpt lat="48.55" lon="7.19831">
        <ele>835</ele>
        <time>2023-07-05T06:45:07Z</time>
      </trkpt>
      <trkpt lat="48.55" lon="7.19825">
        <ele>834</ele>
        <time>2023-07-05T06:45:10Z</time>
      </trkpt>
      <trkpt lat="48.54998" lon="7.19818">
        <ele>833</ele>
        <time>2023-07-05T06:45:14Z</time>
      </trkpt>
      <trkpt lat="48.5499" lon="7.19806">
        <ele>832</ele>
        <time>2023-07-05T06:45:22Z</time>
      </trkpt>
      <trkpt lat="48.54986" lon="7.19804">
        <ele>831</ele>
        <time>2023-07-05T06:45:29Z</time>
      </trkpt>
      <trkpt lat="48.54983" lon="7.19798">
        <ele>831</ele>
        <time>2023-07-05T06:45:39Z</time>
      </trkpt>
      <trkpt lat="48.54976" lon="7.19793">
        <ele>827</ele>
        <time>2023-07-05T06:45:53Z</time>
      </trkpt>
      <trkpt lat="48.54972" lon="7.19795">
        <ele>826</ele>
        <time>2023-07-05T06:45:56Z</time>
      </trkpt>
      <trkpt lat="48.54968" lon="7.19791">
        <ele>825</ele>
        <time>2023-07-05T06:46:00Z</time>
      </trkpt>
      <trkpt lat="48.54965" lon="7.19784">
        <ele>824</ele>
        <time>2023-07-05T06:46:05Z</time>
      </trkpt>
      <trkpt lat="48.54963" lon="7.19775">
        <ele>824</ele>
        <time>2023-07-05T06:46:09Z</time>
      </trkpt>
      <trkpt lat="48.54961" lon="7.19769">
        <ele>824</ele>
        <time>2023-07-05T06:46:14Z</time>
      </trkpt>
      <trkpt lat="48.54959" lon="7.19762">
        <ele>824</ele>
        <time>2023-07-05T06:46:18Z</time>
      </trkpt>
      <trkpt lat="48.54955" lon="7.1975">
        <ele>823</ele>
        <time>2023-07-05T06:46:26Z</time>
      </trkpt>
      <trkpt lat="48.5495" lon="7.19742">
        <ele>823</ele>
        <time>2023-07-05T06:46:32Z</time>
      </trkpt>
      <trkpt lat="48.54945" lon="7.19729">
        <ele>823</ele>
        <time>2023-07-05T06:46:39Z</time>
      </trkpt>
      <trkpt lat="48.54942" lon="7.19724">
        <ele>823</ele>
        <time>2023-07-05T06:46:43Z</time>
      </trkpt>
      <trkpt lat="48.5493" lon="7.19689">
        <ele>822</ele>
        <time>2023-07-05T06:47:03Z</time>
      </trkpt>
      <trkpt lat="48.54927" lon="7.19683">
        <ele>821</ele>
        <time>2023-07-05T06:47:07Z</time>
      </trkpt>
      <trkpt lat="48.54926" lon="7.19675">
        <ele>821</ele>
        <time>2023-07-05T06:47:11Z</time>
      </trkpt>
      <trkpt lat="48.54919" lon="7.19674">
        <ele>821</ele>
        <time>2023-07-05T06:47:23Z</time>
      </trkpt>
      <trkpt lat="48.54917" lon="7.19658">
        <ele>820</ele>
        <time>2023-07-05T06:47:47Z</time>
      </trkpt>
      <trkpt lat="48.54915" lon="7.19652">
        <ele>820</ele>
        <time>2023-07-05T06:47:51Z</time>
      </trkpt>
      <trkpt lat="48.54899" lon="7.19603">
        <ele>818</ele>
        <time>2023-07-05T06:48:21Z</time>
      </trkpt>
      <trkpt lat="48.54883" lon="7.19556">
        <ele>816</ele>
        <time>2023-07-05T06:48:49Z</time>
      </trkpt>
      <trkpt lat="48.5488" lon="7.1955">
        <ele>816</ele>
        <time>2023-07-05T06:49:00Z</time>
      </trkpt>
      <trkpt lat="48.54875" lon="7.19551">
        <ele>815</ele>
        <time>2023-07-05T06:49:10Z</time>
      </trkpt>
      <trkpt lat="48.54875" lon="7.19558">
        <ele>812</ele>
        <time>2023-07-05T06:49:25Z</time>
      </trkpt>
      <trkpt lat="48.5487" lon="7.19557">
        <ele>808</ele>
        <time>2023-07-05T06:50:05Z</time>
      </trkpt>
      <trkpt lat="48.5487" lon="7.19549">
        <ele>808</ele>
        <time>2023-07-05T06:50:17Z</time>
      </trkpt>
      <trkpt lat="48.54868" lon="7.1954">
        <ele>806</ele>
        <time>2023-07-05T06:50:37Z</time>
      </trkpt>
      <trkpt lat="48.54866" lon="7.19532">
        <ele>806</ele>
        <time>2023-07-05T06:50:42Z</time>
      </trkpt>
      <trkpt lat="48.54864" lon="7.19528">
        <ele>806</ele>
        <time>2023-07-05T06:50:47Z</time>
      </trkpt>
      <trkpt lat="48.54859" lon="7.19523">
        <ele>805</ele>
        <time>2023-07-05T06:50:52Z</time>
      </trkpt>
      <trkpt lat="48.54856" lon="7.19518">
        <ele>805</ele>
        <time>2023-07-05T06:50:56Z</time>
      </trkpt>
      <trkpt lat="48.54853" lon="7.19508">
        <ele>804</ele>
        <time>2023-07-05T06:51:04Z</time>
      </trkpt>
      <trkpt lat="48.54849" lon="7.19503">
        <ele>804</ele>
        <time>2023-07-05T06:51:09Z</time>
      </trkpt>
      <trkpt lat="48.54846" lon="7.19492">
        <ele>802</ele>
        <time>2023-07-05T06:51:20Z</time>
      </trkpt>
      <trkpt lat="48.54837" lon="7.19478">
        <ele>801</ele>
        <time>2023-07-05T06:51:34Z</time>
      </trkpt>
      <trkpt lat="48.54836" lon="7.1947">
        <ele>801</ele>
        <time>2023-07-05T06:51:38Z</time>
      </trkpt>
      <trkpt lat="48.54832" lon="7.19466">
        <ele>801</ele>
        <time>2023-07-05T06:51:42Z</time>
      </trkpt>
      <trkpt lat="48.54816" lon="7.19431">
        <ele>795</ele>
        <time>2023-07-05T06:52:12Z</time>
      </trkpt>
      <trkpt lat="48.5481" lon="7.19422">
        <ele>794</ele>
        <time>2023-07-05T06:52:20Z</time>
      </trkpt>
      <trkpt lat="48.54806" lon="7.1942">
        <ele>793</ele>
        <time>2023-07-05T06:52:25Z</time>
      </trkpt>
      <trkpt lat="48.54802" lon="7.19401">
        <ele>793</ele>
        <time>2023-07-05T06:52:38Z</time>
      </trkpt>
      <trkpt lat="48.54799" lon="7.19396">
        <ele>793</ele>
        <time>2023-07-05T06:52:42Z</time>
      </trkpt>
      <trkpt lat="48.54787" lon="7.19365">
        <ele>790</ele>
        <time>2023-07-05T06:53:05Z</time>
      </trkpt>
      <trkpt lat="48.54784" lon="7.19358">
        <ele>790</ele>
        <time>2023-07-05T06:53:12Z</time>
      </trkpt>
      <trkpt lat="48.54781" lon="7.19351">
        <ele>789</ele>
        <time>2023-07-05T06:53:17Z</time>
      </trkpt>
      <trkpt lat="48.54777" lon="7.19348">
        <ele>788</ele>
        <time>2023-07-05T06:53:30Z</time>
      </trkpt>
      <trkpt lat="48.54772" lon="7.19339">
        <ele>788</ele>
        <time>2023-07-05T06:54:05Z</time>
      </trkpt>
      <trkpt lat="48.54769" lon="7.19329">
        <ele>786</ele>
        <time>2023-07-05T06:54:13Z</time>
      </trkpt>
      <trkpt lat="48.54766" lon="7.19325">
        <ele>785</ele>
        <time>2023-07-05T06:54:59Z</time>
      </trkpt>
      <trkpt lat="48.5476" lon="7.19318">
        <ele>784</ele>
        <time>2023-07-05T06:55:51Z</time>
      </trkpt>
      <trkpt lat="48.54756" lon="7.19313">
        <ele>783</ele>
        <time>2023-07-05T06:55:56Z</time>
      </trkpt>
      <trkpt lat="48.54751" lon="7.19309">
        <ele>783</ele>
        <time>2023-07-05T06:56:04Z</time>
      </trkpt>
      <trkpt lat="48.54748" lon="7.19304">
        <ele>783</ele>
        <time>2023-07-05T06:56:09Z</time>
      </trkpt>
      <trkpt lat="48.54741" lon="7.193">
        <ele>781</ele>
        <time>2023-07-05T06:56:17Z</time>
      </trkpt>
      <trkpt lat="48.54737" lon="7.19292">
        <ele>781</ele>
        <time>2023-07-05T06:56:22Z</time>
      </trkpt>
      <trkpt lat="48.54733" lon="7.19291">
        <ele>781</ele>
        <time>2023-07-05T06:56:26Z</time>
      </trkpt>
      <trkpt lat="48.54727" lon="7.19274">
        <ele>780</ele>
        <time>2023-07-05T06:56:38Z</time>
      </trkpt>
      <trkpt lat="48.54723" lon="7.1927">
        <ele>780</ele>
        <time>2023-07-05T06:56:42Z</time>
      </trkpt>
      <trkpt lat="48.54711" lon="7.1925">
        <ele>774</ele>
        <time>2023-07-05T06:57:03Z</time>
      </trkpt>
      <trkpt lat="48.54707" lon="7.19242">
        <ele>774</ele>
        <time>2023-07-05T06:57:10Z</time>
      </trkpt>
      <trkpt lat="48.54704" lon="7.19238">
        <ele>774</ele>
        <time>2023-07-05T06:57:13Z</time>
      </trkpt>
      <trkpt lat="48.547" lon="7.19235">
        <ele>775</ele>
        <time>2023-07-05T06:57:18Z</time>
      </trkpt>
      <trkpt lat="48.54696" lon="7.19231">
        <ele>775</ele>
        <time>2023-07-05T06:57:22Z</time>
      </trkpt>
      <trkpt lat="48.54691" lon="7.19226">
        <ele>774</ele>
        <time>2023-07-05T06:57:29Z</time>
      </trkpt>
      <trkpt lat="48.54689" lon="7.19221">
        <ele>773</ele>
        <time>2023-07-05T06:57:34Z</time>
      </trkpt>
      <trkpt lat="48.54682" lon="7.1922">
        <ele>772</ele>
        <time>2023-07-05T06:57:59Z</time>
      </trkpt>
      <trkpt lat="48.54676" lon="7.19216">
        <ele>771</ele>
        <time>2023-07-05T06:58:25Z</time>
      </trkpt>
      <trkpt lat="48.54673" lon="7.19211">
        <ele>771</ele>
        <time>2023-07-05T06:58:29Z</time>
      </trkpt>
      <trkpt lat="48.54671" lon="7.19205">
        <ele>771</ele>
        <time>2023-07-05T06:58:33Z</time>
      </trkpt>
      <trkpt lat="48.54668" lon="7.19201">
        <ele>771</ele>
        <time>2023-07-05T06:58:37Z</time>
      </trkpt>
      <trkpt lat="48.54657" lon="7.19199">
        <ele>769</ele>
        <time>2023-07-05T06:58:44Z</time>
      </trkpt>
      <trkpt lat="48.54653" lon="7.19195">
        <ele>768</ele>
        <time>2023-07-05T06:58:48Z</time>
      </trkpt>
      <trkpt lat="48.54648" lon="7.19194">
        <ele>768</ele>
        <time>2023-07-05T06:58:53Z</time>
      </trkpt>
      <trkpt lat="48.54628" lon="7.19173">
        <ele>766</ele>
        <time>2023-07-05T06:59:11Z</time>
      </trkpt>
      <trkpt lat="48.54626" lon="7.19167">
        <ele>765</ele>
        <time>2023-07-05T06:59:15Z</time>
      </trkpt>
      <trkpt lat="48.54622" lon="7.19164">
        <ele>764</ele>
        <time>2023-07-05T06:59:19Z</time>
      </trkpt>
      <trkpt lat="48.54619" lon="7.19159">
        <ele>764</ele>
        <time>2023-07-05T06:59:24Z</time>
      </trkpt>
      <trkpt lat="48.54616" lon="7.19153">
        <ele>764</ele>
        <time>2023-07-05T06:59:27Z</time>
      </trkpt>
      <trkpt lat="48.54607" lon="7.19139">
        <ele>766</ele>
        <time>2023-07-05T06:59:39Z</time>
      </trkpt>
      <trkpt lat="48.54605" lon="7.19133">
        <ele>766</ele>
        <time>2023-07-05T06:59:44Z</time>
      </trkpt>
      <trkpt lat="48.54601" lon="7.19128">
        <ele>765</ele>
        <time>2023-07-05T06:59:48Z</time>
      </trkpt>
      <trkpt lat="48.54599" lon="7.19121">
        <ele>765</ele>
        <time>2023-07-05T06:59:51Z</time>
      </trkpt>
      <trkpt lat="48.54592" lon="7.19114">
        <ele>763</ele>
        <time>2023-07-05T06:59:58Z</time>
      </trkpt>
      <trkpt lat="48.54586" lon="7.19111">
        <ele>762</ele>
        <time>2023-07-05T07:00:06Z</time>
      </trkpt>
      <trkpt lat="48.5457" lon="7.19084">
        <ele>757</ele>
        <time>2023-07-05T07:00:30Z</time>
      </trkpt>
      <trkpt lat="48.54569" lon="7.19077">
        <ele>755</ele>
        <time>2023-07-05T07:00:34Z</time>
      </trkpt>
      <trkpt lat="48.54563" lon="7.1907">
        <ele>753</ele>
        <time>2023-07-05T07:00:41Z</time>
      </trkpt>
      <trkpt lat="48.54558" lon="7.19067">
        <ele>753</ele>
        <time>2023-07-05T07:00:44Z</time>
      </trkpt>
      <trkpt lat="48.54553" lon="7.19058">
        <ele>751</ele>
        <time>2023-07-05T07:00:51Z</time>
      </trkpt>
      <trkpt lat="48.54548" lon="7.19053">
        <ele>750</ele>
        <time>2023-07-05T07:00:57Z</time>
      </trkpt>
      <trkpt lat="48.54545" lon="7.19047">
        <ele>750</ele>
        <time>2023-07-05T07:01:01Z</time>
      </trkpt>
      <trkpt lat="48.54536" lon="7.19036">
        <ele>747</ele>
        <time>2023-07-05T07:01:12Z</time>
      </trkpt>
      <trkpt lat="48.54533" lon="7.19029">
        <ele>746</ele>
        <time>2023-07-05T07:01:16Z</time>
      </trkpt>
      <trkpt lat="48.54529" lon="7.19017">
        <ele>746</ele>
        <time>2023-07-05T07:01:24Z</time>
      </trkpt>
      <trkpt lat="48.54527" lon="7.19011">
        <ele>746</ele>
        <time>2023-07-05T07:01:28Z</time>
      </trkpt>
      <trkpt lat="48.54522" lon="7.19007">
        <ele>745</ele>
        <time>2023-07-05T07:01:33Z</time>
      </trkpt>
      <trkpt lat="48.54517" lon="7.19009">
        <ele>745</ele>
        <time>2023-07-05T07:01:37Z</time>
      </trkpt>
      <trkpt lat="48.54514" lon="7.19014">
        <ele>745</ele>
        <time>2023-07-05T07:01:41Z</time>
      </trkpt>
      <trkpt lat="48.54513" lon="7.19024">
        <ele>745</ele>
        <time>2023-07-05T07:01:50Z</time>
      </trkpt>
      <trkpt lat="48.54511" lon="7.19024">
        <ele>747</ele>
        <time>2023-07-05T07:27:33Z</time>
      </trkpt>
      <trkpt lat="48.54506" lon="7.19021">
        <ele>746</ele>
        <time>2023-07-05T07:27:38Z</time>
      </trkpt>
      <trkpt lat="48.54501" lon="7.19021">
        <ele>746</ele>
        <time>2023-07-05T07:27:42Z</time>
      </trkpt>
      <trkpt lat="48.54496" lon="7.19024">
        <ele>746</ele>
        <time>2023-07-05T07:27:46Z</time>
      </trkpt>
      <trkpt lat="48.54492" lon="7.19028">
        <ele>746</ele>
        <time>2023-07-05T07:27:50Z</time>
      </trkpt>
      <trkpt lat="48.54487" lon="7.19032">
        <ele>746</ele>
        <time>2023-07-05T07:27:54Z</time>
      </trkpt>
      <trkpt lat="48.54483" lon="7.19038">
        <ele>746</ele>
        <time>2023-07-05T07:27:58Z</time>
      </trkpt>
      <trkpt lat="48.54479" lon="7.19042">
        <ele>746</ele>
        <time>2023-07-05T07:28:01Z</time>
      </trkpt>
      <trkpt lat="48.54476" lon="7.19048">
        <ele>746</ele>
        <time>2023-07-05T07:28:05Z</time>
      </trkpt>
      <trkpt lat="48.54467" lon="7.19054">
        <ele>746</ele>
        <time>2023-07-05T07:28:13Z</time>
      </trkpt>
      <trkpt lat="48.54463" lon="7.19061">
        <ele>746</ele>
        <time>2023-07-05T07:28:17Z</time>
      </trkpt>
      <trkpt lat="48.5446" lon="7.19065">
        <ele>745</ele>
        <time>2023-07-05T07:28:21Z</time>
      </trkpt>
      <trkpt lat="48.54455" lon="7.19067">
        <ele>745</ele>
        <time>2023-07-05T07:28:24Z</time>
      </trkpt>
      <trkpt lat="48.54451" lon="7.19071">
        <ele>746</ele>
        <time>2023-07-05T07:28:29Z</time>
      </trkpt>
      <trkpt lat="48.5444" lon="7.19075">
        <ele>745</ele>
        <time>2023-07-05T07:28:37Z</time>
      </trkpt>
      <trkpt lat="48.54436" lon="7.19077">
        <ele>745</ele>
        <time>2023-07-05T07:28:41Z</time>
      </trkpt>
      <trkpt lat="48.54432" lon="7.19081">
        <ele>745</ele>
        <time>2023-07-05T07:28:45Z</time>
      </trkpt>
      <trkpt lat="48.54412" lon="7.19101">
        <ele>745</ele>
        <time>2023-07-05T07:29:03Z</time>
      </trkpt>
      <trkpt lat="48.54384" lon="7.19114">
        <ele>744</ele>
        <time>2023-07-05T07:29:24Z</time>
      </trkpt>
      <trkpt lat="48.54376" lon="7.1912">
        <ele>744</ele>
        <time>2023-07-05T07:29:32Z</time>
      </trkpt>
      <trkpt lat="48.54372" lon="7.19122">
        <ele>744</ele>
        <time>2023-07-05T07:29:36Z</time>
      </trkpt>
      <trkpt lat="48.54362" lon="7.19123">
        <ele>744</ele>
        <time>2023-07-05T07:29:43Z</time>
      </trkpt>
      <trkpt lat="48.54339" lon="7.19139">
        <ele>743</ele>
        <time>2023-07-05T07:30:03Z</time>
      </trkpt>
      <trkpt lat="48.543" lon="7.19152">
        <ele>743</ele>
        <time>2023-07-05T07:30:34Z</time>
      </trkpt>
      <trkpt lat="48.5426" lon="7.19165">
        <ele>743</ele>
        <time>2023-07-05T07:31:05Z</time>
      </trkpt>
      <trkpt lat="48.5425" lon="7.19167">
        <ele>742</ele>
        <time>2023-07-05T07:31:13Z</time>
      </trkpt>
      <trkpt lat="48.54245" lon="7.19163">
        <ele>742</ele>
        <time>2023-07-05T07:31:17Z</time>
      </trkpt>
      <trkpt lat="48.54227" lon="7.19166">
        <ele>742</ele>
        <time>2023-07-05T07:31:31Z</time>
      </trkpt>
      <trkpt lat="48.54213" lon="7.19164">
        <ele>743</ele>
        <time>2023-07-05T07:31:42Z</time>
      </trkpt>
      <trkpt lat="48.54199" lon="7.19168">
        <ele>743</ele>
        <time>2023-07-05T07:31:52Z</time>
      </trkpt>
      <trkpt lat="48.54195" lon="7.19166">
        <ele>743</ele>
        <time>2023-07-05T07:31:55Z</time>
      </trkpt>
      <trkpt lat="48.54174" lon="7.19166">
        <ele>743</ele>
        <time>2023-07-05T07:32:11Z</time>
      </trkpt>
      <trkpt lat="48.5417" lon="7.19168">
        <ele>743</ele>
        <time>2023-07-05T07:32:15Z</time>
      </trkpt>
      <trkpt lat="48.54161" lon="7.19168">
        <ele>743</ele>
        <time>2023-07-05T07:32:22Z</time>
      </trkpt>
      <trkpt lat="48.54151" lon="7.19171">
        <ele>743</ele>
        <time>2023-07-05T07:32:28Z</time>
      </trkpt>
      <trkpt lat="48.54147" lon="7.19169">
        <ele>742</ele>
        <time>2023-07-05T07:32:31Z</time>
      </trkpt>
      <trkpt lat="48.54138" lon="7.19173">
        <ele>742</ele>
        <time>2023-07-05T07:32:38Z</time>
      </trkpt>
      <trkpt lat="48.54133" lon="7.1917">
        <ele>742</ele>
        <time>2023-07-05T07:32:42Z</time>
      </trkpt>
      <trkpt lat="48.54113" lon="7.19176">
        <ele>742</ele>
        <time>2023-07-05T07:32:58Z</time>
      </trkpt>
      <trkpt lat="48.54109" lon="7.19175">
        <ele>742</ele>
        <time>2023-07-05T07:33:01Z</time>
      </trkpt>
      <trkpt lat="48.54104" lon="7.19173">
        <ele>742</ele>
        <time>2023-07-05T07:33:05Z</time>
      </trkpt>
      <trkpt lat="48.54099" lon="7.19174">
        <ele>742</ele>
        <time>2023-07-05T07:33:09Z</time>
      </trkpt>
      <trkpt lat="48.54084" lon="7.1917">
        <ele>743</ele>
        <time>2023-07-05T07:33:20Z</time>
      </trkpt>
      <trkpt lat="48.54079" lon="7.1917">
        <ele>743</ele>
        <time>2023-07-05T07:33:24Z</time>
      </trkpt>
      <trkpt lat="48.5407" lon="7.19165">
        <ele>743</ele>
        <time>2023-07-05T07:33:32Z</time>
      </trkpt>
      <trkpt lat="48.54064" lon="7.19163">
        <ele>742</ele>
        <time>2023-07-05T07:33:37Z</time>
      </trkpt>
      <trkpt lat="48.5406" lon="7.19159">
        <ele>742</ele>
        <time>2023-07-05T07:33:41Z</time>
      </trkpt>
      <trkpt lat="48.54055" lon="7.19159">
        <ele>742</ele>
        <time>2023-07-05T07:33:44Z</time>
      </trkpt>
      <trkpt lat="48.54049" lon="7.19155">
        <ele>742</ele>
        <time>2023-07-05T07:33:50Z</time>
      </trkpt>
      <trkpt lat="48.54039" lon="7.1915">
        <ele>742</ele>
        <time>2023-07-05T07:33:59Z</time>
      </trkpt>
      <trkpt lat="48.54023" lon="7.19137">
        <ele>743</ele>
        <time>2023-07-05T07:34:13Z</time>
      </trkpt>
      <trkpt lat="48.54018" lon="7.19135">
        <ele>743</ele>
        <time>2023-07-05T07:34:16Z</time>
      </trkpt>
      <trkpt lat="48.54015" lon="7.1913">
        <ele>743</ele>
        <time>2023-07-05T07:34:19Z</time>
      </trkpt>
      <trkpt lat="48.5401" lon="7.19127">
        <ele>743</ele>
        <time>2023-07-05T07:34:23Z</time>
      </trkpt>
      <trkpt lat="48.54008" lon="7.19122">
        <ele>743</ele>
        <time>2023-07-05T07:34:27Z</time>
      </trkpt>
      <trkpt lat="48.53998" lon="7.19117">
        <ele>743</ele>
        <time>2023-07-05T07:34:34Z</time>
      </trkpt>
      <trkpt lat="48.53994" lon="7.19113">
        <ele>743</ele>
        <time>2023-07-05T07:34:38Z</time>
      </trkpt>
      <trkpt lat="48.53983" lon="7.19096">
        <ele>742</ele>
        <time>2023-07-05T07:34:51Z</time>
      </trkpt>
      <trkpt lat="48.53978" lon="7.19094">
        <ele>742</ele>
        <time>2023-07-05T07:34:55Z</time>
      </trkpt>
      <trkpt lat="48.53974" lon="7.19089">
        <ele>742</ele>
        <time>2023-07-05T07:34:59Z</time>
      </trkpt>
      <trkpt lat="48.53971" lon="7.19084">
        <ele>742</ele>
        <time>2023-07-05T07:35:03Z</time>
      </trkpt>
      <trkpt lat="48.53962" lon="7.19076">
        <ele>742</ele>
        <time>2023-07-05T07:35:10Z</time>
      </trkpt>
      <trkpt lat="48.53957" lon="7.19069">
        <ele>742</ele>
        <time>2023-07-05T07:35:16Z</time>
      </trkpt>
      <trkpt lat="48.53951" lon="7.19064">
        <ele>742</ele>
        <time>2023-07-05T07:35:20Z</time>
      </trkpt>
      <trkpt lat="48.53934" lon="7.1904">
        <ele>741</ele>
        <time>2023-07-05T07:35:38Z</time>
      </trkpt>
      <trkpt lat="48.5393" lon="7.19038">
        <ele>741</ele>
        <time>2023-07-05T07:35:41Z</time>
      </trkpt>
      <trkpt lat="48.53904" lon="7.19007">
        <ele>741</ele>
        <time>2023-07-05T07:36:08Z</time>
      </trkpt>
      <trkpt lat="48.53895" lon="7.19002">
        <ele>741</ele>
        <time>2023-07-05T07:36:15Z</time>
      </trkpt>
      <trkpt lat="48.53892" lon="7.18996">
        <ele>741</ele>
        <time>2023-07-05T07:36:18Z</time>
      </trkpt>
      <trkpt lat="48.53877" lon="7.18979">
        <ele>741</ele>
        <time>2023-07-05T07:36:33Z</time>
      </trkpt>
      <trkpt lat="48.53871" lon="7.18979">
        <ele>741</ele>
        <time>2023-07-05T07:36:37Z</time>
      </trkpt>
      <trkpt lat="48.5385" lon="7.18951">
        <ele>740</ele>
        <time>2023-07-05T07:36:59Z</time>
      </trkpt>
      <trkpt lat="48.53844" lon="7.1895">
        <ele>740</ele>
        <time>2023-07-05T07:37:02Z</time>
      </trkpt>
      <trkpt lat="48.53841" lon="7.18946">
        <ele>740</ele>
        <time>2023-07-05T07:37:06Z</time>
      </trkpt>
      <trkpt lat="48.53836" lon="7.18945">
        <ele>740</ele>
        <time>2023-07-05T07:37:09Z</time>
      </trkpt>
      <trkpt lat="48.53825" lon="7.1894">
        <ele>740</ele>
        <time>2023-07-05T07:37:18Z</time>
      </trkpt>
      <trkpt lat="48.5382" lon="7.18939">
        <ele>740</ele>
        <time>2023-07-05T07:37:21Z</time>
      </trkpt>
      <trkpt lat="48.53816" lon="7.18935">
        <ele>740</ele>
        <time>2023-07-05T07:37:25Z</time>
      </trkpt>
      <trkpt lat="48.538" lon="7.18933">
        <ele>741</ele>
        <time>2023-07-05T07:37:36Z</time>
      </trkpt>
      <trkpt lat="48.53795" lon="7.18926">
        <ele>741</ele>
        <time>2023-07-05T07:37:41Z</time>
      </trkpt>
      <trkpt lat="48.53789" lon="7.18924">
        <ele>741</ele>
        <time>2023-07-05T07:37:46Z</time>
      </trkpt>
      <trkpt lat="48.53785" lon="7.18926">
        <ele>741</ele>
        <time>2023-07-05T07:37:50Z</time>
      </trkpt>
      <trkpt lat="48.53774" lon="7.18922">
        <ele>741</ele>
        <time>2023-07-05T07:37:58Z</time>
      </trkpt>
      <trkpt lat="48.53769" lon="7.18923">
        <ele>740</ele>
        <time>2023-07-05T07:38:03Z</time>
      </trkpt>
      <trkpt lat="48.53731" lon="7.18912">
        <ele>740</ele>
        <time>2023-07-05T07:38:33Z</time>
      </trkpt>
      <trkpt lat="48.53717" lon="7.18908">
        <ele>740</ele>
        <time>2023-07-05T07:38:44Z</time>
      </trkpt>
      <trkpt lat="48.53713" lon="7.18905">
        <ele>740</ele>
        <time>2023-07-05T07:38:48Z</time>
      </trkpt>
      <trkpt lat="48.53695" lon="7.18897">
        <ele>740</ele>
        <time>2023-07-05T07:39:03Z</time>
      </trkpt>
      <trkpt lat="48.5369" lon="7.18897">
        <ele>740</ele>
        <time>2023-07-05T07:39:07Z</time>
      </trkpt>
      <trkpt lat="48.53667" lon="7.18886">
        <ele>739</ele>
        <time>2023-07-05T07:39:25Z</time>
      </trkpt>
      <trkpt lat="48.53658" lon="7.18884">
        <ele>739</ele>
        <time>2023-07-05T07:39:31Z</time>
      </trkpt>
      <trkpt lat="48.53654" lon="7.18881">
        <ele>739</ele>
        <time>2023-07-05T07:39:35Z</time>
      </trkpt>
      <trkpt lat="48.5365" lon="7.1888">
        <ele>739</ele>
        <time>2023-07-05T07:39:39Z</time>
      </trkpt>
      <trkpt lat="48.53642" lon="7.18873">
        <ele>739</ele>
        <time>2023-07-05T07:39:46Z</time>
      </trkpt>
      <trkpt lat="48.53632" lon="7.18858">
        <ele>739</ele>
        <time>2023-07-05T07:39:57Z</time>
      </trkpt>
      <trkpt lat="48.53628" lon="7.18854">
        <ele>739</ele>
        <time>2023-07-05T07:40:01Z</time>
      </trkpt>
      <trkpt lat="48.53625" lon="7.18848">
        <ele>739</ele>
        <time>2023-07-05T07:40:05Z</time>
      </trkpt>
      <trkpt lat="48.53621" lon="7.18844">
        <ele>739</ele>
        <time>2023-07-05T07:40:09Z</time>
      </trkpt>
      <trkpt lat="48.53617" lon="7.18842">
        <ele>739</ele>
        <time>2023-07-05T07:40:12Z</time>
      </trkpt>
      <trkpt lat="48.53613" lon="7.18838">
        <ele>739</ele>
        <time>2023-07-05T07:40:16Z</time>
      </trkpt>
      <trkpt lat="48.53608" lon="7.18827">
        <ele>739</ele>
        <time>2023-07-05T07:40:24Z</time>
      </trkpt>
      <trkpt lat="48.53606" lon="7.1882">
        <ele>739</ele>
        <time>2023-07-05T07:40:28Z</time>
      </trkpt>
      <trkpt lat="48.53597" lon="7.18801">
        <ele>739</ele>
        <time>2023-07-05T07:40:40Z</time>
      </trkpt>
      <trkpt lat="48.53596" lon="7.18793">
        <ele>739</ele>
        <time>2023-07-05T07:40:44Z</time>
      </trkpt>
      <trkpt lat="48.53588" lon="7.18773">
        <ele>739</ele>
        <time>2023-07-05T07:40:56Z</time>
      </trkpt>
      <trkpt lat="48.53588" lon="7.18765">
        <ele>740</ele>
        <time>2023-07-05T07:41:00Z</time>
      </trkpt>
      <trkpt lat="48.53583" lon="7.18744">
        <ele>740</ele>
        <time>2023-07-05T07:41:12Z</time>
      </trkpt>
      <trkpt lat="48.53582" lon="7.18736">
        <ele>739</ele>
        <time>2023-07-05T07:41:16Z</time>
      </trkpt>
      <trkpt lat="48.53576" lon="7.1873">
        <ele>739</ele>
        <time>2023-07-05T07:41:20Z</time>
      </trkpt>
      <trkpt lat="48.53575" lon="7.18717">
        <ele>739</ele>
        <time>2023-07-05T07:41:27Z</time>
      </trkpt>
      <trkpt lat="48.53577" lon="7.1871">
        <ele>739</ele>
        <time>2023-07-05T07:41:30Z</time>
      </trkpt>
      <trkpt lat="48.5357" lon="7.18688">
        <ele>739</ele>
        <time>2023-07-05T07:41:43Z</time>
      </trkpt>
      <trkpt lat="48.5357" lon="7.1868">
        <ele>739</ele>
        <time>2023-07-05T07:41:47Z</time>
      </trkpt>
      <trkpt lat="48.53561" lon="7.18654">
        <ele>738</ele>
        <time>2023-07-05T07:42:01Z</time>
      </trkpt>
      <trkpt lat="48.5356" lon="7.1864">
        <ele>738</ele>
        <time>2023-07-05T07:42:09Z</time>
      </trkpt>
      <trkpt lat="48.53561" lon="7.18633">
        <ele>737</ele>
        <time>2023-07-05T07:42:13Z</time>
      </trkpt>
      <trkpt lat="48.53554" lon="7.18615">
        <ele>737</ele>
        <time>2023-07-05T07:42:23Z</time>
      </trkpt>
      <trkpt lat="48.53552" lon="7.18608">
        <ele>737</ele>
        <time>2023-07-05T07:42:27Z</time>
      </trkpt>
      <trkpt lat="48.53548" lon="7.18604">
        <ele>737</ele>
        <time>2023-07-05T07:42:30Z</time>
      </trkpt>
      <trkpt lat="48.53546" lon="7.18579">
        <ele>738</ele>
        <time>2023-07-05T07:42:41Z</time>
      </trkpt>
      <trkpt lat="48.53542" lon="7.18575">
        <ele>738</ele>
        <time>2023-07-05T07:42:45Z</time>
      </trkpt>
      <trkpt lat="48.53541" lon="7.18558">
        <ele>738</ele>
        <time>2023-07-05T07:42:53Z</time>
      </trkpt>
      <trkpt lat="48.53537" lon="7.18552">
        <ele>738</ele>
        <time>2023-07-05T07:42:57Z</time>
      </trkpt>
      <trkpt lat="48.53534" lon="7.18536">
        <ele>737</ele>
        <time>2023-07-05T07:43:05Z</time>
      </trkpt>
      <trkpt lat="48.5353" lon="7.1853">
        <ele>737</ele>
        <time>2023-07-05T07:43:09Z</time>
      </trkpt>
      <trkpt lat="48.53529" lon="7.18522">
        <ele>737</ele>
        <time>2023-07-05T07:43:13Z</time>
      </trkpt>
      <trkpt lat="48.53525" lon="7.18516">
        <ele>737</ele>
        <time>2023-07-05T07:43:17Z</time>
      </trkpt>
      <trkpt lat="48.53524" lon="7.18508">
        <ele>737</ele>
        <time>2023-07-05T07:43:21Z</time>
      </trkpt>
      <trkpt lat="48.53526" lon="7.185">
        <ele>737</ele>
        <time>2023-07-05T07:43:24Z</time>
      </trkpt>
      <trkpt lat="48.53518" lon="7.18479">
        <ele>737</ele>
        <time>2023-07-05T07:43:36Z</time>
      </trkpt>
      <trkpt lat="48.53511" lon="7.18463">
        <ele>737</ele>
        <time>2023-07-05T07:43:46Z</time>
      </trkpt>
      <trkpt lat="48.5351" lon="7.18456">
        <ele>737</ele>
        <time>2023-07-05T07:43:49Z</time>
      </trkpt>
      <trkpt lat="48.53506" lon="7.18451">
        <ele>737</ele>
        <time>2023-07-05T07:43:52Z</time>
      </trkpt>
      <trkpt lat="48.53502" lon="7.18448">
        <ele>737</ele>
        <time>2023-07-05T07:43:55Z</time>
      </trkpt>
      <trkpt lat="48.53499" lon="7.18442">
        <ele>737</ele>
        <time>2023-07-05T07:43:59Z</time>
      </trkpt>
      <trkpt lat="48.53498" lon="7.18435">
        <ele>737</ele>
        <time>2023-07-05T07:44:02Z</time>
      </trkpt>
      <trkpt lat="48.5349" lon="7.18426">
        <ele>737</ele>
        <time>2023-07-05T07:44:11Z</time>
      </trkpt>
      <trkpt lat="48.53491" lon="7.18418">
        <ele>737</ele>
        <time>2023-07-05T07:44:14Z</time>
      </trkpt>
      <trkpt lat="48.53488" lon="7.18413">
        <ele>737</ele>
        <time>2023-07-05T07:44:18Z</time>
      </trkpt>
      <trkpt lat="48.53487" lon="7.18404">
        <ele>737</ele>
        <time>2023-07-05T07:44:22Z</time>
      </trkpt>
      <trkpt lat="48.53481" lon="7.18399">
        <ele>736</ele>
        <time>2023-07-05T07:44:26Z</time>
      </trkpt>
      <trkpt lat="48.53473" lon="7.18381">
        <ele>736</ele>
        <time>2023-07-05T07:44:37Z</time>
      </trkpt>
      <trkpt lat="48.53468" lon="7.1838">
        <ele>736</ele>
        <time>2023-07-05T07:44:40Z</time>
      </trkpt>
      <trkpt lat="48.53461" lon="7.1837">
        <ele>737</ele>
        <time>2023-07-05T07:44:47Z</time>
      </trkpt>
      <trkpt lat="48.53451" lon="7.18364">
        <ele>737</ele>
        <time>2023-07-05T07:44:54Z</time>
      </trkpt>
      <trkpt lat="48.53448" lon="7.18359">
        <ele>737</ele>
        <time>2023-07-05T07:44:58Z</time>
      </trkpt>
      <trkpt lat="48.53445" lon="7.18365">
        <ele>737</ele>
        <time>2023-07-05T07:45:07Z</time>
      </trkpt>
      <trkpt lat="48.53436" lon="7.18347">
        <ele>737</ele>
        <time>2023-07-05T07:45:17Z</time>
      </trkpt>
      <trkpt lat="48.53432" lon="7.18344">
        <ele>737</ele>
        <time>2023-07-05T07:45:20Z</time>
      </trkpt>
      <trkpt lat="48.53428" lon="7.18339">
        <ele>737</ele>
        <time>2023-07-05T07:45:24Z</time>
      </trkpt>
      <trkpt lat="48.53415" lon="7.18313">
        <ele>736</ele>
        <time>2023-07-05T07:45:42Z</time>
      </trkpt>
      <trkpt lat="48.53411" lon="7.18309">
        <ele>736</ele>
        <time>2023-07-05T07:45:46Z</time>
      </trkpt>
      <trkpt lat="48.53411" lon="7.18302">
        <ele>737</ele>
        <time>2023-07-05T07:45:49Z</time>
      </trkpt>
      <trkpt lat="48.53408" lon="7.18296">
        <ele>737</ele>
        <time>2023-07-05T07:45:52Z</time>
      </trkpt>
      <trkpt lat="48.53396" lon="7.18286">
        <ele>737</ele>
        <time>2023-07-05T07:46:03Z</time>
      </trkpt>
      <trkpt lat="48.53374" lon="7.18256">
        <ele>737</ele>
        <time>2023-07-05T07:46:25Z</time>
      </trkpt>
      <trkpt lat="48.5337" lon="7.18254">
        <ele>737</ele>
        <time>2023-07-05T07:46:28Z</time>
      </trkpt>
      <trkpt lat="48.53367" lon="7.18248">
        <ele>737</ele>
        <time>2023-07-05T07:46:32Z</time>
      </trkpt>
      <trkpt lat="48.53363" lon="7.18245">
        <ele>737</ele>
        <time>2023-07-05T07:46:35Z</time>
      </trkpt>
      <trkpt lat="48.53362" lon="7.18237">
        <ele>736</ele>
        <time>2023-07-05T07:46:39Z</time>
      </trkpt>
      <trkpt lat="48.53358" lon="7.18232">
        <ele>736</ele>
        <time>2023-07-05T07:46:43Z</time>
      </trkpt>
      <trkpt lat="48.53357" lon="7.18225">
        <ele>736</ele>
        <time>2023-07-05T07:46:48Z</time>
      </trkpt>
      <trkpt lat="48.53354" lon="7.1822">
        <ele>736</ele>
        <time>2023-07-05T07:46:52Z</time>
      </trkpt>
      <trkpt lat="48.53354" lon="7.18211">
        <ele>736</ele>
        <time>2023-07-05T07:46:56Z</time>
      </trkpt>
      <trkpt lat="48.53352" lon="7.18205">
        <ele>737</ele>
        <time>2023-07-05T07:47:00Z</time>
      </trkpt>
      <trkpt lat="48.5335" lon="7.18199">
        <ele>738</ele>
        <time>2023-07-05T07:47:03Z</time>
      </trkpt>
      <trkpt lat="48.53349" lon="7.18192">
        <ele>738</ele>
        <time>2023-07-05T07:47:06Z</time>
      </trkpt>
      <trkpt lat="48.53347" lon="7.18187">
        <ele>738</ele>
        <time>2023-07-05T07:47:09Z</time>
      </trkpt>
      <trkpt lat="48.53347" lon="7.18178">
        <ele>737</ele>
        <time>2023-07-05T07:47:13Z</time>
      </trkpt>
      <trkpt lat="48.53342" lon="7.18174">
        <ele>737</ele>
        <time>2023-07-05T07:47:16Z</time>
      </trkpt>
      <trkpt lat="48.5334" lon="7.18169">
        <ele>737</ele>
        <time>2023-07-05T07:47:19Z</time>
      </trkpt>
      <trkpt lat="48.53328" lon="7.18159">
        <ele>737</ele>
        <time>2023-07-05T07:47:29Z</time>
      </trkpt>
      <trkpt lat="48.53324" lon="7.18153">
        <ele>737</ele>
        <time>2023-07-05T07:47:33Z</time>
      </trkpt>
      <trkpt lat="48.53321" lon="7.18148">
        <ele>737</ele>
        <time>2023-07-05T07:47:37Z</time>
      </trkpt>
      <trkpt lat="48.5332" lon="7.18141">
        <ele>737</ele>
        <time>2023-07-05T07:47:41Z</time>
      </trkpt>
      <trkpt lat="48.53321" lon="7.18119">
        <ele>736</ele>
        <time>2023-07-05T07:47:52Z</time>
      </trkpt>
      <trkpt lat="48.53318" lon="7.18097">
        <ele>736</ele>
        <time>2023-07-05T07:48:04Z</time>
      </trkpt>
      <trkpt lat="48.53311" lon="7.18076">
        <ele>736</ele>
        <time>2023-07-05T07:48:16Z</time>
      </trkpt>
      <trkpt lat="48.53308" lon="7.18062">
        <ele>737</ele>
        <time>2023-07-05T07:48:23Z</time>
      </trkpt>
      <trkpt lat="48.53304" lon="7.18049">
        <ele>737</ele>
        <time>2023-07-05T07:48:31Z</time>
      </trkpt>
      <trkpt lat="48.53302" lon="7.18033">
        <ele>736</ele>
        <time>2023-07-05T07:48:39Z</time>
      </trkpt>
      <trkpt lat="48.53302" lon="7.18024">
        <ele>736</ele>
        <time>2023-07-05T07:48:43Z</time>
      </trkpt>
      <trkpt lat="48.533" lon="7.18018">
        <ele>736</ele>
        <time>2023-07-05T07:48:47Z</time>
      </trkpt>
      <trkpt lat="48.53299" lon="7.1801">
        <ele>736</ele>
        <time>2023-07-05T07:48:51Z</time>
      </trkpt>
      <trkpt lat="48.53283" lon="7.17956">
        <ele>736</ele>
        <time>2023-07-05T07:49:21Z</time>
      </trkpt>
      <trkpt lat="48.53282" lon="7.17948">
        <ele>736</ele>
        <time>2023-07-05T07:49:25Z</time>
      </trkpt>
      <trkpt lat="48.53275" lon="7.17921">
        <ele>736</ele>
        <time>2023-07-05T07:49:41Z</time>
      </trkpt>
      <trkpt lat="48.53276" lon="7.17912">
        <ele>736</ele>
        <time>2023-07-05T07:49:45Z</time>
      </trkpt>
      <trkpt lat="48.5327" lon="7.17898">
        <ele>736</ele>
        <time>2023-07-05T07:49:53Z</time>
      </trkpt>
      <trkpt lat="48.53265" lon="7.17895">
        <ele>736</ele>
        <time>2023-07-05T07:49:57Z</time>
      </trkpt>
      <trkpt lat="48.53259" lon="7.17883">
        <ele>736</ele>
        <time>2023-07-05T07:50:05Z</time>
      </trkpt>
      <trkpt lat="48.53253" lon="7.17856">
        <ele>736</ele>
        <time>2023-07-05T07:50:19Z</time>
      </trkpt>
      <trkpt lat="48.53249" lon="7.17854">
        <ele>736</ele>
        <time>2023-07-05T07:50:22Z</time>
      </trkpt>
      <trkpt lat="48.53242" lon="7.17834">
        <ele>735</ele>
        <time>2023-07-05T07:50:34Z</time>
      </trkpt>
      <trkpt lat="48.5324" lon="7.17825">
        <ele>735</ele>
        <time>2023-07-05T07:50:38Z</time>
      </trkpt>
      <trkpt lat="48.53222" lon="7.17776">
        <ele>736</ele>
        <time>2023-07-05T07:51:08Z</time>
      </trkpt>
      <trkpt lat="48.53219" lon="7.17771">
        <ele>736</ele>
        <time>2023-07-05T07:51:12Z</time>
      </trkpt>
      <trkpt lat="48.53214" lon="7.17751">
        <ele>735</ele>
        <time>2023-07-05T07:51:23Z</time>
      </trkpt>
      <trkpt lat="48.53205" lon="7.17734">
        <ele>735</ele>
        <time>2023-07-05T07:51:34Z</time>
      </trkpt>
      <trkpt lat="48.53201" lon="7.17721">
        <ele>736</ele>
        <time>2023-07-05T07:51:42Z</time>
      </trkpt>
      <trkpt lat="48.53202" lon="7.17714">
        <ele>736</ele>
        <time>2023-07-05T07:51:46Z</time>
      </trkpt>
      <trkpt lat="48.53194" lon="7.17693">
        <ele>736</ele>
        <time>2023-07-05T07:51:58Z</time>
      </trkpt>
      <trkpt lat="48.53192" lon="7.1768">
        <ele>736</ele>
        <time>2023-07-05T07:52:05Z</time>
      </trkpt>
      <trkpt lat="48.53191" lon="7.17674">
        <ele>736</ele>
        <time>2023-07-05T07:52:08Z</time>
      </trkpt>
      <trkpt lat="48.53188" lon="7.17668">
        <ele>736</ele>
        <time>2023-07-05T07:52:11Z</time>
      </trkpt>
      <trkpt lat="48.53171" lon="7.17624">
        <ele>737</ele>
        <time>2023-07-05T07:52:37Z</time>
      </trkpt>
      <trkpt lat="48.5317" lon="7.17617">
        <ele>736</ele>
        <time>2023-07-05T07:52:41Z</time>
      </trkpt>
      <trkpt lat="48.53165" lon="7.17603">
        <ele>736</ele>
        <time>2023-07-05T07:52:49Z</time>
      </trkpt>
      <trkpt lat="48.53163" lon="7.17594">
        <ele>736</ele>
        <time>2023-07-05T07:52:53Z</time>
      </trkpt>
      <trkpt lat="48.53159" lon="7.17582">
        <ele>736</ele>
        <time>2023-07-05T07:53:01Z</time>
      </trkpt>
      <trkpt lat="48.53155" lon="7.17577">
        <ele>736</ele>
        <time>2023-07-05T07:53:05Z</time>
      </trkpt>
      <trkpt lat="48.53154" lon="7.17569">
        <ele>737</ele>
        <time>2023-07-05T07:53:09Z</time>
      </trkpt>
      <trkpt lat="48.53145" lon="7.17549">
        <ele>736</ele>
        <time>2023-07-05T07:53:21Z</time>
      </trkpt>
      <trkpt lat="48.53138" lon="7.17524">
        <ele>736</ele>
        <time>2023-07-05T07:53:35Z</time>
      </trkpt>
      <trkpt lat="48.53137" lon="7.17516">
        <ele>736</ele>
        <time>2023-07-05T07:53:39Z</time>
      </trkpt>
      <trkpt lat="48.53134" lon="7.17511">
        <ele>736</ele>
        <time>2023-07-05T07:53:43Z</time>
      </trkpt>
      <trkpt lat="48.53124" lon="7.17462">
        <ele>737</ele>
        <time>2023-07-05T07:54:10Z</time>
      </trkpt>
      <trkpt lat="48.53122" lon="7.17456">
        <ele>737</ele>
        <time>2023-07-05T07:54:13Z</time>
      </trkpt>
      <trkpt lat="48.53119" lon="7.17439">
        <ele>737</ele>
        <time>2023-07-05T07:54:24Z</time>
      </trkpt>
      <trkpt lat="48.53119" lon="7.17432">
        <ele>737</ele>
        <time>2023-07-05T07:54:28Z</time>
      </trkpt>
      <trkpt lat="48.53117" lon="7.17425">
        <ele>738</ele>
        <time>2023-07-05T07:54:32Z</time>
      </trkpt>
      <trkpt lat="48.53115" lon="7.17419">
        <ele>738</ele>
        <time>2023-07-05T07:54:36Z</time>
      </trkpt>
      <trkpt lat="48.53111" lon="7.17399">
        <ele>739</ele>
        <time>2023-07-05T07:54:48Z</time>
      </trkpt>
      <trkpt lat="48.53111" lon="7.17385">
        <ele>740</ele>
        <time>2023-07-05T07:54:57Z</time>
      </trkpt>
      <trkpt lat="48.53107" lon="7.17363">
        <ele>742</ele>
        <time>2023-07-05T07:55:11Z</time>
      </trkpt>
      <trkpt lat="48.53105" lon="7.17356">
        <ele>742</ele>
        <time>2023-07-05T07:55:15Z</time>
      </trkpt>
      <trkpt lat="48.53102" lon="7.17337">
        <ele>743</ele>
        <time>2023-07-05T07:55:27Z</time>
      </trkpt>
      <trkpt lat="48.53097" lon="7.17324">
        <ele>745</ele>
        <time>2023-07-05T07:55:36Z</time>
      </trkpt>
      <trkpt lat="48.53098" lon="7.17317">
        <ele>745</ele>
        <time>2023-07-05T07:55:40Z</time>
      </trkpt>
      <trkpt lat="48.53096" lon="7.1731">
        <ele>746</ele>
        <time>2023-07-05T07:55:45Z</time>
      </trkpt>
      <trkpt lat="48.53096" lon="7.17304">
        <ele>746</ele>
        <time>2023-07-05T07:55:49Z</time>
      </trkpt>
      <trkpt lat="48.53095" lon="7.17293">
        <ele>747</ele>
        <time>2023-07-05T07:55:55Z</time>
      </trkpt>
      <trkpt lat="48.53091" lon="7.17283">
        <ele>747</ele>
        <time>2023-07-05T07:56:03Z</time>
      </trkpt>
      <trkpt lat="48.5309" lon="7.17277">
        <ele>747</ele>
        <time>2023-07-05T07:56:08Z</time>
      </trkpt>
      <trkpt lat="48.53085" lon="7.17271">
        <ele>747</ele>
        <time>2023-07-05T07:56:12Z</time>
      </trkpt>
      <trkpt lat="48.53084" lon="7.17264">
        <ele>748</ele>
        <time>2023-07-05T07:56:17Z</time>
      </trkpt>
      <trkpt lat="48.53078" lon="7.17253">
        <ele>749</ele>
        <time>2023-07-05T07:56:24Z</time>
      </trkpt>
      <trkpt lat="48.53067" lon="7.17218">
        <ele>751</ele>
        <time>2023-07-05T07:56:47Z</time>
      </trkpt>
      <trkpt lat="48.53062" lon="7.17211">
        <ele>752</ele>
        <time>2023-07-05T07:56:53Z</time>
      </trkpt>
      <trkpt lat="48.53062" lon="7.17204">
        <ele>752</ele>
        <time>2023-07-05T07:57:00Z</time>
      </trkpt>
      <trkpt lat="48.53057" lon="7.1719">
        <ele>753</ele>
        <time>2023-07-05T07:57:10Z</time>
      </trkpt>
      <trkpt lat="48.53054" lon="7.17175">
        <ele>754</ele>
        <time>2023-07-05T07:57:21Z</time>
      </trkpt>
      <trkpt lat="48.53051" lon="7.17169">
        <ele>755</ele>
        <time>2023-07-05T07:57:26Z</time>
      </trkpt>
      <trkpt lat="48.53051" lon="7.17161">
        <ele>755</ele>
        <time>2023-07-05T07:57:32Z</time>
      </trkpt>
      <trkpt lat="48.53042" lon="7.17138">
        <ele>757</ele>
        <time>2023-07-05T07:57:48Z</time>
      </trkpt>
      <trkpt lat="48.53038" lon="7.17132">
        <ele>758</ele>
        <time>2023-07-05T07:57:54Z</time>
      </trkpt>
      <trkpt lat="48.53037" lon="7.17126">
        <ele>758</ele>
        <time>2023-07-05T07:57:58Z</time>
      </trkpt>
      <trkpt lat="48.53035" lon="7.17119">
        <ele>759</ele>
        <time>2023-07-05T07:58:03Z</time>
      </trkpt>
      <trkpt lat="48.53032" lon="7.17114">
        <ele>759</ele>
        <time>2023-07-05T07:58:07Z</time>
      </trkpt>
      <trkpt lat="48.5303" lon="7.17108">
        <ele>760</ele>
        <time>2023-07-05T07:58:11Z</time>
      </trkpt>
      <trkpt lat="48.53027" lon="7.17103">
        <ele>760</ele>
        <time>2023-07-05T07:58:16Z</time>
      </trkpt>
      <trkpt lat="48.53024" lon="7.17094">
        <ele>761</ele>
        <time>2023-07-05T07:58:23Z</time>
      </trkpt>
      <trkpt lat="48.5302" lon="7.17088">
        <ele>761</ele>
        <time>2023-07-05T07:58:27Z</time>
      </trkpt>
      <trkpt lat="48.53017" lon="7.1708">
        <ele>762</ele>
        <time>2023-07-05T07:58:34Z</time>
      </trkpt>
      <trkpt lat="48.53012" lon="7.17074">
        <ele>763</ele>
        <time>2023-07-05T07:58:40Z</time>
      </trkpt>
      <trkpt lat="48.53008" lon="7.17059">
        <ele>765</ele>
        <time>2023-07-05T07:58:52Z</time>
      </trkpt>
      <trkpt lat="48.52996" lon="7.17041">
        <ele>766</ele>
        <time>2023-07-05T07:59:07Z</time>
      </trkpt>
      <trkpt lat="48.52994" lon="7.17035">
        <ele>767</ele>
        <time>2023-07-05T07:59:11Z</time>
      </trkpt>
      <trkpt lat="48.5299" lon="7.17031">
        <ele>767</ele>
        <time>2023-07-05T07:59:16Z</time>
      </trkpt>
      <trkpt lat="48.52984" lon="7.17026">
        <ele>768</ele>
        <time>2023-07-05T07:59:22Z</time>
      </trkpt>
      <trkpt lat="48.52974" lon="7.17014">
        <ele>769</ele>
        <time>2023-07-05T07:59:35Z</time>
      </trkpt>
      <trkpt lat="48.52947" lon="7.16993">
        <ele>771</ele>
        <time>2023-07-05T08:00:01Z</time>
      </trkpt>
      <trkpt lat="48.52941" lon="7.16983">
        <ele>772</ele>
        <time>2023-07-05T08:00:09Z</time>
      </trkpt>
      <trkpt lat="48.52936" lon="7.16983">
        <ele>772</ele>
        <time>2023-07-05T08:00:13Z</time>
      </trkpt>
      <trkpt lat="48.5291" lon="7.16963">
        <ele>775</ele>
        <time>2023-07-05T08:00:41Z</time>
      </trkpt>
      <trkpt lat="48.52893" lon="7.16951">
        <ele>777</ele>
        <time>2023-07-05T08:00:59Z</time>
      </trkpt>
      <trkpt lat="48.52885" lon="7.16942">
        <ele>778</ele>
        <time>2023-07-05T08:01:09Z</time>
      </trkpt>
      <trkpt lat="48.5288" lon="7.16939">
        <ele>778</ele>
        <time>2023-07-05T08:01:13Z</time>
      </trkpt>
      <trkpt lat="48.52871" lon="7.16931">
        <ele>779</ele>
        <time>2023-07-05T08:01:24Z</time>
      </trkpt>
      <trkpt lat="48.52848" lon="7.16919">
        <ele>782</ele>
        <time>2023-07-05T08:01:47Z</time>
      </trkpt>
      <trkpt lat="48.52843" lon="7.16913">
        <ele>783</ele>
        <time>2023-07-05T08:01:55Z</time>
      </trkpt>
      <trkpt lat="48.52811" lon="7.16886">
        <ele>786</ele>
        <time>2023-07-05T08:02:31Z</time>
      </trkpt>
      <trkpt lat="48.52784" lon="7.16867">
        <ele>789</ele>
        <time>2023-07-05T08:02:58Z</time>
      </trkpt>
      <trkpt lat="48.5278" lon="7.16866">
        <ele>790</ele>
        <time>2023-07-05T08:03:02Z</time>
      </trkpt>
      <trkpt lat="48.52761" lon="7.16852">
        <ele>792</ele>
        <time>2023-07-05T08:03:24Z</time>
      </trkpt>
      <trkpt lat="48.52769" lon="7.16837">
        <ele>793</ele>
        <time>2023-07-05T08:03:39Z</time>
      </trkpt>
      <trkpt lat="48.5277" lon="7.16828">
        <ele>794</ele>
        <time>2023-07-05T08:03:45Z</time>
      </trkpt>
      <trkpt lat="48.5277" lon="7.1682">
        <ele>795</ele>
        <time>2023-07-05T08:03:51Z</time>
      </trkpt>
      <trkpt lat="48.52769" lon="7.16811">
        <ele>795</ele>
        <time>2023-07-05T08:04:08Z</time>
      </trkpt>
      <trkpt lat="48.52766" lon="7.16806">
        <ele>795</ele>
        <time>2023-07-05T08:05:04Z</time>
      </trkpt>
      <trkpt lat="48.52764" lon="7.16799">
        <ele>795</ele>
        <time>2023-07-05T08:05:13Z</time>
      </trkpt>
      <trkpt lat="48.52762" lon="7.16793">
        <ele>795</ele>
        <time>2023-07-05T08:05:17Z</time>
      </trkpt>
      <trkpt lat="48.52754" lon="7.16778">
        <ele>796</ele>
        <time>2023-07-05T08:05:45Z</time>
      </trkpt>
      <trkpt lat="48.5275" lon="7.16774">
        <ele>796</ele>
        <time>2023-07-05T08:05:50Z</time>
      </trkpt>
      <trkpt lat="48.52743" lon="7.16766">
        <ele>797</ele>
        <time>2023-07-05T08:08:56Z</time>
      </trkpt>
      <trkpt lat="48.5274" lon="7.1676">
        <ele>797</ele>
        <time>2023-07-05T08:09:01Z</time>
      </trkpt>
      <trkpt lat="48.52724" lon="7.16744">
        <ele>798</ele>
        <time>2023-07-05T08:09:18Z</time>
      </trkpt>
      <trkpt lat="48.5272" lon="7.16741">
        <ele>799</ele>
        <time>2023-07-05T08:09:22Z</time>
      </trkpt>
      <trkpt lat="48.52716" lon="7.16738">
        <ele>799</ele>
        <time>2023-07-05T08:09:27Z</time>
      </trkpt>
      <trkpt lat="48.52692" lon="7.16721">
        <ele>801</ele>
        <time>2023-07-05T08:09:50Z</time>
      </trkpt>
      <trkpt lat="48.52688" lon="7.16716">
        <ele>801</ele>
        <time>2023-07-05T08:09:54Z</time>
      </trkpt>
      <trkpt lat="48.5268" lon="7.16711">
        <ele>801</ele>
        <time>2023-07-05T08:10:02Z</time>
      </trkpt>
      <trkpt lat="48.52646" lon="7.16693">
        <ele>803</ele>
        <time>2023-07-05T08:10:34Z</time>
      </trkpt>
      <trkpt lat="48.52611" lon="7.16681">
        <ele>806</ele>
        <time>2023-07-05T08:11:07Z</time>
      </trkpt>
      <trkpt lat="48.52597" lon="7.1668">
        <ele>807</ele>
        <time>2023-07-05T08:11:19Z</time>
      </trkpt>
      <trkpt lat="48.52592" lon="7.16679">
        <ele>807</ele>
        <time>2023-07-05T08:11:23Z</time>
      </trkpt>
      <trkpt lat="48.52555" lon="7.16685">
        <ele>810</ele>
        <time>2023-07-05T08:11:56Z</time>
      </trkpt>
      <trkpt lat="48.52518" lon="7.16695">
        <ele>812</ele>
        <time>2023-07-05T08:12:28Z</time>
      </trkpt>
      <trkpt lat="48.52509" lon="7.16697">
        <ele>812</ele>
        <time>2023-07-05T08:12:36Z</time>
      </trkpt>
      <trkpt lat="48.52504" lon="7.16698">
        <ele>813</ele>
        <time>2023-07-05T08:12:41Z</time>
      </trkpt>
      <trkpt lat="48.525" lon="7.16698">
        <ele>813</ele>
        <time>2023-07-05T08:12:45Z</time>
      </trkpt>
      <trkpt lat="48.52495" lon="7.16698">
        <ele>813</ele>
        <time>2023-07-05T08:12:49Z</time>
      </trkpt>
      <trkpt lat="48.52472" lon="7.16704">
        <ele>815</ele>
        <time>2023-07-05T08:13:11Z</time>
      </trkpt>
      <trkpt lat="48.52468" lon="7.16706">
        <ele>815</ele>
        <time>2023-07-05T08:13:15Z</time>
      </trkpt>
      <trkpt lat="48.52463" lon="7.16707">
        <ele>815</ele>
        <time>2023-07-05T08:13:20Z</time>
      </trkpt>
      <trkpt lat="48.52453" lon="7.16709">
        <ele>816</ele>
        <time>2023-07-05T08:13:28Z</time>
      </trkpt>
      <trkpt lat="48.52444" lon="7.16712">
        <ele>816</ele>
        <time>2023-07-05T08:13:36Z</time>
      </trkpt>
      <trkpt lat="48.52412" lon="7.16728">
        <ele>818</ele>
        <time>2023-07-05T08:14:06Z</time>
      </trkpt>
      <trkpt lat="48.52407" lon="7.16731">
        <ele>818</ele>
        <time>2023-07-05T08:14:10Z</time>
      </trkpt>
      <trkpt lat="48.52403" lon="7.16733">
        <ele>819</ele>
        <time>2023-07-05T08:14:14Z</time>
      </trkpt>
      <trkpt lat="48.524" lon="7.16739">
        <ele>819</ele>
        <time>2023-07-05T08:14:24Z</time>
      </trkpt>
      <trkpt lat="48.5239" lon="7.16741">
        <ele>820</ele>
        <time>2023-07-05T08:14:42Z</time>
      </trkpt>
      <trkpt lat="48.5238" lon="7.16744">
        <ele>820</ele>
        <time>2023-07-05T08:14:50Z</time>
      </trkpt>
      <trkpt lat="48.52372" lon="7.16747">
        <ele>821</ele>
        <time>2023-07-05T08:14:58Z</time>
      </trkpt>
      <trkpt lat="48.52367" lon="7.16751">
        <ele>821</ele>
        <time>2023-07-05T08:15:03Z</time>
      </trkpt>
      <trkpt lat="48.52352" lon="7.16758">
        <ele>822</ele>
        <time>2023-07-05T08:15:16Z</time>
      </trkpt>
      <trkpt lat="48.5232" lon="7.16788">
        <ele>825</ele>
        <time>2023-07-05T08:15:49Z</time>
      </trkpt>
      <trkpt lat="48.52316" lon="7.16791">
        <ele>824</ele>
        <time>2023-07-05T08:15:53Z</time>
      </trkpt>
      <trkpt lat="48.52313" lon="7.16797">
        <ele>824</ele>
        <time>2023-07-05T08:15:57Z</time>
      </trkpt>
      <trkpt lat="48.52305" lon="7.16804">
        <ele>825</ele>
        <time>2023-07-05T08:16:05Z</time>
      </trkpt>
      <trkpt lat="48.52302" lon="7.16809">
        <ele>826</ele>
        <time>2023-07-05T08:16:09Z</time>
      </trkpt>
      <trkpt lat="48.52299" lon="7.16813">
        <ele>826</ele>
        <time>2023-07-05T08:16:13Z</time>
      </trkpt>
      <trkpt lat="48.52295" lon="7.16817">
        <ele>826</ele>
        <time>2023-07-05T08:16:17Z</time>
      </trkpt>
      <trkpt lat="48.52289" lon="7.16825">
        <ele>827</ele>
        <time>2023-07-05T08:16:25Z</time>
      </trkpt>
      <trkpt lat="48.52276" lon="7.16842">
        <ele>828</ele>
        <time>2023-07-05T08:16:40Z</time>
      </trkpt>
      <trkpt lat="48.5227" lon="7.16847">
        <ele>829</ele>
        <time>2023-07-05T08:17:21Z</time>
      </trkpt>
      <trkpt lat="48.52268" lon="7.16853">
        <ele>829</ele>
        <time>2023-07-05T08:17:25Z</time>
      </trkpt>
      <trkpt lat="48.52261" lon="7.16861">
        <ele>830</ele>
        <time>2023-07-05T08:17:34Z</time>
      </trkpt>
      <trkpt lat="48.52258" lon="7.16866">
        <ele>829</ele>
        <time>2023-07-05T08:17:39Z</time>
      </trkpt>
      <trkpt lat="48.52255" lon="7.16871">
        <ele>829</ele>
        <time>2023-07-05T08:17:43Z</time>
      </trkpt>
      <trkpt lat="48.5225" lon="7.16876">
        <ele>830</ele>
        <time>2023-07-05T08:17:49Z</time>
      </trkpt>
      <trkpt lat="48.52239" lon="7.1689">
        <ele>831</ele>
        <time>2023-07-05T08:18:02Z</time>
      </trkpt>
      <trkpt lat="48.52227" lon="7.16904">
        <ele>833</ele>
        <time>2023-07-05T08:18:14Z</time>
      </trkpt>
      <trkpt lat="48.52223" lon="7.16907">
        <ele>833</ele>
        <time>2023-07-05T08:18:18Z</time>
      </trkpt>
      <trkpt lat="48.5222" lon="7.16912">
        <ele>833</ele>
        <time>2023-07-05T08:18:22Z</time>
      </trkpt>
      <trkpt lat="48.52211" lon="7.16917">
        <ele>833</ele>
        <time>2023-07-05T08:18:30Z</time>
      </trkpt>
      <trkpt lat="48.52203" lon="7.16927">
        <ele>834</ele>
        <time>2023-07-05T08:18:39Z</time>
      </trkpt>
      <trkpt lat="48.52199" lon="7.16928">
        <ele>834</ele>
        <time>2023-07-05T08:18:43Z</time>
      </trkpt>
      <trkpt lat="48.52193" lon="7.16935">
        <ele>835</ele>
        <time>2023-07-05T08:18:50Z</time>
      </trkpt>
      <trkpt lat="48.52189" lon="7.16942">
        <ele>835</ele>
        <time>2023-07-05T08:18:56Z</time>
      </trkpt>
      <trkpt lat="48.52184" lon="7.16946">
        <ele>836</ele>
        <time>2023-07-05T08:19:00Z</time>
      </trkpt>
      <trkpt lat="48.5218" lon="7.16948">
        <ele>836</ele>
        <time>2023-07-05T08:19:03Z</time>
      </trkpt>
      <trkpt lat="48.52164" lon="7.16964">
        <ele>837</ele>
        <time>2023-07-05T08:19:19Z</time>
      </trkpt>
      <trkpt lat="48.52161" lon="7.16969">
        <ele>838</ele>
        <time>2023-07-05T08:19:23Z</time>
      </trkpt>
      <trkpt lat="48.52128" lon="7.16999">
        <ele>839</ele>
        <time>2023-07-05T08:19:57Z</time>
      </trkpt>
      <trkpt lat="48.52114" lon="7.17004">
        <ele>839</ele>
        <time>2023-07-05T08:20:09Z</time>
      </trkpt>
      <trkpt lat="48.52101" lon="7.17016">
        <ele>840</ele>
        <time>2023-07-05T08:20:22Z</time>
      </trkpt>
      <trkpt lat="48.5208" lon="7.17032">
        <ele>840</ele>
        <time>2023-07-05T08:20:40Z</time>
      </trkpt>
      <trkpt lat="48.52076" lon="7.17036">
        <ele>839</ele>
        <time>2023-07-05T08:20:44Z</time>
      </trkpt>
      <trkpt lat="48.52072" lon="7.17038">
        <ele>839</ele>
        <time>2023-07-05T08:20:48Z</time>
      </trkpt>
      <trkpt lat="48.52062" lon="7.17045">
        <ele>839</ele>
        <time>2023-07-05T08:20:57Z</time>
      </trkpt>
      <trkpt lat="48.52058" lon="7.17048">
        <ele>839</ele>
        <time>2023-07-05T08:21:01Z</time>
      </trkpt>
      <trkpt lat="48.52053" lon="7.17049">
        <ele>839</ele>
        <time>2023-07-05T08:21:04Z</time>
      </trkpt>
      <trkpt lat="48.52045" lon="7.17056">
        <ele>839</ele>
        <time>2023-07-05T08:21:11Z</time>
      </trkpt>
      <trkpt lat="48.52036" lon="7.17064">
        <ele>838</ele>
        <time>2023-07-05T08:21:20Z</time>
      </trkpt>
      <trkpt lat="48.52032" lon="7.17065">
        <ele>837</ele>
        <time>2023-07-05T08:21:23Z</time>
      </trkpt>
      <trkpt lat="48.52023" lon="7.17072">
        <ele>838</ele>
        <time>2023-07-05T08:21:31Z</time>
      </trkpt>
      <trkpt lat="48.52014" lon="7.17079">
        <ele>839</ele>
        <time>2023-07-05T08:21:40Z</time>
      </trkpt>
      <trkpt lat="48.52009" lon="7.17082">
        <ele>839</ele>
        <time>2023-07-05T08:21:44Z</time>
      </trkpt>
      <trkpt lat="48.52004" lon="7.17082">
        <ele>839</ele>
        <time>2023-07-05T08:21:47Z</time>
      </trkpt>
      <trkpt lat="48.52001" lon="7.17087">
        <ele>839</ele>
        <time>2023-07-05T08:21:51Z</time>
      </trkpt>
      <trkpt lat="48.51996" lon="7.17088">
        <ele>838</ele>
        <time>2023-07-05T08:21:55Z</time>
      </trkpt>
      <trkpt lat="48.51992" lon="7.17091">
        <ele>838</ele>
        <time>2023-07-05T08:21:59Z</time>
      </trkpt>
      <trkpt lat="48.51986" lon="7.17091">
        <ele>838</ele>
        <time>2023-07-05T08:22:03Z</time>
      </trkpt>
      <trkpt lat="48.51982" lon="7.17095">
        <ele>838</ele>
        <time>2023-07-05T08:22:07Z</time>
      </trkpt>
      <trkpt lat="48.51973" lon="7.17098">
        <ele>838</ele>
        <time>2023-07-05T08:22:15Z</time>
      </trkpt>
      <trkpt lat="48.51968" lon="7.17101">
        <ele>837</ele>
        <time>2023-07-05T08:22:19Z</time>
      </trkpt>
      <trkpt lat="48.51962" lon="7.17102">
        <ele>837</ele>
        <time>2023-07-05T08:22:23Z</time>
      </trkpt>
      <trkpt lat="48.51958" lon="7.17106">
        <ele>837</ele>
        <time>2023-07-05T08:22:27Z</time>
      </trkpt>
      <trkpt lat="48.51948" lon="7.17112">
        <ele>837</ele>
        <time>2023-07-05T08:22:37Z</time>
      </trkpt>
      <trkpt lat="48.51943" lon="7.17113">
        <ele>837</ele>
        <time>2023-07-05T08:22:42Z</time>
      </trkpt>
      <trkpt lat="48.51937" lon="7.17116">
        <ele>837</ele>
        <time>2023-07-05T08:22:46Z</time>
      </trkpt>
      <trkpt lat="48.51934" lon="7.1712">
        <ele>837</ele>
        <time>2023-07-05T08:22:49Z</time>
      </trkpt>
      <trkpt lat="48.51928" lon="7.17121">
        <ele>837</ele>
        <time>2023-07-05T08:22:53Z</time>
      </trkpt>
      <trkpt lat="48.51919" lon="7.17125">
        <ele>837</ele>
        <time>2023-07-05T08:23:00Z</time>
      </trkpt>
      <trkpt lat="48.51915" lon="7.17124">
        <ele>837</ele>
        <time>2023-07-05T08:23:04Z</time>
      </trkpt>
      <trkpt lat="48.5191" lon="7.17125">
        <ele>837</ele>
        <time>2023-07-05T08:23:08Z</time>
      </trkpt>
      <trkpt lat="48.51904" lon="7.17125">
        <ele>836</ele>
        <time>2023-07-05T08:23:12Z</time>
      </trkpt>
      <trkpt lat="48.51899" lon="7.17125">
        <ele>836</ele>
        <time>2023-07-05T08:23:16Z</time>
      </trkpt>
      <trkpt lat="48.51883" lon="7.17128">
        <ele>837</ele>
        <time>2023-07-05T08:23:29Z</time>
      </trkpt>
      <trkpt lat="48.5187" lon="7.17125">
        <ele>836</ele>
        <time>2023-07-05T08:23:40Z</time>
      </trkpt>
      <trkpt lat="48.51865" lon="7.17126">
        <ele>836</ele>
        <time>2023-07-05T08:23:43Z</time>
      </trkpt>
      <trkpt lat="48.5186" lon="7.17126">
        <ele>836</ele>
        <time>2023-07-05T08:23:47Z</time>
      </trkpt>
      <trkpt lat="48.51855" lon="7.17128">
        <ele>835</ele>
        <time>2023-07-05T08:23:51Z</time>
      </trkpt>
      <trkpt lat="48.51851" lon="7.17129">
        <ele>835</ele>
        <time>2023-07-05T08:23:55Z</time>
      </trkpt>
      <trkpt lat="48.51846" lon="7.17128">
        <ele>836</ele>
        <time>2023-07-05T08:23:59Z</time>
      </trkpt>
      <trkpt lat="48.51837" lon="7.17128">
        <ele>835</ele>
        <time>2023-07-05T08:24:07Z</time>
      </trkpt>
      <trkpt lat="48.51826" lon="7.17129">
        <ele>836</ele>
        <time>2023-07-05T08:24:15Z</time>
      </trkpt>
      <trkpt lat="48.51816" lon="7.17132">
        <ele>836</ele>
        <time>2023-07-05T08:24:23Z</time>
      </trkpt>
      <trkpt lat="48.51805" lon="7.17135">
        <ele>836</ele>
        <time>2023-07-05T08:24:33Z</time>
      </trkpt>
      <trkpt lat="48.518" lon="7.17135">
        <ele>836</ele>
        <time>2023-07-05T08:24:36Z</time>
      </trkpt>
      <trkpt lat="48.51795" lon="7.17133">
        <ele>836</ele>
        <time>2023-07-05T08:24:39Z</time>
      </trkpt>
      <trkpt lat="48.51785" lon="7.17134">
        <ele>835</ele>
        <time>2023-07-05T08:24:47Z</time>
      </trkpt>
      <trkpt lat="48.51779" lon="7.17134">
        <ele>835</ele>
        <time>2023-07-05T08:24:51Z</time>
      </trkpt>
      <trkpt lat="48.51775" lon="7.17135">
        <ele>836</ele>
        <time>2023-07-05T08:24:55Z</time>
      </trkpt>
      <trkpt lat="48.51771" lon="7.17132">
        <ele>836</ele>
        <time>2023-07-05T08:24:58Z</time>
      </trkpt>
      <trkpt lat="48.51766" lon="7.17134">
        <ele>836</ele>
        <time>2023-07-05T08:25:02Z</time>
      </trkpt>
      <trkpt lat="48.51761" lon="7.17133">
        <ele>836</ele>
        <time>2023-07-05T08:25:06Z</time>
      </trkpt>
      <trkpt lat="48.51757" lon="7.17131">
        <ele>836</ele>
        <time>2023-07-05T08:25:09Z</time>
      </trkpt>
      <trkpt lat="48.51752" lon="7.1713">
        <ele>836</ele>
        <time>2023-07-05T08:25:13Z</time>
      </trkpt>
      <trkpt lat="48.51747" lon="7.17128">
        <ele>836</ele>
        <time>2023-07-05T08:25:18Z</time>
      </trkpt>
      <trkpt lat="48.51739" lon="7.17128">
        <ele>836</ele>
        <time>2023-07-05T08:25:26Z</time>
      </trkpt>
      <trkpt lat="48.5173" lon="7.17125">
        <ele>837</ele>
        <time>2023-07-05T08:25:33Z</time>
      </trkpt>
      <trkpt lat="48.51727" lon="7.17119">
        <ele>837</ele>
        <time>2023-07-05T08:25:37Z</time>
      </trkpt>
      <trkpt lat="48.51718" lon="7.17113">
        <ele>836</ele>
        <time>2023-07-05T08:25:43Z</time>
      </trkpt>
      <trkpt lat="48.51713" lon="7.17113">
        <ele>836</ele>
        <time>2023-07-05T08:25:46Z</time>
      </trkpt>
      <trkpt lat="48.51708" lon="7.17105">
        <ele>836</ele>
        <time>2023-07-05T08:25:53Z</time>
      </trkpt>
      <trkpt lat="48.51703" lon="7.17103">
        <ele>835</ele>
        <time>2023-07-05T08:25:56Z</time>
      </trkpt>
      <trkpt lat="48.51685" lon="7.17083">
        <ele>835</ele>
        <time>2023-07-05T08:26:12Z</time>
      </trkpt>
      <trkpt lat="48.5168" lon="7.17082">
        <ele>835</ele>
        <time>2023-07-05T08:26:16Z</time>
      </trkpt>
      <trkpt lat="48.51676" lon="7.17079">
        <ele>834</ele>
        <time>2023-07-05T08:26:20Z</time>
      </trkpt>
      <trkpt lat="48.51673" lon="7.17072">
        <ele>834</ele>
        <time>2023-07-05T08:26:24Z</time>
      </trkpt>
      <trkpt lat="48.51664" lon="7.17065">
        <ele>833</ele>
        <time>2023-07-05T08:26:32Z</time>
      </trkpt>
      <trkpt lat="48.51659" lon="7.17064">
        <ele>833</ele>
        <time>2023-07-05T08:26:36Z</time>
      </trkpt>
      <trkpt lat="48.51638" lon="7.17045">
        <ele>832</ele>
        <time>2023-07-05T08:26:55Z</time>
      </trkpt>
      <trkpt lat="48.51613" lon="7.17038">
        <ele>831</ele>
        <time>2023-07-05T08:27:14Z</time>
      </trkpt>
      <trkpt lat="48.51595" lon="7.17026">
        <ele>830</ele>
        <time>2023-07-05T08:27:31Z</time>
      </trkpt>
      <trkpt lat="48.5159" lon="7.17018">
        <ele>830</ele>
        <time>2023-07-05T08:27:38Z</time>
      </trkpt>
      <trkpt lat="48.51588" lon="7.17011">
        <ele>829</ele>
        <time>2023-07-05T08:27:43Z</time>
      </trkpt>
      <trkpt lat="48.51587" lon="7.17003">
        <ele>829</ele>
        <time>2023-07-05T08:27:48Z</time>
      </trkpt>
      <trkpt lat="48.5159" lon="7.16994">
        <ele>830</ele>
        <time>2023-07-05T08:28:35Z</time>
      </trkpt>
      <trkpt lat="48.5159" lon="7.16988">
        <ele>830</ele>
        <time>2023-07-05T08:28:45Z</time>
      </trkpt>
      <trkpt lat="48.51587" lon="7.16982">
        <ele>830</ele>
        <time>2023-07-05T08:28:56Z</time>
      </trkpt>
      <trkpt lat="48.51588" lon="7.16981">
        <ele>829</ele>
        <time>2023-07-05T08:29:28Z</time>
      </trkpt>
      <trkpt lat="48.51588" lon="7.16984">
        <ele>829</ele>
        <time>2023-07-05T08:30:24Z</time>
      </trkpt>
      <trkpt lat="48.51588" lon="7.16986">
        <ele>829</ele>
        <time>2023-07-05T08:30:52Z</time>
      </trkpt>
      <trkpt lat="48.51584" lon="7.16989">
        <ele>828</ele>
        <time>2023-07-05T08:31:43Z</time>
      </trkpt>
      <trkpt lat="48.51584" lon="7.16995">
        <ele>829</ele>
        <time>2023-07-05T08:34:24Z</time>
      </trkpt>
      <trkpt lat="48.51581" lon="7.16995">
        <ele>828</ele>
        <time>2023-07-05T08:35:09Z</time>
      </trkpt>
      <trkpt lat="48.51575" lon="7.1699">
        <ele>827</ele>
        <time>2023-07-05T08:35:17Z</time>
      </trkpt>
      <trkpt lat="48.51574" lon="7.16984">
        <ele>827</ele>
        <time>2023-07-05T08:36:12Z</time>
      </trkpt>
      <trkpt lat="48.51574" lon="7.16964">
        <ele>828</ele>
        <time>2023-07-05T08:36:29Z</time>
      </trkpt>
      <trkpt lat="48.51574" lon="7.1695">
        <ele>828</ele>
        <time>2023-07-05T08:36:38Z</time>
      </trkpt>
      <trkpt lat="48.51575" lon="7.1692">
        <ele>832</ele>
        <time>2023-07-05T08:37:01Z</time>
      </trkpt>
      <trkpt lat="48.51574" lon="7.16914">
        <ele>832</ele>
        <time>2023-07-05T08:37:06Z</time>
      </trkpt>
      <trkpt lat="48.51573" lon="7.16907">
        <ele>833</ele>
        <time>2023-07-05T08:37:11Z</time>
      </trkpt>
      <trkpt lat="48.51571" lon="7.169">
        <ele>834</ele>
        <time>2023-07-05T08:37:16Z</time>
      </trkpt>
      <trkpt lat="48.51571" lon="7.1689">
        <ele>835</ele>
        <time>2023-07-05T08:37:25Z</time>
      </trkpt>
      <trkpt lat="48.51571" lon="7.16878">
        <ele>836</ele>
        <time>2023-07-05T08:37:35Z</time>
      </trkpt>
      <trkpt lat="48.5157" lon="7.16871">
        <ele>836</ele>
        <time>2023-07-05T08:37:41Z</time>
      </trkpt>
      <trkpt lat="48.51571" lon="7.16857">
        <ele>838</ele>
        <time>2023-07-05T08:37:50Z</time>
      </trkpt>
      <trkpt lat="48.5157" lon="7.1685">
        <ele>838</ele>
        <time>2023-07-05T08:37:58Z</time>
      </trkpt>
      <trkpt lat="48.51569" lon="7.16837">
        <ele>840</ele>
        <time>2023-07-05T08:38:10Z</time>
      </trkpt>
      <trkpt lat="48.51568" lon="7.1683">
        <ele>840</ele>
        <time>2023-07-05T08:38:15Z</time>
      </trkpt>
      <trkpt lat="48.51566" lon="7.16808">
        <ele>842</ele>
        <time>2023-07-05T08:38:33Z</time>
      </trkpt>
      <trkpt lat="48.51564" lon="7.16802">
        <ele>843</ele>
        <time>2023-07-05T08:38:38Z</time>
      </trkpt>
      <trkpt lat="48.51562" lon="7.16788">
        <ele>844</ele>
        <time>2023-07-05T08:38:50Z</time>
      </trkpt>
      <trkpt lat="48.51562" lon="7.16775">
        <ele>846</ele>
        <time>2023-07-05T08:39:00Z</time>
      </trkpt>
      <trkpt lat="48.51562" lon="7.16765">
        <ele>847</ele>
        <time>2023-07-05T08:39:08Z</time>
      </trkpt>
      <trkpt lat="48.51555" lon="7.16726">
        <ele>851</ele>
        <time>2023-07-05T08:39:42Z</time>
      </trkpt>
      <trkpt lat="48.51553" lon="7.16699">
        <ele>854</ele>
        <time>2023-07-05T08:40:06Z</time>
      </trkpt>
      <trkpt lat="48.51553" lon="7.16674">
        <ele>857</ele>
        <time>2023-07-05T08:40:30Z</time>
      </trkpt>
      <trkpt lat="48.51551" lon="7.16654">
        <ele>858</ele>
        <time>2023-07-05T08:40:42Z</time>
      </trkpt>
      <trkpt lat="48.5154" lon="7.16672">
        <ele>859</ele>
        <time>2023-07-05T08:40:59Z</time>
      </trkpt>
      <trkpt lat="48.51537" lon="7.16682">
        <ele>860</ele>
        <time>2023-07-05T08:41:07Z</time>
      </trkpt>
      <trkpt lat="48.51537" lon="7.16688">
        <ele>861</ele>
        <time>2023-07-05T08:41:12Z</time>
      </trkpt>
      <trkpt lat="48.51533" lon="7.16694">
        <ele>861</ele>
        <time>2023-07-05T08:41:16Z</time>
      </trkpt>
      <trkpt lat="48.5153" lon="7.16701">
        <ele>861</ele>
        <time>2023-07-05T08:41:23Z</time>
      </trkpt>
      <trkpt lat="48.51529" lon="7.16707">
        <ele>862</ele>
        <time>2023-07-05T08:41:28Z</time>
      </trkpt>
      <trkpt lat="48.51513" lon="7.16742">
        <ele>865</ele>
        <time>2023-07-05T08:42:00Z</time>
      </trkpt>
      <trkpt lat="48.51507" lon="7.16752">
        <ele>866</ele>
        <time>2023-07-05T08:42:11Z</time>
      </trkpt>
      <trkpt lat="48.51488" lon="7.16767">
        <ele>870</ele>
        <time>2023-07-05T08:42:39Z</time>
      </trkpt>
      <trkpt lat="48.51483" lon="7.16766">
        <ele>870</ele>
        <time>2023-07-05T08:42:49Z</time>
      </trkpt>
      <trkpt lat="48.51477" lon="7.1676">
        <ele>872</ele>
        <time>2023-07-05T08:42:59Z</time>
      </trkpt>
      <trkpt lat="48.51468" lon="7.16757">
        <ele>872</ele>
        <time>2023-07-05T08:43:08Z</time>
      </trkpt>
      <trkpt lat="48.51456" lon="7.16752">
        <ele>874</ele>
        <time>2023-07-05T08:43:22Z</time>
      </trkpt>
      <trkpt lat="48.51429" lon="7.16752">
        <ele>878</ele>
        <time>2023-07-05T08:43:54Z</time>
      </trkpt>
      <trkpt lat="48.51416" lon="7.16749">
        <ele>880</ele>
        <time>2023-07-05T08:44:09Z</time>
      </trkpt>
      <trkpt lat="48.51412" lon="7.16753">
        <ele>881</ele>
        <time>2023-07-05T08:44:16Z</time>
      </trkpt>
      <trkpt lat="48.51408" lon="7.16754">
        <ele>881</ele>
        <time>2023-07-05T08:44:22Z</time>
      </trkpt>
      <trkpt lat="48.51403" lon="7.16751">
        <ele>883</ele>
        <time>2023-07-05T08:44:37Z</time>
      </trkpt>
      <trkpt lat="48.51413" lon="7.16739">
        <ele>886</ele>
        <time>2023-07-05T08:45:02Z</time>
      </trkpt>
      <trkpt lat="48.51418" lon="7.16731">
        <ele>887</ele>
        <time>2023-07-05T08:45:13Z</time>
      </trkpt>
      <trkpt lat="48.51424" lon="7.1673">
        <ele>888</ele>
        <time>2023-07-05T08:45:23Z</time>
      </trkpt>
      <trkpt lat="48.51431" lon="7.16725">
        <ele>889</ele>
        <time>2023-07-05T08:45:33Z</time>
      </trkpt>
      <trkpt lat="48.51435" lon="7.16719">
        <ele>890</ele>
        <time>2023-07-05T08:45:38Z</time>
      </trkpt>
      <trkpt lat="48.51441" lon="7.16716">
        <ele>891</ele>
        <time>2023-07-05T08:45:49Z</time>
      </trkpt>
      <trkpt lat="48.51447" lon="7.16713">
        <ele>893</ele>
        <time>2023-07-05T08:46:01Z</time>
      </trkpt>
      <trkpt lat="48.51452" lon="7.16707">
        <ele>894</ele>
        <time>2023-07-05T08:46:11Z</time>
      </trkpt>
      <trkpt lat="48.51458" lon="7.16704">
        <ele>895</ele>
        <time>2023-07-05T08:46:21Z</time>
      </trkpt>
      <trkpt lat="48.51464" lon="7.16697">
        <ele>896</ele>
        <time>2023-07-05T08:46:33Z</time>
      </trkpt>
      <trkpt lat="48.51454" lon="7.16691">
        <ele>898</ele>
        <time>2023-07-05T08:46:48Z</time>
      </trkpt>
      <trkpt lat="48.51446" lon="7.16688">
        <ele>899</ele>
        <time>2023-07-05T08:46:58Z</time>
      </trkpt>
      <trkpt lat="48.51447" lon="7.16683">
        <ele>903</ele>
        <time>2023-07-05T08:47:37Z</time>
      </trkpt>
      <trkpt lat="48.51451" lon="7.16679">
        <ele>904</ele>
        <time>2023-07-05T08:47:47Z</time>
      </trkpt>
      <trkpt lat="48.51454" lon="7.16673">
        <ele>906</ele>
        <time>2023-07-05T08:47:57Z</time>
      </trkpt>
      <trkpt lat="48.51458" lon="7.16664">
        <ele>907</ele>
        <time>2023-07-05T08:48:07Z</time>
      </trkpt>
      <trkpt lat="48.51458" lon="7.16657">
        <ele>907</ele>
        <time>2023-07-05T08:48:12Z</time>
      </trkpt>
      <trkpt lat="48.5146" lon="7.16649">
        <ele>908</ele>
        <time>2023-07-05T08:48:19Z</time>
      </trkpt>
      <trkpt lat="48.5146" lon="7.16633">
        <ele>909</ele>
        <time>2023-07-05T08:48:36Z</time>
      </trkpt>
      <trkpt lat="48.51459" lon="7.16623">
        <ele>910</ele>
        <time>2023-07-05T08:48:46Z</time>
      </trkpt>
      <trkpt lat="48.5146" lon="7.16613">
        <ele>912</ele>
        <time>2023-07-05T08:48:56Z</time>
      </trkpt>
      <trkpt lat="48.51457" lon="7.16592">
        <ele>914</ele>
        <time>2023-07-05T08:49:27Z</time>
      </trkpt>
      <trkpt lat="48.51453" lon="7.16588">
        <ele>916</ele>
        <time>2023-07-05T08:49:40Z</time>
      </trkpt>
      <trkpt lat="48.51456" lon="7.16581">
        <ele>916</ele>
        <time>2023-07-05T08:49:50Z</time>
      </trkpt>
      <trkpt lat="48.51456" lon="7.16574">
        <ele>916</ele>
        <time>2023-07-05T08:50:26Z</time>
      </trkpt>
      <trkpt lat="48.51454" lon="7.16565">
        <ele>918</ele>
        <time>2023-07-05T08:50:37Z</time>
      </trkpt>
      <trkpt lat="48.51449" lon="7.16557">
        <ele>918</ele>
        <time>2023-07-05T08:50:49Z</time>
      </trkpt>
      <trkpt lat="48.51448" lon="7.16549">
        <ele>920</ele>
        <time>2023-07-05T08:51:04Z</time>
      </trkpt>
      <trkpt lat="48.51447" lon="7.16538">
        <ele>921</ele>
        <time>2023-07-05T08:51:14Z</time>
      </trkpt>
      <trkpt lat="48.51445" lon="7.16525">
        <ele>922</ele>
        <time>2023-07-05T08:51:25Z</time>
      </trkpt>
      <trkpt lat="48.51444" lon="7.16519">
        <ele>922</ele>
        <time>2023-07-05T08:51:30Z</time>
      </trkpt>
      <trkpt lat="48.51441" lon="7.16506">
        <ele>923</ele>
        <time>2023-07-05T08:51:40Z</time>
      </trkpt>
      <trkpt lat="48.51441" lon="7.16498">
        <ele>924</ele>
        <time>2023-07-05T08:51:47Z</time>
      </trkpt>
      <trkpt lat="48.51436" lon="7.16502">
        <ele>925</ele>
        <time>2023-07-05T08:51:57Z</time>
      </trkpt>
      <trkpt lat="48.51436" lon="7.16512">
        <ele>926</ele>
        <time>2023-07-05T08:52:07Z</time>
      </trkpt>
      <trkpt lat="48.51433" lon="7.1652">
        <ele>927</ele>
        <time>2023-07-05T08:52:18Z</time>
      </trkpt>
      <trkpt lat="48.51433" lon="7.16529">
        <ele>927</ele>
        <time>2023-07-05T08:52:30Z</time>
      </trkpt>
      <trkpt lat="48.51431" lon="7.16535">
        <ele>928</ele>
        <time>2023-07-05T08:52:35Z</time>
      </trkpt>
      <trkpt lat="48.51434" lon="7.16543">
        <ele>927</ele>
        <time>2023-07-05T08:52:48Z</time>
      </trkpt>
      <trkpt lat="48.51429" lon="7.16549">
        <ele>930</ele>
        <time>2023-07-05T08:53:05Z</time>
      </trkpt>
      <trkpt lat="48.51425" lon="7.16534">
        <ele>935</ele>
        <time>2023-07-05T08:53:43Z</time>
      </trkpt>
      <trkpt lat="48.51423" lon="7.16529">
        <ele>937</ele>
        <time>2023-07-05T08:53:53Z</time>
      </trkpt>
      <trkpt lat="48.51422" lon="7.16519">
        <ele>937</ele>
        <time>2023-07-05T08:54:04Z</time>
      </trkpt>
      <trkpt lat="48.51419" lon="7.1651">
        <ele>938</ele>
        <time>2023-07-05T08:54:14Z</time>
      </trkpt>
      <trkpt lat="48.51417" lon="7.16503">
        <ele>939</ele>
        <time>2023-07-05T08:54:24Z</time>
      </trkpt>
      <trkpt lat="48.51416" lon="7.16496">
        <ele>939</ele>
        <time>2023-07-05T08:54:34Z</time>
      </trkpt>
      <trkpt lat="48.51412" lon="7.16489">
        <ele>940</ele>
        <time>2023-07-05T08:54:43Z</time>
      </trkpt>
      <trkpt lat="48.5141" lon="7.16482">
        <ele>941</ele>
        <time>2023-07-05T08:54:51Z</time>
      </trkpt>
      <trkpt lat="48.51405" lon="7.16487">
        <ele>944</ele>
        <time>2023-07-05T08:55:13Z</time>
      </trkpt>
      <trkpt lat="48.51405" lon="7.16494">
        <ele>945</ele>
        <time>2023-07-05T08:55:23Z</time>
      </trkpt>
      <trkpt lat="48.51403" lon="7.16501">
        <ele>946</ele>
        <time>2023-07-05T08:55:33Z</time>
      </trkpt>
      <trkpt lat="48.51399" lon="7.16511">
        <ele>947</ele>
        <time>2023-07-05T08:55:43Z</time>
      </trkpt>
      <trkpt lat="48.51404" lon="7.16514">
        <ele>947</ele>
        <time>2023-07-05T08:55:47Z</time>
      </trkpt>
      <trkpt lat="48.51402" lon="7.16525">
        <ele>948</ele>
        <time>2023-07-05T08:56:41Z</time>
      </trkpt>
      <trkpt lat="48.51402" lon="7.16533">
        <ele>948</ele>
        <time>2023-07-05T08:57:30Z</time>
      </trkpt>
      <trkpt lat="48.51401" lon="7.16543">
        <ele>949</ele>
        <time>2023-07-05T08:58:25Z</time>
      </trkpt>
      <trkpt lat="48.514" lon="7.16553">
        <ele>950</ele>
        <time>2023-07-05T08:58:35Z</time>
      </trkpt>
      <trkpt lat="48.51397" lon="7.16559">
        <ele>951</ele>
        <time>2023-07-05T08:58:40Z</time>
      </trkpt>
      <trkpt lat="48.51394" lon="7.16574">
        <ele>954</ele>
        <time>2023-07-05T08:59:01Z</time>
      </trkpt>
      <trkpt lat="48.51388" lon="7.16579">
        <ele>955</ele>
        <time>2023-07-05T08:59:11Z</time>
      </trkpt>
      <trkpt lat="48.5139" lon="7.1657">
        <ele>957</ele>
        <time>2023-07-05T08:59:28Z</time>
      </trkpt>
      <trkpt lat="48.51386" lon="7.16555">
        <ele>959</ele>
        <time>2023-07-05T08:59:48Z</time>
      </trkpt>
      <trkpt lat="48.51382" lon="7.16547">
        <ele>960</ele>
        <time>2023-07-05T08:59:58Z</time>
      </trkpt>
      <trkpt lat="48.51379" lon="7.16528">
        <ele>962</ele>
        <time>2023-07-05T09:00:19Z</time>
      </trkpt>
      <trkpt lat="48.51376" lon="7.16519">
        <ele>963</ele>
        <time>2023-07-05T09:00:29Z</time>
      </trkpt>
      <trkpt lat="48.51374" lon="7.16508">
        <ele>964</ele>
        <time>2023-07-05T09:00:40Z</time>
      </trkpt>
      <trkpt lat="48.51372" lon="7.165">
        <ele>965</ele>
        <time>2023-07-05T09:00:48Z</time>
      </trkpt>
      <trkpt lat="48.51364" lon="7.16488">
        <ele>967</ele>
        <time>2023-07-05T09:01:06Z</time>
      </trkpt>
      <trkpt lat="48.51358" lon="7.16485">
        <ele>969</ele>
        <time>2023-07-05T09:01:17Z</time>
      </trkpt>
      <trkpt lat="48.51358" lon="7.16503">
        <ele>971</ele>
        <time>2023-07-05T09:01:37Z</time>
      </trkpt>
      <trkpt lat="48.5136" lon="7.16515">
        <ele>972</ele>
        <time>2023-07-05T09:01:47Z</time>
      </trkpt>
      <trkpt lat="48.51358" lon="7.16523">
        <ele>972</ele>
        <time>2023-07-05T09:01:54Z</time>
      </trkpt>
      <trkpt lat="48.51355" lon="7.16531">
        <ele>974</ele>
        <time>2023-07-05T09:02:04Z</time>
      </trkpt>
      <trkpt lat="48.51357" lon="7.16537">
        <ele>974</ele>
        <time>2023-07-05T09:02:08Z</time>
      </trkpt>
      <trkpt lat="48.51357" lon="7.16545">
        <ele>974</ele>
        <time>2023-07-05T09:02:13Z</time>
      </trkpt>
      <trkpt lat="48.51355" lon="7.16553">
        <ele>974</ele>
        <time>2023-07-05T09:02:24Z</time>
      </trkpt>
      <trkpt lat="48.51353" lon="7.1656">
        <ele>975</ele>
        <time>2023-07-05T09:02:29Z</time>
      </trkpt>
      <trkpt lat="48.51352" lon="7.16568">
        <ele>975</ele>
        <time>2023-07-05T09:02:36Z</time>
      </trkpt>
      <trkpt lat="48.5134" lon="7.16583">
        <ele>977</ele>
        <time>2023-07-05T09:02:59Z</time>
      </trkpt>
      <trkpt lat="48.51323" lon="7.16591">
        <ele>980</ele>
        <time>2023-07-05T09:03:26Z</time>
      </trkpt>
      <trkpt lat="48.51313" lon="7.166">
        <ele>981</ele>
        <time>2023-07-05T09:03:44Z</time>
      </trkpt>
      <trkpt lat="48.51296" lon="7.16611">
        <ele>984</ele>
        <time>2023-07-05T09:04:12Z</time>
      </trkpt>
      <trkpt lat="48.5129" lon="7.16618">
        <ele>984</ele>
        <time>2023-07-05T09:04:23Z</time>
      </trkpt>
      <trkpt lat="48.51286" lon="7.16619">
        <ele>983</ele>
        <time>2023-07-05T09:04:28Z</time>
      </trkpt>
      <trkpt lat="48.51281" lon="7.16622">
        <ele>983</ele>
        <time>2023-07-05T09:04:38Z</time>
      </trkpt>
      <trkpt lat="48.51275" lon="7.1662">
        <ele>984</ele>
        <time>2023-07-05T09:05:19Z</time>
      </trkpt>
      <trkpt lat="48.51274" lon="7.16612">
        <ele>988</ele>
        <time>2023-07-05T09:06:24Z</time>
      </trkpt>
      <trkpt lat="48.51272" lon="7.16625">
        <ele>986</ele>
        <time>2023-07-05T09:06:34Z</time>
      </trkpt>
      <trkpt lat="48.51278" lon="7.16625">
        <ele>985</ele>
        <time>2023-07-05T09:06:39Z</time>
      </trkpt>
      <trkpt lat="48.51283" lon="7.16623">
        <ele>985</ele>
        <time>2023-07-05T09:06:43Z</time>
      </trkpt>
      <trkpt lat="48.51288" lon="7.16618">
        <ele>986</ele>
        <time>2023-07-05T09:06:55Z</time>
      </trkpt>
      <trkpt lat="48.51293" lon="7.16612">
        <ele>988</ele>
        <time>2023-07-05T09:07:05Z</time>
      </trkpt>
      <trkpt lat="48.513" lon="7.16606">
        <ele>989</ele>
        <time>2023-07-05T09:07:15Z</time>
      </trkpt>
      <trkpt lat="48.51307" lon="7.16596">
        <ele>991</ele>
        <time>2023-07-05T09:07:28Z</time>
      </trkpt>
      <trkpt lat="48.51314" lon="7.1658">
        <ele>994</ele>
        <time>2023-07-05T09:07:46Z</time>
      </trkpt>
      <trkpt lat="48.51314" lon="7.16572">
        <ele>996</ele>
        <time>2023-07-05T09:07:56Z</time>
      </trkpt>
      <trkpt lat="48.51303" lon="7.16578">
        <ele>996</ele>
        <time>2023-07-05T09:08:08Z</time>
      </trkpt>
      <trkpt lat="48.51295" lon="7.16581">
        <ele>998</ele>
        <time>2023-07-05T09:08:18Z</time>
      </trkpt>
      <trkpt lat="48.51284" lon="7.16583">
        <ele>1001</ele>
        <time>2023-07-05T09:08:35Z</time>
      </trkpt>
      <trkpt lat="48.51286" lon="7.16576">
        <ele>1003</ele>
        <time>2023-07-05T09:08:55Z</time>
      </trkpt>
      <trkpt lat="48.51283" lon="7.1657">
        <ele>1005</ele>
        <time>2023-07-05T09:09:05Z</time>
      </trkpt>
      <trkpt lat="48.51287" lon="7.1656">
        <ele>1007</ele>
        <time>2023-07-05T09:09:20Z</time>
      </trkpt>
      <trkpt lat="48.51282" lon="7.16551">
        <ele>1008</ele>
        <time>2023-07-05T09:09:30Z</time>
      </trkpt>
      <trkpt lat="48.51281" lon="7.16545">
        <ele>1011</ele>
        <time>2023-07-05T09:09:43Z</time>
      </trkpt>
      <trkpt lat="48.51279" lon="7.16538">
        <ele>1011</ele>
        <time>2023-07-05T09:09:53Z</time>
      </trkpt>
      <trkpt lat="48.51278" lon="7.16532">
        <ele>1014</ele>
        <time>2023-07-05T09:11:54Z</time>
      </trkpt>
      <trkpt lat="48.51278" lon="7.16521">
        <ele>1014</ele>
        <time>2023-07-05T09:12:09Z</time>
      </trkpt>
      <trkpt lat="48.51272" lon="7.16511">
        <ele>1014</ele>
        <time>2023-07-05T09:12:21Z</time>
      </trkpt>
      <trkpt lat="48.51271" lon="7.16505">
        <ele>1014</ele>
        <time>2023-07-05T09:12:25Z</time>
      </trkpt>
      <trkpt lat="48.51269" lon="7.16494">
        <ele>1014</ele>
        <time>2023-07-05T09:12:34Z</time>
      </trkpt>
      <trkpt lat="48.51267" lon="7.16486">
        <ele>1014</ele>
        <time>2023-07-05T09:12:59Z</time>
      </trkpt>
      <trkpt lat="48.51265" lon="7.1648">
        <ele>1014</ele>
        <time>2023-07-05T09:13:04Z</time>
      </trkpt>
      <trkpt lat="48.51265" lon="7.16474">
        <ele>1014</ele>
        <time>2023-07-05T09:13:17Z</time>
      </trkpt>
      <trkpt lat="48.5126" lon="7.16475">
        <ele>1015</ele>
        <time>2023-07-05T09:14:28Z</time>
      </trkpt>
      <trkpt lat="48.5126" lon="7.16467">
        <ele>1015</ele>
        <time>2023-07-05T09:14:37Z</time>
      </trkpt>
      <trkpt lat="48.51256" lon="7.16462">
        <ele>1015</ele>
        <time>2023-07-05T09:14:44Z</time>
      </trkpt>
      <trkpt lat="48.51254" lon="7.16454">
        <ele>1015</ele>
        <time>2023-07-05T09:15:14Z</time>
      </trkpt>
      <trkpt lat="48.5125" lon="7.1645">
        <ele>1015</ele>
        <time>2023-07-05T09:15:24Z</time>
      </trkpt>
      <trkpt lat="48.51251" lon="7.16443">
        <ele>1015</ele>
        <time>2023-07-05T09:15:34Z</time>
      </trkpt>
      <trkpt lat="48.51251" lon="7.16435">
        <ele>1014</ele>
        <time>2023-07-05T09:18:46Z</time>
      </trkpt>
      <trkpt lat="48.51246" lon="7.16433">
        <ele>1013</ele>
        <time>2023-07-05T09:18:56Z</time>
      </trkpt>
      <trkpt lat="48.51247" lon="7.16435">
        <ele>1014</ele>
        <time>2023-07-05T09:19:38Z</time>
      </trkpt>
      <trkpt lat="48.51243" lon="7.16421">
        <ele>1011</ele>
        <time>2023-07-05T09:20:22Z</time>
      </trkpt>
      <trkpt lat="48.51246" lon="7.16414">
        <ele>1008</ele>
        <time>2023-07-05T09:20:44Z</time>
      </trkpt>
      <trkpt lat="48.51249" lon="7.16407">
        <ele>1007</ele>
        <time>2023-07-05T09:20:55Z</time>
      </trkpt>
      <trkpt lat="48.51247" lon="7.16399">
        <ele>1005</ele>
        <time>2023-07-05T09:21:21Z</time>
      </trkpt>
      <trkpt lat="48.51236" lon="7.16388">
        <ele>1002</ele>
        <time>2023-07-05T09:21:39Z</time>
      </trkpt>
      <trkpt lat="48.51223" lon="7.16382">
        <ele>1000</ele>
        <time>2023-07-05T09:21:56Z</time>
      </trkpt>
      <trkpt lat="48.51217" lon="7.16379">
        <ele>998</ele>
        <time>2023-07-05T09:22:19Z</time>
      </trkpt>
      <trkpt lat="48.51204" lon="7.16356">
        <ele>995</ele>
        <time>2023-07-05T09:22:56Z</time>
      </trkpt>
      <trkpt lat="48.51197" lon="7.16353">
        <ele>993</ele>
        <time>2023-07-05T09:23:06Z</time>
      </trkpt>
      <trkpt lat="48.51193" lon="7.16348">
        <ele>991</ele>
        <time>2023-07-05T09:23:21Z</time>
      </trkpt>
      <trkpt lat="48.51194" lon="7.16341">
        <ele>990</ele>
        <time>2023-07-05T09:23:42Z</time>
      </trkpt>
      <trkpt lat="48.51186" lon="7.1633">
        <ele>987</ele>
        <time>2023-07-05T09:23:59Z</time>
      </trkpt>
      <trkpt lat="48.5116" lon="7.16306">
        <ele>982</ele>
        <time>2023-07-05T09:24:37Z</time>
      </trkpt>
      <trkpt lat="48.5114" lon="7.16287">
        <ele>976</ele>
        <time>2023-07-05T09:25:10Z</time>
      </trkpt>
      <trkpt lat="48.51135" lon="7.1628">
        <ele>974</ele>
        <time>2023-07-05T09:25:22Z</time>
      </trkpt>
      <trkpt lat="48.51125" lon="7.1625">
        <ele>973</ele>
        <time>2023-07-05T09:25:55Z</time>
      </trkpt>
      <trkpt lat="48.51129" lon="7.16238">
        <ele>972</ele>
        <time>2023-07-05T09:26:20Z</time>
      </trkpt>
      <trkpt lat="48.51132" lon="7.16234">
        <ele>970</ele>
        <time>2023-07-05T09:26:30Z</time>
      </trkpt>
      <trkpt lat="48.51128" lon="7.16229">
        <ele>971</ele>
        <time>2023-07-05T09:26:42Z</time>
      </trkpt>
      <trkpt lat="48.51123" lon="7.16225">
        <ele>971</ele>
        <time>2023-07-05T09:27:13Z</time>
      </trkpt>
      <trkpt lat="48.51113" lon="7.16217">
        <ele>969</ele>
        <time>2023-07-05T09:27:23Z</time>
      </trkpt>
      <trkpt lat="48.51107" lon="7.16212">
        <ele>969</ele>
        <time>2023-07-05T09:27:30Z</time>
      </trkpt>
      <trkpt lat="48.51103" lon="7.16208">
        <ele>969</ele>
        <time>2023-07-05T09:27:34Z</time>
      </trkpt>
      <trkpt lat="48.51098" lon="7.16204">
        <ele>968</ele>
        <time>2023-07-05T09:27:39Z</time>
      </trkpt>
      <trkpt lat="48.51086" lon="7.16207">
        <ele>970</ele>
        <time>2023-07-05T09:28:06Z</time>
      </trkpt>
      <trkpt lat="48.51083" lon="7.16212">
        <ele>970</ele>
        <time>2023-07-05T09:28:13Z</time>
      </trkpt>
      <trkpt lat="48.51078" lon="7.16219">
        <ele>970</ele>
        <time>2023-07-05T09:28:24Z</time>
      </trkpt>
      <trkpt lat="48.51077" lon="7.16225">
        <ele>970</ele>
        <time>2023-07-05T09:28:54Z</time>
      </trkpt>
      <trkpt lat="48.51072" lon="7.16221">
        <ele>970</ele>
        <time>2023-07-05T09:28:59Z</time>
      </trkpt>
      <trkpt lat="48.51068" lon="7.16217">
        <ele>970</ele>
        <time>2023-07-05T09:29:04Z</time>
      </trkpt>
      <trkpt lat="48.51064" lon="7.16216">
        <ele>971</ele>
        <time>2023-07-05T09:29:57Z</time>
      </trkpt>
      <trkpt lat="48.51059" lon="7.16209">
        <ele>972</ele>
        <time>2023-07-05T09:30:51Z</time>
      </trkpt>
      <trkpt lat="48.51057" lon="7.16203">
        <ele>972</ele>
        <time>2023-07-05T09:31:26Z</time>
      </trkpt>
      <trkpt lat="48.51059" lon="7.16203">
        <ele>972</ele>
        <time>2023-07-05T09:33:09Z</time>
      </trkpt>
      <trkpt lat="48.51058" lon="7.16211">
        <ele>972</ele>
        <time>2023-07-05T09:34:09Z</time>
      </trkpt>
      <trkpt lat="48.51063" lon="7.16212">
        <ele>972</ele>
        <time>2023-07-05T09:36:20Z</time>
      </trkpt>
      <trkpt lat="48.51063" lon="7.16205">
        <ele>972</ele>
        <time>2023-07-05T09:36:24Z</time>
      </trkpt>
      <trkpt lat="48.51063" lon="7.16199">
        <ele>973</ele>
        <time>2023-07-05T09:36:33Z</time>
        <extensions>
          <visugpx:TrkExtension xmlns:visugpx="https://www.visugpx.com/editgpx/">
            <visugpx:node>1</visugpx:node>
            </visugpx:TrkExtension>
        </extensions>
      </trkpt>
      <trkpt lat="48.51051" lon="7.16206">
        <ele>958.7</ele>
      </trkpt>
      <trkpt lat="48.5104" lon="7.16202">
        <ele>957.9</ele>
      </trkpt>
      <trkpt lat="48.51032" lon="7.16201">
        <ele>957.1</ele>
      </trkpt>
      <trkpt lat="48.51029" lon="7.16201">
        <ele>956.7</ele>
      </trkpt>
      <trkpt lat="48.51027" lon="7.16204">
        <ele>955.7</ele>
      </trkpt>
      <trkpt lat="48.51026" lon="7.16208">
        <ele>954.6</ele>
      </trkpt>
      <trkpt lat="48.51026" lon="7.16213">
        <ele>953.5</ele>
      </trkpt>
      <trkpt lat="48.51027" lon="7.16218">
        <ele>952.7</ele>
      </trkpt>
      <trkpt lat="48.51028" lon="7.16223">
        <ele>951.9</ele>
      </trkpt>
      <trkpt lat="48.5103" lon="7.16229">
        <ele>951</ele>
      </trkpt>
      <trkpt lat="48.51035" lon="7.16237">
        <ele>950.2</ele>
      </trkpt>
      <trkpt lat="48.51046" lon="7.16259">
        <ele>948.3</ele>
      </trkpt>
      <trkpt lat="48.51055" lon="7.16274">
        <ele>948.4</ele>
      </trkpt>
      <trkpt lat="48.51062" lon="7.16286">
        <ele>948.2</ele>
      </trkpt>
      <trkpt lat="48.51067" lon="7.16294">
        <ele>948.1</ele>
      </trkpt>
      <trkpt lat="48.51075" lon="7.16309">
        <ele>947.9</ele>
      </trkpt>
      <trkpt lat="48.5108" lon="7.16321">
        <ele>947.3</ele>
      </trkpt>
      <trkpt lat="48.51083" lon="7.16329">
        <ele>946.8</ele>
      </trkpt>
      <trkpt lat="48.51085" lon="7.16337">
        <ele>945.9</ele>
      </trkpt>
      <trkpt lat="48.51088" lon="7.16351">
        <ele>944.1</ele>
      </trkpt>
      <trkpt lat="48.51089" lon="7.16356">
        <ele>943.5</ele>
      </trkpt>
      <trkpt lat="48.51088" lon="7.16359">
        <ele>942.5</ele>
      </trkpt>
      <trkpt lat="48.51087" lon="7.1636">
        <ele>941.8</ele>
      </trkpt>
      <trkpt lat="48.51084" lon="7.1636">
        <ele>940.5</ele>
      </trkpt>
      <trkpt lat="48.51082" lon="7.16359">
        <ele>939.8</ele>
      </trkpt>
      <trkpt lat="48.51079" lon="7.16357">
        <ele>938.9</ele>
      </trkpt>
      <trkpt lat="48.51077" lon="7.16355">
        <ele>938.4</ele>
      </trkpt>
      <trkpt lat="48.51073" lon="7.16353">
        <ele>937</ele>
      </trkpt>
      <trkpt lat="48.51068" lon="7.16351">
        <ele>935.2</ele>
      </trkpt>
      <trkpt lat="48.51061" lon="7.16349">
        <ele>932.5</ele>
      </trkpt>
      <trkpt lat="48.51058" lon="7.16351">
        <ele>930.7</ele>
      </trkpt>
      <trkpt lat="48.51054" lon="7.16358">
        <ele>927.1</ele>
      </trkpt>
      <trkpt lat="48.51051" lon="7.16356">
        <ele>926.2</ele>
      </trkpt>
      <trkpt lat="48.51046" lon="7.16354">
        <ele>924.5</ele>
      </trkpt>
      <trkpt lat="48.51042" lon="7.16352">
        <ele>923.3</ele>
      </trkpt>
      <trkpt lat="48.51035" lon="7.16351">
        <ele>920.5</ele>
      </trkpt>
      <trkpt lat="48.51028" lon="7.1635">
        <ele>917.7</ele>
      </trkpt>
      <trkpt lat="48.51017" lon="7.16346">
        <ele>914.6</ele>
      </trkpt>
      <trkpt lat="48.51012" lon="7.16343">
        <ele>913.6</ele>
      </trkpt>
      <trkpt lat="48.51006" lon="7.1634">
        <ele>912.2</ele>
      </trkpt>
      <trkpt lat="48.51" lon="7.16338">
        <ele>910.5</ele>
      </trkpt>
      <trkpt lat="48.50994" lon="7.16336">
        <ele>908.8</ele>
      </trkpt>
      <trkpt lat="48.50985" lon="7.16336">
        <ele>905.2</ele>
      </trkpt>
      <trkpt lat="48.50981" lon="7.16335">
        <ele>903.9</ele>
      </trkpt>
      <trkpt lat="48.50971" lon="7.16329">
        <ele>902.2</ele>
      </trkpt>
      <trkpt lat="48.50962" lon="7.16325">
        <ele>901.1</ele>
      </trkpt>
      <trkpt lat="48.50957" lon="7.1632">
        <ele>901.4</ele>
      </trkpt>
      <trkpt lat="48.50951" lon="7.16315">
        <ele>901.5</ele>
      </trkpt>
      <trkpt lat="48.50947" lon="7.16309">
        <ele>902.5</ele>
      </trkpt>
      <trkpt lat="48.50939" lon="7.16295">
        <ele>904.7</ele>
      </trkpt>
      <trkpt lat="48.50935" lon="7.16289">
        <ele>905.3</ele>
      </trkpt>
      <trkpt lat="48.50931" lon="7.16283">
        <ele>906</ele>
      </trkpt>
      <trkpt lat="48.50927" lon="7.16277">
        <ele>906.6</ele>
      </trkpt>
      <trkpt lat="48.50923" lon="7.16273">
        <ele>906.3</ele>
      </trkpt>
      <trkpt lat="48.50919" lon="7.16269">
        <ele>906</ele>
      </trkpt>
      <trkpt lat="48.50914" lon="7.16264">
        <ele>905.4</ele>
      </trkpt>
      <trkpt lat="48.5091" lon="7.16259">
        <ele>905.1</ele>
      </trkpt>
      <trkpt lat="48.50908" lon="7.16256">
        <ele>905.1</ele>
      </trkpt>
      <trkpt lat="48.50906" lon="7.16253">
        <ele>905</ele>
      </trkpt>
      <trkpt lat="48.50905" lon="7.1625">
        <ele>905.4</ele>
        <extensions>
          <visugpx:TrkExtension xmlns:visugpx="https://www.visugpx.com/editgpx/">
            <visugpx:node>2</visugpx:node>
            </visugpx:TrkExtension>
        </extensions>
      </trkpt>
      <trkpt lat="48.50902" lon="7.16244">
        <ele>905.5</ele>
      </trkpt>
      <trkpt lat="48.50898" lon="7.16238">
        <ele>905.1</ele>
      </trkpt>
      <trkpt lat="48.50894" lon="7.16231">
        <ele>904.7</ele>
      </trkpt>
      <trkpt lat="48.50891" lon="7.16223">
        <ele>904.8</ele>
      </trkpt>
      <trkpt lat="48.50887" lon="7.16213">
        <ele>905</ele>
      </trkpt>
      <trkpt lat="48.50884" lon="7.16206">
        <ele>904.8</ele>
      </trkpt>
      <trkpt lat="48.50882" lon="7.16197">
        <ele>905.5</ele>
      </trkpt>
      <trkpt lat="48.5088" lon="7.1619">
        <ele>905.6</ele>
      </trkpt>
      <trkpt lat="48.50877" lon="7.16183">
        <ele>905</ele>
      </trkpt>
      <trkpt lat="48.50872" lon="7.16173">
        <ele>903.7</ele>
      </trkpt>
      <trkpt lat="48.50869" lon="7.16165">
        <ele>902.8</ele>
      </trkpt>
      <trkpt lat="48.50865" lon="7.16156">
        <ele>900.3</ele>
      </trkpt>
      <trkpt lat="48.50861" lon="7.16145">
        <ele>897.9</ele>
      </trkpt>
      <trkpt lat="48.50858" lon="7.16138">
        <ele>896.2</ele>
      </trkpt>
      <trkpt lat="48.50854" lon="7.16128">
        <ele>893.6</ele>
      </trkpt>
      <trkpt lat="48.50852" lon="7.16118">
        <ele>892.2</ele>
      </trkpt>
      <trkpt lat="48.50849" lon="7.1611">
        <ele>890.4</ele>
      </trkpt>
      <trkpt lat="48.50848" lon="7.16103">
        <ele>889.8</ele>
      </trkpt>
      <trkpt lat="48.50847" lon="7.16096">
        <ele>889.1</ele>
      </trkpt>
      <trkpt lat="48.50848" lon="7.16088">
        <ele>889.5</ele>
      </trkpt>
      <trkpt lat="48.50848" lon="7.16079">
        <ele>889.2</ele>
      </trkpt>
      <trkpt lat="48.50849" lon="7.16067">
        <ele>889.3</ele>
      </trkpt>
      <trkpt lat="48.5085" lon="7.16057">
        <ele>889.5</ele>
      </trkpt>
      <trkpt lat="48.50852" lon="7.16045">
        <ele>888.8</ele>
      </trkpt>
      <trkpt lat="48.50856" lon="7.16025">
        <ele>887.3</ele>
      </trkpt>
      <trkpt lat="48.50854" lon="7.16012">
        <ele>884.4</ele>
      </trkpt>
      <trkpt lat="48.50852" lon="7.16005">
        <ele>882.5</ele>
      </trkpt>
      <trkpt lat="48.5085" lon="7.15997">
        <ele>880.5</ele>
      </trkpt>
      <trkpt lat="48.50849" lon="7.1599">
        <ele>879.2</ele>
      </trkpt>
      <trkpt lat="48.50849" lon="7.15982">
        <ele>878</ele>
      </trkpt>
      <trkpt lat="48.5085" lon="7.15971">
        <ele>876.6</ele>
      </trkpt>
      <trkpt lat="48.50851" lon="7.15962">
        <ele>875.4</ele>
      </trkpt>
      <trkpt lat="48.50853" lon="7.15952">
        <ele>874.2</ele>
      </trkpt>
      <trkpt lat="48.50856" lon="7.15946">
        <ele>874</ele>
      </trkpt>
      <trkpt lat="48.50856" lon="7.15943">
        <ele>873.4</ele>
      </trkpt>
      <trkpt lat="48.50859" lon="7.15931">
        <ele>871.6</ele>
      </trkpt>
      <trkpt lat="48.50862" lon="7.1592">
        <ele>869.9</ele>
      </trkpt>
      <trkpt lat="48.50864" lon="7.15911">
        <ele>868.5</ele>
      </trkpt>
      <trkpt lat="48.50866" lon="7.15901">
        <ele>867</ele>
      </trkpt>
      <trkpt lat="48.50869" lon="7.15891">
        <ele>865.5</ele>
      </trkpt>
      <trkpt lat="48.50871" lon="7.15883">
        <ele>864.1</ele>
      </trkpt>
      <trkpt lat="48.50876" lon="7.15873">
        <ele>862.4</ele>
      </trkpt>
      <trkpt lat="48.50882" lon="7.15864">
        <ele>861</ele>
      </trkpt>
      <trkpt lat="48.50886" lon="7.15856">
        <ele>859.8</ele>
      </trkpt>
      <trkpt lat="48.50893" lon="7.15842">
        <ele>858.1</ele>
      </trkpt>
      <trkpt lat="48.50898" lon="7.15834">
        <ele>857.1</ele>
      </trkpt>
      <trkpt lat="48.50902" lon="7.15827">
        <ele>856.2</ele>
      </trkpt>
      <trkpt lat="48.50905" lon="7.1582">
        <ele>855.1</ele>
      </trkpt>
      <trkpt lat="48.5091" lon="7.15812">
        <ele>853.9</ele>
      </trkpt>
      <trkpt lat="48.50915" lon="7.15808">
        <ele>853.4</ele>
      </trkpt>
      <trkpt lat="48.50925" lon="7.158">
        <ele>851.6</ele>
      </trkpt>
      <trkpt lat="48.50932" lon="7.15796">
        <ele>850.5</ele>
      </trkpt>
      <trkpt lat="48.50949" lon="7.15788">
        <ele>848</ele>
      </trkpt>
      <trkpt lat="48.50962" lon="7.15782">
        <ele>846.3</ele>
      </trkpt>
      <trkpt lat="48.50967" lon="7.1578">
        <ele>845.7</ele>
      </trkpt>
      <trkpt lat="48.50971" lon="7.15777">
        <ele>844.8</ele>
      </trkpt>
      <trkpt lat="48.50973" lon="7.15774">
        <ele>844</ele>
      </trkpt>
      <trkpt lat="48.50973" lon="7.1577">
        <ele>842.9</ele>
        <extensions>
          <visugpx:TrkExtension xmlns:visugpx="https://www.visugpx.com/editgpx/">
            <visugpx:node>3</visugpx:node>
            </visugpx:TrkExtension>
        </extensions>
      </trkpt>
      <trkpt lat="48.50971" lon="7.15767">
        <ele>842.3</ele>
      </trkpt>
      <trkpt lat="48.50967" lon="7.15763">
        <ele>841.6</ele>
      </trkpt>
      <trkpt lat="48.50963" lon="7.1576">
        <ele>841.1</ele>
      </trkpt>
      <trkpt lat="48.5096" lon="7.15758">
        <ele>840.8</ele>
      </trkpt>
      <trkpt lat="48.50955" lon="7.15755">
        <ele>840.4</ele>
      </trkpt>
      <trkpt lat="48.50949" lon="7.15749">
        <ele>839.4</ele>
      </trkpt>
      <trkpt lat="48.50946" lon="7.15744">
        <ele>838.6</ele>
      </trkpt>
      <trkpt lat="48.50943" lon="7.15733">
        <ele>836.4</ele>
      </trkpt>
      <trkpt lat="48.50934" lon="7.15726">
        <ele>835.6</ele>
      </trkpt>
      <trkpt lat="48.50927" lon="7.15722">
        <ele>835.2</ele>
      </trkpt>
      <trkpt lat="48.50921" lon="7.15716">
        <ele>834.5</ele>
      </trkpt>
      <trkpt lat="48.50911" lon="7.15703">
        <ele>832.5</ele>
      </trkpt>
      <trkpt lat="48.50905" lon="7.15695">
        <ele>831.1</ele>
      </trkpt>
      <trkpt lat="48.50893" lon="7.1568">
        <ele>828.8</ele>
      </trkpt>
      <trkpt lat="48.50887" lon="7.15672">
        <ele>827.8</ele>
      </trkpt>
      <trkpt lat="48.5088" lon="7.15661">
        <ele>826.4</ele>
      </trkpt>
      <trkpt lat="48.50875" lon="7.15653">
        <ele>825.3</ele>
      </trkpt>
      <trkpt lat="48.50869" lon="7.15645">
        <ele>824.4</ele>
      </trkpt>
      <trkpt lat="48.50865" lon="7.15638">
        <ele>823.6</ele>
      </trkpt>
      <trkpt lat="48.5086" lon="7.15628">
        <ele>822.4</ele>
      </trkpt>
      <trkpt lat="48.50855" lon="7.15622">
        <ele>821.5</ele>
      </trkpt>
      <trkpt lat="48.50847" lon="7.15608">
        <ele>819.6</ele>
      </trkpt>
      <trkpt lat="48.50842" lon="7.15599">
        <ele>818.3</ele>
      </trkpt>
      <trkpt lat="48.50838" lon="7.1559">
        <ele>817</ele>
      </trkpt>
      <trkpt lat="48.50832" lon="7.1558">
        <ele>815.5</ele>
      </trkpt>
      <trkpt lat="48.50824" lon="7.1556">
        <ele>812.9</ele>
      </trkpt>
      <trkpt lat="48.50819" lon="7.15551">
        <ele>811.9</ele>
      </trkpt>
      <trkpt lat="48.50805" lon="7.1553">
        <ele>809.3</ele>
      </trkpt>
      <trkpt lat="48.50797" lon="7.15516">
        <ele>807.3</ele>
      </trkpt>
      <trkpt lat="48.50788" lon="7.15495">
        <ele>804.3</ele>
      </trkpt>
      <trkpt lat="48.50783" lon="7.15486">
        <ele>803</ele>
      </trkpt>
      <trkpt lat="48.50779" lon="7.15479">
        <ele>802</ele>
      </trkpt>
      <trkpt lat="48.50777" lon="7.15472">
        <ele>801</ele>
      </trkpt>
      <trkpt lat="48.50774" lon="7.15466">
        <ele>800.3</ele>
      </trkpt>
      <trkpt lat="48.5077" lon="7.15461">
        <ele>799.8</ele>
      </trkpt>
      <trkpt lat="48.50761" lon="7.15453">
        <ele>798.9</ele>
      </trkpt>
      <trkpt lat="48.50745" lon="7.15441">
        <ele>797.2</ele>
      </trkpt>
      <trkpt lat="48.50752" lon="7.15435">
        <ele>796.6</ele>
      </trkpt>
      <trkpt lat="48.50753" lon="7.15434">
        <ele>796.5</ele>
        <extensions>
          <visugpx:TrkExtension xmlns:visugpx="https://www.visugpx.com/editgpx/">
            <visugpx:node>4</visugpx:node>
            </visugpx:TrkExtension>
        </extensions>
      </trkpt>
      <trkpt lat="48.50752" lon="7.15435">
        <ele>796.6</ele>
      </trkpt>
      <trkpt lat="48.50745" lon="7.15441">
        <ele>797.2</ele>
      </trkpt>
      <trkpt lat="48.50739" lon="7.15436">
        <ele>796.1</ele>
      </trkpt>
      <trkpt lat="48.50734" lon="7.15433">
        <ele>795.4</ele>
      </trkpt>
      <trkpt lat="48.50727" lon="7.15431">
        <ele>794.8</ele>
      </trkpt>
      <trkpt lat="48.50721" lon="7.15431">
        <ele>794.4</ele>
      </trkpt>
      <trkpt lat="48.50715" lon="7.15431">
        <ele>793.6</ele>
      </trkpt>
      <trkpt lat="48.50709" lon="7.15433">
        <ele>793.1</ele>
      </trkpt>
      <trkpt lat="48.50703" lon="7.15435">
        <ele>792.4</ele>
      </trkpt>
      <trkpt lat="48.50696" lon="7.15439">
        <ele>791.8</ele>
      </trkpt>
      <trkpt lat="48.50694" lon="7.1544">
        <ele>791.6</ele>
      </trkpt>
      <trkpt lat="48.5069" lon="7.15442">
        <ele>791.2</ele>
      </trkpt>
      <trkpt lat="48.50685" lon="7.15443">
        <ele>790.6</ele>
      </trkpt>
      <trkpt lat="48.5068" lon="7.15443">
        <ele>789.8</ele>
      </trkpt>
      <trkpt lat="48.50673" lon="7.15438">
        <ele>788.6</ele>
      </trkpt>
      <trkpt lat="48.50666" lon="7.1543">
        <ele>787.3</ele>
      </trkpt>
      <trkpt lat="48.50659" lon="7.15421">
        <ele>785.2</ele>
      </trkpt>
      <trkpt lat="48.50655" lon="7.15412">
        <ele>783.8</ele>
      </trkpt>
      <trkpt lat="48.50652" lon="7.15404">
        <ele>782.6</ele>
      </trkpt>
      <trkpt lat="48.50649" lon="7.15394">
        <ele>781.4</ele>
      </trkpt>
      <trkpt lat="48.50646" lon="7.15381">
        <ele>780.5</ele>
      </trkpt>
      <trkpt lat="48.50643" lon="7.15367">
        <ele>779.8</ele>
      </trkpt>
      <trkpt lat="48.50642" lon="7.15355">
        <ele>779.3</ele>
      </trkpt>
      <trkpt lat="48.50641" lon="7.15325">
        <ele>777.8</ele>
      </trkpt>
      <trkpt lat="48.50641" lon="7.15316">
        <ele>777.1</ele>
      </trkpt>
      <trkpt lat="48.50642" lon="7.15305">
        <ele>776.5</ele>
      </trkpt>
      <trkpt lat="48.50643" lon="7.15297">
        <ele>776.1</ele>
      </trkpt>
      <trkpt lat="48.50647" lon="7.15276">
        <ele>775</ele>
      </trkpt>
      <trkpt lat="48.50644" lon="7.15271">
        <ele>774.2</ele>
      </trkpt>
      <trkpt lat="48.50642" lon="7.15265">
        <ele>773.5</ele>
      </trkpt>
      <trkpt lat="48.50641" lon="7.15257">
        <ele>772.8</ele>
      </trkpt>
      <trkpt lat="48.50639" lon="7.1524">
        <ele>770.9</ele>
      </trkpt>
      <trkpt lat="48.50637" lon="7.15222">
        <ele>768.8</ele>
      </trkpt>
      <trkpt lat="48.50635" lon="7.15205">
        <ele>767.3</ele>
      </trkpt>
      <trkpt lat="48.50633" lon="7.15195">
        <ele>766.2</ele>
      </trkpt>
      <trkpt lat="48.50631" lon="7.15181">
        <ele>764.9</ele>
      </trkpt>
      <trkpt lat="48.50629" lon="7.15167">
        <ele>763.6</ele>
      </trkpt>
      <trkpt lat="48.50627" lon="7.15157">
        <ele>762.2</ele>
      </trkpt>
      <trkpt lat="48.50626" lon="7.15144">
        <ele>760.7</ele>
      </trkpt>
      <trkpt lat="48.50625" lon="7.15132">
        <ele>759.1</ele>
      </trkpt>
      <trkpt lat="48.50624" lon="7.15119">
        <ele>757.4</ele>
      </trkpt>
      <trkpt lat="48.50623" lon="7.15107">
        <ele>755.7</ele>
      </trkpt>
      <trkpt lat="48.50623" lon="7.15096">
        <ele>754.1</ele>
      </trkpt>
      <trkpt lat="48.50622" lon="7.15083">
        <ele>752.1</ele>
      </trkpt>
      <trkpt lat="48.50622" lon="7.15065">
        <ele>749.7</ele>
      </trkpt>
      <trkpt lat="48.50621" lon="7.15038">
        <ele>745.8</ele>
      </trkpt>
      <trkpt lat="48.50621" lon="7.15013">
        <ele>742.2</ele>
      </trkpt>
      <trkpt lat="48.5062" lon="7.14985">
        <ele>738.2</ele>
        <extensions>
          <visugpx:TrkExtension xmlns:visugpx="https://www.visugpx.com/editgpx/">
            <visugpx:node>5</visugpx:node>
            </visugpx:TrkExtension>
        </extensions>
      </trkpt>
      <trkpt lat="48.5062" lon="7.14983">
        <ele>737.9</ele>
      </trkpt>
      <trkpt lat="48.50619" lon="7.14922">
        <ele>729.2</ele>
      </trkpt>
      <trkpt lat="48.50626" lon="7.14908">
        <ele>728.3</ele>
      </trkpt>
      <trkpt lat="48.50628" lon="7.14901">
        <ele>727.9</ele>
      </trkpt>
      <trkpt lat="48.50633" lon="7.14879">
        <ele>726.6</ele>
      </trkpt>
      <trkpt lat="48.50635" lon="7.14862">
        <ele>725.5</ele>
      </trkpt>
      <trkpt lat="48.50636" lon="7.14845">
        <ele>723.8</ele>
      </trkpt>
      <trkpt lat="48.50639" lon="7.14831">
        <ele>722.8</ele>
      </trkpt>
      <trkpt lat="48.50647" lon="7.14803">
        <ele>722</ele>
      </trkpt>
      <trkpt lat="48.50651" lon="7.14786">
        <ele>721.3</ele>
      </trkpt>
      <trkpt lat="48.50652" lon="7.14781">
        <ele>721.1</ele>
      </trkpt>
      <trkpt lat="48.50655" lon="7.14771">
        <ele>720.8</ele>
      </trkpt>
      <trkpt lat="48.50656" lon="7.14763">
        <ele>720.4</ele>
      </trkpt>
      <trkpt lat="48.50656" lon="7.14756">
        <ele>719.9</ele>
      </trkpt>
      <trkpt lat="48.50655" lon="7.14739">
        <ele>718.5</ele>
      </trkpt>
      <trkpt lat="48.50654" lon="7.1474">
        <ele>718.5</ele>
        <extensions>
          <visugpx:TrkExtension xmlns:visugpx="https://www.visugpx.com/editgpx/">
            <visugpx:node>6</visugpx:node>
            </visugpx:TrkExtension>
        </extensions>
      </trkpt>
      <trkpt lat="48.50655" lon="7.14739">
        <ele>718.5</ele>
      </trkpt>
      <trkpt lat="48.50689" lon="7.14711">
        <ele>722.2</ele>
      </trkpt>
      <trkpt lat="48.50713" lon="7.14693">
        <ele>725</ele>
      </trkpt>
      <trkpt lat="48.50718" lon="7.14688">
        <ele>725.5</ele>
      </trkpt>
      <trkpt lat="48.50722" lon="7.14681">
        <ele>726</ele>
      </trkpt>
      <trkpt lat="48.50726" lon="7.14674">
        <ele>726.5</ele>
      </trkpt>
      <trkpt lat="48.50728" lon="7.14667">
        <ele>726.8</ele>
      </trkpt>
      <trkpt lat="48.50729" lon="7.14659">
        <ele>726.9</ele>
      </trkpt>
      <trkpt lat="48.50729" lon="7.14652">
        <ele>726.8</ele>
      </trkpt>
      <trkpt lat="48.50728" lon="7.1464">
        <ele>726.6</ele>
      </trkpt>
      <trkpt lat="48.50725" lon="7.14624">
        <ele>726.8</ele>
      </trkpt>
      <trkpt lat="48.5072" lon="7.14608">
        <ele>726.9</ele>
      </trkpt>
      <trkpt lat="48.50718" lon="7.14605">
        <ele>726.8</ele>
        <extensions>
          <visugpx:TrkExtension xmlns:visugpx="https://www.visugpx.com/editgpx/">
            <visugpx:node>7</visugpx:node>
            </visugpx:TrkExtension>
        </extensions>
      </trkpt>
      <trkpt lat="48.50703" lon="7.14568">
        <ele>727.5</ele>
      </trkpt>
      <trkpt lat="48.50678" lon="7.14503">
        <ele>729.3</ele>
      </trkpt>
      <trkpt lat="48.50666" lon="7.14473">
        <ele>729.9</ele>
      </trkpt>
      <trkpt lat="48.50641" lon="7.14409">
        <ele>731.6</ele>
      </trkpt>
      <trkpt lat="48.50619" lon="7.14352">
        <ele>730.9</ele>
      </trkpt>
      <trkpt lat="48.50597" lon="7.14298">
        <ele>731.1</ele>
      </trkpt>
      <trkpt lat="48.50587" lon="7.14274">
        <ele>730.6</ele>
        <extensions>
          <visugpx:TrkExtension xmlns:visugpx="https://www.visugpx.com/editgpx/">
            <visugpx:node>8</visugpx:node>
            </visugpx:TrkExtension>
        </extensions>
      </trkpt>
      <trkpt lat="48.50592" lon="7.14224">
        <ele>734</ele>
        <time>2023-07-05T10:15:42Z</time>
        <extensions>
          <visugpx:TrkExtension xmlns:visugpx="https://www.visugpx.com/editgpx/">
            <visugpx:node>9</visugpx:node>
            </visugpx:TrkExtension>
        </extensions>
      </trkpt>
      <trkpt lat="48.50582" lon="7.14255">
        <ele>730</ele>
        <time>2023-07-05T10:15:49Z</time>
      </trkpt>
      <trkpt lat="48.50579" lon="7.14257">
        <ele>731</ele>
        <time>2023-07-05T10:15:50Z</time>
      </trkpt>
      <trkpt lat="48.50569" lon="7.14258">
        <ele>731</ele>
        <time>2023-07-05T10:15:51Z</time>
      </trkpt>
      <trkpt lat="48.50569" lon="7.14259">
        <ele>732</ele>
        <time>2023-07-05T10:16:24Z</time>
      </trkpt>
      <trkpt lat="48.50568" lon="7.14259">
        <ele>732</ele>
        <time>2023-07-05T10:16:25Z</time>
      </trkpt>
      <trkpt lat="48.50532" lon="7.14096">
        <ele>731</ele>
        <time>2023-07-05T10:18:18Z</time>
      </trkpt>
      <trkpt lat="48.50538" lon="7.14044">
        <ele>731</ele>
        <time>2023-07-05T10:18:47Z</time>
      </trkpt>
      <trkpt lat="48.50537" lon="7.14009">
        <ele>733</ele>
        <time>2023-07-05T10:19:06Z</time>
      </trkpt>
      <trkpt lat="48.50536" lon="7.14002">
        <ele>734</ele>
        <time>2023-07-05T10:19:10Z</time>
      </trkpt>
      <trkpt lat="48.50537" lon="7.13995">
        <ele>734</ele>
        <time>2023-07-05T10:19:14Z</time>
      </trkpt>
      <trkpt lat="48.50534" lon="7.13988">
        <ele>734</ele>
        <time>2023-07-05T10:19:18Z</time>
      </trkpt>
      <trkpt lat="48.5053" lon="7.13984">
        <ele>735</ele>
        <time>2023-07-05T10:19:21Z</time>
      </trkpt>
      <trkpt lat="48.50526" lon="7.13981">
        <ele>735</ele>
        <time>2023-07-05T10:19:25Z</time>
      </trkpt>
      <trkpt lat="48.50523" lon="7.13976">
        <ele>736</ele>
        <time>2023-07-05T10:19:32Z</time>
      </trkpt>
      <trkpt lat="48.50518" lon="7.1398">
        <ele>736</ele>
        <time>2023-07-05T10:20:04Z</time>
      </trkpt>
      <trkpt lat="48.50512" lon="7.13982">
        <ele>736</ele>
        <time>2023-07-05T10:20:08Z</time>
      </trkpt>
      <trkpt lat="48.50503" lon="7.13981">
        <ele>737</ele>
        <time>2023-07-05T10:20:16Z</time>
      </trkpt>
      <trkpt lat="48.50492" lon="7.13976">
        <ele>738</ele>
        <time>2023-07-05T10:20:30Z</time>
      </trkpt>
      <trkpt lat="48.50479" lon="7.13974">
        <ele>739</ele>
        <time>2023-07-05T10:20:43Z</time>
      </trkpt>
      <trkpt lat="48.50472" lon="7.13974">
        <ele>740</ele>
        <time>2023-07-05T10:20:53Z</time>
      </trkpt>
      <trkpt lat="48.50469" lon="7.13947">
        <ele>742</ele>
        <time>2023-07-05T10:21:16Z</time>
      </trkpt>
      <trkpt lat="48.50469" lon="7.13929">
        <ele>743</ele>
        <time>2023-07-05T10:21:28Z</time>
      </trkpt>
      <trkpt lat="48.50468" lon="7.13922">
        <ele>743</ele>
        <time>2023-07-05T10:21:32Z</time>
      </trkpt>
      <trkpt lat="48.50468" lon="7.13915">
        <ele>743</ele>
        <time>2023-07-05T10:21:36Z</time>
      </trkpt>
      <trkpt lat="48.50467" lon="7.13909">
        <ele>743</ele>
        <time>2023-07-05T10:21:39Z</time>
      </trkpt>
      <trkpt lat="48.50464" lon="7.139">
        <ele>744</ele>
        <time>2023-07-05T10:21:46Z</time>
      </trkpt>
      <trkpt lat="48.50461" lon="7.13895">
        <ele>745</ele>
        <time>2023-07-05T10:21:50Z</time>
      </trkpt>
      <trkpt lat="48.50459" lon="7.13888">
        <ele>745</ele>
        <time>2023-07-05T10:21:54Z</time>
      </trkpt>
      <trkpt lat="48.50458" lon="7.13878">
        <ele>746</ele>
        <time>2023-07-05T10:22:00Z</time>
      </trkpt>
      <trkpt lat="48.50451" lon="7.13869">
        <ele>747</ele>
        <time>2023-07-05T10:22:08Z</time>
      </trkpt>
      <trkpt lat="48.50452" lon="7.13861">
        <ele>747</ele>
        <time>2023-07-05T10:22:12Z</time>
      </trkpt>
      <trkpt lat="48.50449" lon="7.13854">
        <ele>747</ele>
        <time>2023-07-05T10:22:16Z</time>
      </trkpt>
      <trkpt lat="48.50442" lon="7.13841">
        <ele>748</ele>
        <time>2023-07-05T10:22:25Z</time>
      </trkpt>
      <trkpt lat="48.50441" lon="7.13834">
        <ele>748</ele>
        <time>2023-07-05T10:22:30Z</time>
      </trkpt>
      <trkpt lat="48.50436" lon="7.1382">
        <ele>749</ele>
        <time>2023-07-05T10:22:38Z</time>
      </trkpt>
      <trkpt lat="48.50432" lon="7.13815">
        <ele>749</ele>
        <time>2023-07-05T10:22:42Z</time>
      </trkpt>
      <trkpt lat="48.50427" lon="7.13802">
        <ele>749</ele>
        <time>2023-07-05T10:22:52Z</time>
      </trkpt>
      <trkpt lat="48.50423" lon="7.13795">
        <ele>749</ele>
        <time>2023-07-05T10:23:08Z</time>
      </trkpt>
      <trkpt lat="48.50419" lon="7.13782">
        <ele>751</ele>
        <time>2023-07-05T10:23:27Z</time>
      </trkpt>
      <trkpt lat="48.50418" lon="7.13774">
        <ele>751</ele>
        <time>2023-07-05T10:23:31Z</time>
      </trkpt>
      <trkpt lat="48.50416" lon="7.13767">
        <ele>751</ele>
        <time>2023-07-05T10:23:36Z</time>
      </trkpt>
      <trkpt lat="48.50414" lon="7.1376">
        <ele>751</ele>
        <time>2023-07-05T10:23:40Z</time>
      </trkpt>
      <trkpt lat="48.50414" lon="7.13752">
        <ele>751</ele>
        <time>2023-07-05T10:23:44Z</time>
      </trkpt>
      <trkpt lat="48.50411" lon="7.13746">
        <ele>751</ele>
        <time>2023-07-05T10:23:48Z</time>
      </trkpt>
      <trkpt lat="48.50399" lon="7.13702">
        <ele>751</ele>
        <time>2023-07-05T10:24:13Z</time>
      </trkpt>
      <trkpt lat="48.5039" lon="7.13693">
        <ele>751</ele>
        <time>2023-07-05T10:24:19Z</time>
      </trkpt>
      <trkpt lat="48.50381" lon="7.13687">
        <ele>752</ele>
        <time>2023-07-05T10:24:26Z</time>
      </trkpt>
      <trkpt lat="48.50377" lon="7.13685">
        <ele>752</ele>
        <time>2023-07-05T10:24:30Z</time>
      </trkpt>
      <trkpt lat="48.50375" lon="7.13674">
        <ele>752</ele>
        <time>2023-07-05T10:24:38Z</time>
      </trkpt>
      <trkpt lat="48.5037" lon="7.13671">
        <ele>752</ele>
        <time>2023-07-05T10:24:41Z</time>
      </trkpt>
      <trkpt lat="48.50361" lon="7.13664">
        <ele>752</ele>
        <time>2023-07-05T10:24:49Z</time>
      </trkpt>
      <trkpt lat="48.50352" lon="7.13668">
        <ele>751</ele>
        <time>2023-07-05T10:25:00Z</time>
      </trkpt>
      <trkpt lat="48.50345" lon="7.13672">
        <ele>750</ele>
        <time>2023-07-05T10:26:17Z</time>
      </trkpt>
      <trkpt lat="48.50338" lon="7.13675">
        <ele>752</ele>
        <time>2023-07-05T10:26:28Z</time>
      </trkpt>
      <trkpt lat="48.50328" lon="7.13677">
        <ele>754</ele>
        <time>2023-07-05T10:26:39Z</time>
      </trkpt>
      <trkpt lat="48.50326" lon="7.1368">
        <ele>754</ele>
        <time>2023-07-05T10:26:47Z</time>
      </trkpt>
      <trkpt lat="48.5029" lon="7.1367">
        <ele>755</ele>
        <time>2023-07-05T10:27:18Z</time>
      </trkpt>
      <trkpt lat="48.50285" lon="7.13669">
        <ele>755</ele>
        <time>2023-07-05T10:27:22Z</time>
      </trkpt>
      <trkpt lat="48.50281" lon="7.13666">
        <ele>755</ele>
        <time>2023-07-05T10:27:25Z</time>
      </trkpt>
      <trkpt lat="48.50275" lon="7.13665">
        <ele>755</ele>
        <time>2023-07-05T10:27:30Z</time>
      </trkpt>
      <trkpt lat="48.50268" lon="7.13653">
        <ele>754</ele>
        <time>2023-07-05T10:27:40Z</time>
      </trkpt>
      <trkpt lat="48.50258" lon="7.13643">
        <ele>754</ele>
        <time>2023-07-05T10:27:50Z</time>
      </trkpt>
      <trkpt lat="48.50254" lon="7.13638">
        <ele>753</ele>
        <time>2023-07-05T10:27:54Z</time>
      </trkpt>
      <trkpt lat="48.50242" lon="7.13629">
        <ele>753</ele>
        <time>2023-07-05T10:28:05Z</time>
      </trkpt>
      <trkpt lat="48.50231" lon="7.1363">
        <ele>753</ele>
        <time>2023-07-05T10:28:12Z</time>
      </trkpt>
      <trkpt lat="48.50221" lon="7.13625">
        <ele>753</ele>
        <time>2023-07-05T10:28:23Z</time>
      </trkpt>
      <trkpt lat="48.50216" lon="7.13625">
        <ele>753</ele>
        <time>2023-07-05T10:28:26Z</time>
      </trkpt>
      <trkpt lat="48.50209" lon="7.13619">
        <ele>753</ele>
        <time>2023-07-05T10:28:33Z</time>
      </trkpt>
      <trkpt lat="48.50211" lon="7.13611">
        <ele>753</ele>
        <time>2023-07-05T10:28:38Z</time>
      </trkpt>
      <trkpt lat="48.50226" lon="7.13582">
        <ele>750</ele>
        <time>2023-07-05T10:28:58Z</time>
      </trkpt>
      <trkpt lat="48.5023" lon="7.13561">
        <ele>749</ele>
        <time>2023-07-05T10:29:11Z</time>
      </trkpt>
      <trkpt lat="48.50224" lon="7.13557">
        <ele>748</ele>
        <time>2023-07-05T10:29:17Z</time>
      </trkpt>
      <trkpt lat="48.50201" lon="7.13562">
        <ele>750</ele>
        <time>2023-07-05T10:29:35Z</time>
      </trkpt>
      <trkpt lat="48.50191" lon="7.13567">
        <ele>750</ele>
        <time>2023-07-05T10:29:43Z</time>
      </trkpt>
      <trkpt lat="48.50185" lon="7.13569">
        <ele>751</ele>
        <time>2023-07-05T10:29:52Z</time>
      </trkpt>
      <trkpt lat="48.50172" lon="7.13565">
        <ele>751</ele>
        <time>2023-07-05T10:30:03Z</time>
      </trkpt>
      <trkpt lat="48.50168" lon="7.13563">
        <ele>751</ele>
        <time>2023-07-05T10:30:07Z</time>
      </trkpt>
      <trkpt lat="48.50158" lon="7.13565">
        <ele>751</ele>
        <time>2023-07-05T10:30:17Z</time>
      </trkpt>
      <trkpt lat="48.50154" lon="7.1357">
        <ele>751</ele>
        <time>2023-07-05T10:30:20Z</time>
      </trkpt>
      <trkpt lat="48.5015" lon="7.13573">
        <ele>751</ele>
        <time>2023-07-05T10:30:23Z</time>
      </trkpt>
      <trkpt lat="48.50144" lon="7.13578">
        <ele>752</ele>
        <time>2023-07-05T10:30:33Z</time>
      </trkpt>
      <trkpt lat="48.5014" lon="7.13582">
        <ele>752</ele>
        <time>2023-07-05T10:30:37Z</time>
      </trkpt>
      <trkpt lat="48.50137" lon="7.13589">
        <ele>752</ele>
        <time>2023-07-05T10:30:41Z</time>
      </trkpt>
      <trkpt lat="48.50133" lon="7.13591">
        <ele>752</ele>
        <time>2023-07-05T10:30:44Z</time>
      </trkpt>
      <trkpt lat="48.50125" lon="7.13603">
        <ele>754</ele>
        <time>2023-07-05T10:30:55Z</time>
      </trkpt>
      <trkpt lat="48.50126" lon="7.13609">
        <ele>755</ele>
        <time>2023-07-05T10:30:59Z</time>
      </trkpt>
      <trkpt lat="48.50128" lon="7.13615">
        <ele>756</ele>
        <time>2023-07-05T10:31:09Z</time>
      </trkpt>
      <trkpt lat="48.5013" lon="7.13625">
        <ele>756</ele>
        <time>2023-07-05T10:31:19Z</time>
      </trkpt>
      <trkpt lat="48.50132" lon="7.13631">
        <ele>756</ele>
        <time>2023-07-05T10:31:44Z</time>
      </trkpt>
      <trkpt lat="48.50135" lon="7.13636">
        <ele>756</ele>
        <time>2023-07-05T10:31:54Z</time>
      </trkpt>
      <trkpt lat="48.50141" lon="7.13638">
        <ele>756</ele>
        <time>2023-07-05T10:32:18Z</time>
      </trkpt>
      <trkpt lat="48.50142" lon="7.13646">
        <ele>757</ele>
        <time>2023-07-05T10:32:33Z</time>
      </trkpt>
      <trkpt lat="48.50146" lon="7.13653">
        <ele>757</ele>
        <time>2023-07-05T10:32:38Z</time>
      </trkpt>
      <trkpt lat="48.50144" lon="7.13661">
        <ele>757</ele>
        <time>2023-07-05T10:32:46Z</time>
      </trkpt>
      <trkpt lat="48.50144" lon="7.13669">
        <ele>758</ele>
        <time>2023-07-05T10:32:57Z</time>
      </trkpt>
      <trkpt lat="48.50139" lon="7.13667">
        <ele>758</ele>
        <time>2023-07-05T10:33:12Z</time>
      </trkpt>
      <trkpt lat="48.50144" lon="7.13661">
        <ele>757</ele>
        <time>2023-07-05T10:33:22Z</time>
      </trkpt>
      <trkpt lat="48.50146" lon="7.13654">
        <ele>757</ele>
        <time>2023-07-05T10:33:26Z</time>
      </trkpt>
      <trkpt lat="48.50147" lon="7.13646">
        <ele>756</ele>
        <time>2023-07-05T10:33:30Z</time>
      </trkpt>
      <trkpt lat="48.50144" lon="7.13637">
        <ele>756</ele>
        <time>2023-07-05T10:33:36Z</time>
      </trkpt>
      <trkpt lat="48.5014" lon="7.13631">
        <ele>756</ele>
        <time>2023-07-05T10:33:40Z</time>
      </trkpt>
      <trkpt lat="48.50135" lon="7.13628">
        <ele>756</ele>
        <time>2023-07-05T10:33:43Z</time>
      </trkpt>
      <trkpt lat="48.50132" lon="7.13622">
        <ele>755</ele>
        <time>2023-07-05T10:33:48Z</time>
      </trkpt>
      <trkpt lat="48.50131" lon="7.13612">
        <ele>754</ele>
        <time>2023-07-05T10:33:57Z</time>
      </trkpt>
      <trkpt lat="48.50135" lon="7.13605">
        <ele>754</ele>
        <time>2023-07-05T10:34:01Z</time>
      </trkpt>
      <trkpt lat="48.50137" lon="7.13599">
        <ele>753</ele>
        <time>2023-07-05T10:34:04Z</time>
      </trkpt>
      <trkpt lat="48.50137" lon="7.13589">
        <ele>752</ele>
        <time>2023-07-05T10:34:11Z</time>
      </trkpt>
      <trkpt lat="48.50135" lon="7.13582">
        <ele>752</ele>
        <time>2023-07-05T10:34:14Z</time>
      </trkpt>
      <trkpt lat="48.50128" lon="7.13575">
        <ele>751</ele>
        <time>2023-07-05T10:34:19Z</time>
      </trkpt>
      <trkpt lat="48.50119" lon="7.13573">
        <ele>751</ele>
        <time>2023-07-05T10:34:24Z</time>
      </trkpt>
      <trkpt lat="48.50114" lon="7.13574">
        <ele>751</ele>
        <time>2023-07-05T10:34:28Z</time>
      </trkpt>
      <trkpt lat="48.5011" lon="7.13577">
        <ele>752</ele>
        <time>2023-07-05T10:34:32Z</time>
      </trkpt>
      <trkpt lat="48.50105" lon="7.13574">
        <ele>752</ele>
        <time>2023-07-05T10:34:41Z</time>
      </trkpt>
      <trkpt lat="48.50096" lon="7.13572">
        <ele>752</ele>
        <time>2023-07-05T10:34:48Z</time>
      </trkpt>
      <trkpt lat="48.50089" lon="7.13573">
        <ele>751</ele>
        <time>2023-07-05T10:34:54Z</time>
      </trkpt>
      <trkpt lat="48.50077" lon="7.13565">
        <ele>751</ele>
        <time>2023-07-05T10:35:04Z</time>
      </trkpt>
      <trkpt lat="48.50074" lon="7.13564">
        <ele>751</ele>
        <time>2023-07-05T10:35:29Z</time>
      </trkpt>
      <trkpt lat="48.50067" lon="7.1357">
        <ele>751</ele>
        <time>2023-07-05T10:35:37Z</time>
      </trkpt>
      <trkpt lat="48.50055" lon="7.13572">
        <ele>751</ele>
        <time>2023-07-05T10:35:48Z</time>
      </trkpt>
      <trkpt lat="48.50047" lon="7.13566">
        <ele>751</ele>
        <time>2023-07-05T10:35:55Z</time>
      </trkpt>
      <trkpt lat="48.50033" lon="7.13565">
        <ele>752</ele>
        <time>2023-07-05T10:36:08Z</time>
      </trkpt>
      <trkpt lat="48.50028" lon="7.13568">
        <ele>752</ele>
        <time>2023-07-05T10:36:13Z</time>
      </trkpt>
      <trkpt lat="48.50016" lon="7.13571">
        <ele>753</ele>
        <time>2023-07-05T10:36:22Z</time>
      </trkpt>
      <trkpt lat="48.50009" lon="7.13567">
        <ele>752</ele>
        <time>2023-07-05T10:36:28Z</time>
      </trkpt>
      <trkpt lat="48.50007" lon="7.13561">
        <ele>752</ele>
        <time>2023-07-05T10:36:31Z</time>
      </trkpt>
      <trkpt lat="48.5" lon="7.13564">
        <ele>752</ele>
        <time>2023-07-05T10:36:36Z</time>
      </trkpt>
      <trkpt lat="48.49985" lon="7.13559">
        <ele>751</ele>
        <time>2023-07-05T10:36:49Z</time>
      </trkpt>
      <trkpt lat="48.4998" lon="7.13562">
        <ele>751</ele>
        <time>2023-07-05T10:36:53Z</time>
      </trkpt>
      <trkpt lat="48.49977" lon="7.13567">
        <ele>751</ele>
        <time>2023-07-05T10:36:56Z</time>
      </trkpt>
      <trkpt lat="48.4997" lon="7.13572">
        <ele>752</ele>
        <time>2023-07-05T10:37:07Z</time>
      </trkpt>
      <trkpt lat="48.49966" lon="7.13571">
        <ele>752</ele>
        <time>2023-07-05T10:37:19Z</time>
      </trkpt>
      <trkpt lat="48.49955" lon="7.13577">
        <ele>752</ele>
        <time>2023-07-05T10:37:25Z</time>
      </trkpt>
      <trkpt lat="48.49951" lon="7.13587">
        <ele>753</ele>
        <time>2023-07-05T10:37:34Z</time>
      </trkpt>
      <trkpt lat="48.49941" lon="7.13594">
        <ele>754</ele>
        <time>2023-07-05T10:37:44Z</time>
      </trkpt>
      <trkpt lat="48.4994" lon="7.13602">
        <ele>754</ele>
        <time>2023-07-05T10:37:48Z</time>
      </trkpt>
      <trkpt lat="48.4993" lon="7.1361">
        <ele>755</ele>
        <time>2023-07-05T10:38:01Z</time>
      </trkpt>
      <trkpt lat="48.49922" lon="7.13611">
        <ele>755</ele>
        <time>2023-07-05T10:38:08Z</time>
      </trkpt>
      <trkpt lat="48.49918" lon="7.13609">
        <ele>755</ele>
        <time>2023-07-05T10:38:11Z</time>
      </trkpt>
      <trkpt lat="48.49913" lon="7.1361">
        <ele>755</ele>
        <time>2023-07-05T10:38:14Z</time>
      </trkpt>
      <trkpt lat="48.49897" lon="7.13605">
        <ele>755</ele>
        <time>2023-07-05T10:38:29Z</time>
      </trkpt>
      <trkpt lat="48.49887" lon="7.13604">
        <ele>755</ele>
        <time>2023-07-05T10:38:38Z</time>
      </trkpt>
      <trkpt lat="48.49884" lon="7.136">
        <ele>753</ele>
        <time>2023-07-05T10:38:55Z</time>
      </trkpt>
      <trkpt lat="48.49882" lon="7.13602">
        <ele>754</ele>
        <time>2023-07-05T10:43:07Z</time>
      </trkpt>
      <trkpt lat="48.49875" lon="7.136">
        <ele>754</ele>
        <time>2023-07-05T10:43:29Z</time>
      </trkpt>
      <trkpt lat="48.49875" lon="7.13593">
        <ele>754</ele>
        <time>2023-07-05T10:43:59Z</time>
      </trkpt>
      <trkpt lat="48.49878" lon="7.13595">
        <ele>755</ele>
        <time>2023-07-05T10:46:25Z</time>
      </trkpt>
      <trkpt lat="48.49877" lon="7.13594">
        <ele>751</ele>
        <time>2023-07-05T11:14:42Z</time>
      </trkpt>
      <trkpt lat="48.49876" lon="7.13592">
        <ele>752</ele>
        <time>2023-07-05T11:17:37Z</time>
      </trkpt>
      <trkpt lat="48.49874" lon="7.13608">
        <ele>754</ele>
        <time>2023-07-05T11:17:57Z</time>
      </trkpt>
      <trkpt lat="48.49868" lon="7.13607">
        <ele>754</ele>
        <time>2023-07-05T11:18:04Z</time>
      </trkpt>
      <trkpt lat="48.49862" lon="7.13604">
        <ele>754</ele>
        <time>2023-07-05T11:18:10Z</time>
      </trkpt>
      <trkpt lat="48.49853" lon="7.13604">
        <ele>753</ele>
        <time>2023-07-05T11:18:17Z</time>
      </trkpt>
      <trkpt lat="48.49846" lon="7.13606">
        <ele>753</ele>
        <time>2023-07-05T11:18:23Z</time>
      </trkpt>
      <trkpt lat="48.49837" lon="7.13611">
        <ele>753</ele>
        <time>2023-07-05T11:18:31Z</time>
      </trkpt>
      <trkpt lat="48.49833" lon="7.13615">
        <ele>753</ele>
        <time>2023-07-05T11:18:36Z</time>
      </trkpt>
      <trkpt lat="48.49825" lon="7.13619">
        <ele>752</ele>
        <time>2023-07-05T11:18:49Z</time>
      </trkpt>
      <trkpt lat="48.49819" lon="7.1362">
        <ele>752</ele>
        <time>2023-07-05T11:18:54Z</time>
      </trkpt>
      <trkpt lat="48.49806" lon="7.13613">
        <ele>751</ele>
        <time>2023-07-05T11:19:06Z</time>
      </trkpt>
      <trkpt lat="48.49801" lon="7.13615">
        <ele>751</ele>
        <time>2023-07-05T11:19:10Z</time>
      </trkpt>
      <trkpt lat="48.49797" lon="7.13618">
        <ele>752</ele>
        <time>2023-07-05T11:19:14Z</time>
      </trkpt>
      <trkpt lat="48.49791" lon="7.13621">
        <ele>752</ele>
        <time>2023-07-05T11:19:19Z</time>
      </trkpt>
      <trkpt lat="48.49785" lon="7.1362">
        <ele>752</ele>
        <time>2023-07-05T11:19:24Z</time>
      </trkpt>
      <trkpt lat="48.4978" lon="7.13621">
        <ele>752</ele>
        <time>2023-07-05T11:19:28Z</time>
      </trkpt>
      <trkpt lat="48.49762" lon="7.13619">
        <ele>754</ele>
        <time>2023-07-05T11:19:44Z</time>
      </trkpt>
      <trkpt lat="48.49758" lon="7.13614">
        <ele>754</ele>
        <time>2023-07-05T11:19:52Z</time>
      </trkpt>
      <trkpt lat="48.49742" lon="7.1361">
        <ele>754</ele>
        <time>2023-07-05T11:20:01Z</time>
      </trkpt>
      <trkpt lat="48.49736" lon="7.13604">
        <ele>754</ele>
        <time>2023-07-05T11:20:08Z</time>
      </trkpt>
      <trkpt lat="48.49731" lon="7.136">
        <ele>754</ele>
        <time>2023-07-05T11:20:13Z</time>
      </trkpt>
      <trkpt lat="48.49709" lon="7.13583">
        <ele>755</ele>
        <time>2023-07-05T11:20:33Z</time>
      </trkpt>
      <trkpt lat="48.49701" lon="7.13574">
        <ele>755</ele>
        <time>2023-07-05T11:20:43Z</time>
      </trkpt>
      <trkpt lat="48.49686" lon="7.13565">
        <ele>755</ele>
        <time>2023-07-05T11:20:54Z</time>
      </trkpt>
      <trkpt lat="48.49663" lon="7.13547">
        <ele>755</ele>
        <time>2023-07-05T11:21:17Z</time>
      </trkpt>
      <trkpt lat="48.49657" lon="7.1355">
        <ele>756</ele>
        <time>2023-07-05T11:21:30Z</time>
      </trkpt>
      <trkpt lat="48.49652" lon="7.13546">
        <ele>756</ele>
        <time>2023-07-05T11:21:47Z</time>
      </trkpt>
      <trkpt lat="48.49649" lon="7.13541">
        <ele>756</ele>
        <time>2023-07-05T11:21:51Z</time>
      </trkpt>
      <trkpt lat="48.49645" lon="7.13533">
        <ele>757</ele>
        <time>2023-07-05T11:21:56Z</time>
      </trkpt>
      <trkpt lat="48.49634" lon="7.13524">
        <ele>757</ele>
        <time>2023-07-05T11:22:06Z</time>
      </trkpt>
      <trkpt lat="48.49622" lon="7.13521">
        <ele>758</ele>
        <time>2023-07-05T11:22:16Z</time>
      </trkpt>
      <trkpt lat="48.49617" lon="7.13521">
        <ele>758</ele>
        <time>2023-07-05T11:22:19Z</time>
      </trkpt>
      <trkpt lat="48.49604" lon="7.13516">
        <ele>759</ele>
        <time>2023-07-05T11:22:28Z</time>
      </trkpt>
      <trkpt lat="48.49597" lon="7.13515">
        <ele>759</ele>
        <time>2023-07-05T11:22:35Z</time>
      </trkpt>
      <trkpt lat="48.49595" lon="7.13521">
        <ele>759</ele>
        <time>2023-07-05T11:22:38Z</time>
      </trkpt>
      <trkpt lat="48.49585" lon="7.13525">
        <ele>759</ele>
        <time>2023-07-05T11:22:45Z</time>
      </trkpt>
      <trkpt lat="48.49582" lon="7.13528">
        <ele>759</ele>
        <time>2023-07-05T11:24:50Z</time>
      </trkpt>
      <trkpt lat="48.49578" lon="7.13526">
        <ele>759</ele>
        <time>2023-07-05T11:25:16Z</time>
      </trkpt>
      <trkpt lat="48.49573" lon="7.13525">
        <ele>759</ele>
        <time>2023-07-05T11:25:36Z</time>
      </trkpt>
      <trkpt lat="48.49568" lon="7.1352">
        <ele>759</ele>
        <time>2023-07-05T11:25:41Z</time>
      </trkpt>
      <trkpt lat="48.49559" lon="7.13503">
        <ele>758</ele>
        <time>2023-07-05T11:25:51Z</time>
      </trkpt>
      <trkpt lat="48.49558" lon="7.13497">
        <ele>758</ele>
        <time>2023-07-05T11:25:56Z</time>
      </trkpt>
      <trkpt lat="48.4955" lon="7.1349">
        <ele>758</ele>
        <time>2023-07-05T11:26:01Z</time>
      </trkpt>
      <trkpt lat="48.49538" lon="7.13488">
        <ele>757</ele>
        <time>2023-07-05T11:26:06Z</time>
      </trkpt>
      <trkpt lat="48.4953" lon="7.13485">
        <ele>757</ele>
        <time>2023-07-05T11:26:14Z</time>
      </trkpt>
      <trkpt lat="48.49521" lon="7.13482">
        <ele>757</ele>
        <time>2023-07-05T11:26:22Z</time>
      </trkpt>
      <trkpt lat="48.49516" lon="7.13476">
        <ele>756</ele>
        <time>2023-07-05T11:26:27Z</time>
      </trkpt>
      <trkpt lat="48.49517" lon="7.13469">
        <ele>756</ele>
        <time>2023-07-05T11:26:32Z</time>
      </trkpt>
      <trkpt lat="48.49521" lon="7.13455">
        <ele>757</ele>
        <time>2023-07-05T11:26:42Z</time>
      </trkpt>
      <trkpt lat="48.49522" lon="7.13448">
        <ele>757</ele>
        <time>2023-07-05T11:26:46Z</time>
      </trkpt>
      <trkpt lat="48.4952" lon="7.13433">
        <ele>757</ele>
        <time>2023-07-05T11:26:53Z</time>
      </trkpt>
      <trkpt lat="48.49507" lon="7.13409">
        <ele>757</ele>
        <time>2023-07-05T11:27:06Z</time>
      </trkpt>
      <trkpt lat="48.49503" lon="7.13406">
        <ele>757</ele>
        <time>2023-07-05T11:27:09Z</time>
      </trkpt>
      <trkpt lat="48.49499" lon="7.134">
        <ele>756</ele>
        <time>2023-07-05T11:27:13Z</time>
      </trkpt>
      <trkpt lat="48.49495" lon="7.13396">
        <ele>756</ele>
        <time>2023-07-05T11:27:16Z</time>
      </trkpt>
      <trkpt lat="48.49488" lon="7.13386">
        <ele>756</ele>
        <time>2023-07-05T11:27:25Z</time>
      </trkpt>
      <trkpt lat="48.49483" lon="7.13381">
        <ele>756</ele>
        <time>2023-07-05T11:27:29Z</time>
      </trkpt>
      <trkpt lat="48.49478" lon="7.13382">
        <ele>756</ele>
        <time>2023-07-05T11:27:33Z</time>
      </trkpt>
      <trkpt lat="48.49474" lon="7.13383">
        <ele>756</ele>
        <time>2023-07-05T11:27:37Z</time>
      </trkpt>
      <trkpt lat="48.49469" lon="7.13381">
        <ele>756</ele>
        <time>2023-07-05T11:27:41Z</time>
      </trkpt>
      <trkpt lat="48.49464" lon="7.13379">
        <ele>755</ele>
        <time>2023-07-05T11:27:53Z</time>
      </trkpt>
      <trkpt lat="48.49461" lon="7.13384">
        <ele>753</ele>
        <time>2023-07-05T11:28:03Z</time>
      </trkpt>
      <trkpt lat="48.49466" lon="7.13389">
        <ele>753</ele>
        <time>2023-07-05T11:28:23Z</time>
      </trkpt>
      <trkpt lat="48.49466" lon="7.1338">
        <ele>754</ele>
        <time>2023-07-05T11:28:28Z</time>
      </trkpt>
      <trkpt lat="48.49461" lon="7.13368">
        <ele>755</ele>
        <time>2023-07-05T11:28:36Z</time>
      </trkpt>
      <trkpt lat="48.49459" lon="7.13359">
        <ele>755</ele>
        <time>2023-07-05T11:28:43Z</time>
      </trkpt>
      <trkpt lat="48.49457" lon="7.13354">
        <ele>755</ele>
        <time>2023-07-05T11:28:48Z</time>
      </trkpt>
      <trkpt lat="48.49451" lon="7.13352">
        <ele>755</ele>
        <time>2023-07-05T11:28:52Z</time>
      </trkpt>
      <trkpt lat="48.49445" lon="7.13342">
        <ele>755</ele>
        <time>2023-07-05T11:29:00Z</time>
      </trkpt>
      <trkpt lat="48.49441" lon="7.13327">
        <ele>756</ele>
        <time>2023-07-05T11:29:10Z</time>
      </trkpt>
      <trkpt lat="48.49433" lon="7.13319">
        <ele>756</ele>
        <time>2023-07-05T11:29:17Z</time>
      </trkpt>
      <trkpt lat="48.49429" lon="7.13316">
        <ele>756</ele>
        <time>2023-07-05T11:29:21Z</time>
      </trkpt>
      <trkpt lat="48.49423" lon="7.13301">
        <ele>755</ele>
        <time>2023-07-05T11:29:37Z</time>
      </trkpt>
      <trkpt lat="48.49415" lon="7.13299">
        <ele>755</ele>
        <time>2023-07-05T11:29:41Z</time>
      </trkpt>
      <trkpt lat="48.49395" lon="7.13304">
        <ele>754</ele>
        <time>2023-07-05T11:29:55Z</time>
      </trkpt>
      <trkpt lat="48.49391" lon="7.133">
        <ele>754</ele>
        <time>2023-07-05T11:29:59Z</time>
      </trkpt>
      <trkpt lat="48.49383" lon="7.13288">
        <ele>754</ele>
        <time>2023-07-05T11:30:05Z</time>
      </trkpt>
      <trkpt lat="48.49376" lon="7.13282">
        <ele>754</ele>
        <time>2023-07-05T11:30:12Z</time>
      </trkpt>
      <trkpt lat="48.49368" lon="7.13272">
        <ele>753</ele>
        <time>2023-07-05T11:30:21Z</time>
      </trkpt>
      <trkpt lat="48.49362" lon="7.13263">
        <ele>753</ele>
        <time>2023-07-05T11:30:29Z</time>
      </trkpt>
      <trkpt lat="48.49359" lon="7.13257">
        <ele>753</ele>
        <time>2023-07-05T11:30:34Z</time>
      </trkpt>
      <trkpt lat="48.49358" lon="7.13251">
        <ele>753</ele>
        <time>2023-07-05T11:30:38Z</time>
      </trkpt>
      <trkpt lat="48.49358" lon="7.13244">
        <ele>753</ele>
        <time>2023-07-05T11:30:42Z</time>
      </trkpt>
      <trkpt lat="48.49361" lon="7.13237">
        <ele>753</ele>
        <time>2023-07-05T11:30:47Z</time>
      </trkpt>
      <trkpt lat="48.49362" lon="7.1323">
        <ele>754</ele>
        <time>2023-07-05T11:30:51Z</time>
      </trkpt>
      <trkpt lat="48.49362" lon="7.13215">
        <ele>755</ele>
        <time>2023-07-05T11:31:00Z</time>
      </trkpt>
      <trkpt lat="48.49362" lon="7.13208">
        <ele>755</ele>
        <time>2023-07-05T11:31:04Z</time>
      </trkpt>
      <trkpt lat="48.49362" lon="7.13201">
        <ele>756</ele>
        <time>2023-07-05T11:31:09Z</time>
      </trkpt>
      <trkpt lat="48.49359" lon="7.13185">
        <ele>757</ele>
        <time>2023-07-05T11:31:18Z</time>
      </trkpt>
      <trkpt lat="48.49358" lon="7.13177">
        <ele>757</ele>
        <time>2023-07-05T11:31:22Z</time>
      </trkpt>
      <trkpt lat="48.49355" lon="7.13163">
        <ele>757</ele>
        <time>2023-07-05T11:31:30Z</time>
      </trkpt>
      <trkpt lat="48.49354" lon="7.13156">
        <ele>757</ele>
        <time>2023-07-05T11:31:35Z</time>
      </trkpt>
      <trkpt lat="48.49357" lon="7.13147">
        <ele>758</ele>
        <time>2023-07-05T11:31:43Z</time>
      </trkpt>
      <trkpt lat="48.49353" lon="7.13141">
        <ele>758</ele>
        <time>2023-07-05T11:31:59Z</time>
      </trkpt>
      <trkpt lat="48.49353" lon="7.13134">
        <ele>758</ele>
        <time>2023-07-05T11:32:12Z</time>
      </trkpt>
      <trkpt lat="48.49348" lon="7.13131">
        <ele>758</ele>
        <time>2023-07-05T11:32:15Z</time>
      </trkpt>
      <trkpt lat="48.49345" lon="7.13125">
        <ele>758</ele>
        <time>2023-07-05T11:32:19Z</time>
      </trkpt>
      <trkpt lat="48.49339" lon="7.13104">
        <ele>758</ele>
        <time>2023-07-05T11:32:32Z</time>
      </trkpt>
      <trkpt lat="48.49335" lon="7.13091">
        <ele>758</ele>
        <time>2023-07-05T11:32:40Z</time>
      </trkpt>
      <trkpt lat="48.49333" lon="7.13084">
        <ele>758</ele>
        <time>2023-07-05T11:32:44Z</time>
      </trkpt>
      <trkpt lat="48.49322" lon="7.13046">
        <ele>758</ele>
        <time>2023-07-05T11:33:07Z</time>
      </trkpt>
      <trkpt lat="48.49316" lon="7.13035">
        <ele>759</ele>
        <time>2023-07-05T11:33:14Z</time>
      </trkpt>
      <trkpt lat="48.49282" lon="7.12992">
        <ele>761</ele>
        <time>2023-07-05T11:33:48Z</time>
      </trkpt>
      <trkpt lat="48.49278" lon="7.12988">
        <ele>762</ele>
        <time>2023-07-05T11:33:52Z</time>
      </trkpt>
      <trkpt lat="48.49274" lon="7.12983">
        <ele>762</ele>
        <time>2023-07-05T11:33:57Z</time>
      </trkpt>
      <trkpt lat="48.4927" lon="7.12979">
        <ele>762</ele>
        <time>2023-07-05T11:34:01Z</time>
      </trkpt>
      <trkpt lat="48.49266" lon="7.12976">
        <ele>762</ele>
        <time>2023-07-05T11:34:05Z</time>
      </trkpt>
      <trkpt lat="48.49255" lon="7.12962">
        <ele>763</ele>
        <time>2023-07-05T11:34:16Z</time>
      </trkpt>
      <trkpt lat="48.49245" lon="7.12953">
        <ele>764</ele>
        <time>2023-07-05T11:34:26Z</time>
      </trkpt>
      <trkpt lat="48.49235" lon="7.12949">
        <ele>765</ele>
        <time>2023-07-05T11:34:34Z</time>
      </trkpt>
      <trkpt lat="48.49231" lon="7.1294">
        <ele>766</ele>
        <time>2023-07-05T11:34:41Z</time>
      </trkpt>
      <trkpt lat="48.49219" lon="7.12928">
        <ele>768</ele>
        <time>2023-07-05T11:34:59Z</time>
      </trkpt>
      <trkpt lat="48.49214" lon="7.12923">
        <ele>768</ele>
        <time>2023-07-05T11:35:05Z</time>
      </trkpt>
      <trkpt lat="48.49201" lon="7.12913">
        <ele>769</ele>
        <time>2023-07-05T11:35:20Z</time>
      </trkpt>
      <trkpt lat="48.49198" lon="7.12909">
        <ele>770</ele>
        <time>2023-07-05T11:35:24Z</time>
      </trkpt>
      <trkpt lat="48.49186" lon="7.12901">
        <ele>771</ele>
        <time>2023-07-05T11:35:44Z</time>
      </trkpt>
      <trkpt lat="48.49183" lon="7.12909">
        <ele>772</ele>
        <time>2023-07-05T11:35:50Z</time>
      </trkpt>
      <trkpt lat="48.49176" lon="7.12915">
        <ele>773</ele>
        <time>2023-07-05T11:35:58Z</time>
      </trkpt>
      <trkpt lat="48.49165" lon="7.12913">
        <ele>774</ele>
        <time>2023-07-05T11:36:11Z</time>
      </trkpt>
      <trkpt lat="48.4915" lon="7.12903">
        <ele>775</ele>
        <time>2023-07-05T11:36:21Z</time>
      </trkpt>
      <trkpt lat="48.49123" lon="7.12909">
        <ele>779</ele>
        <time>2023-07-05T11:36:56Z</time>
      </trkpt>
      <trkpt lat="48.49117" lon="7.12909">
        <ele>780</ele>
        <time>2023-07-05T11:37:00Z</time>
      </trkpt>
      <trkpt lat="48.49106" lon="7.12897">
        <ele>781</ele>
        <time>2023-07-05T11:37:16Z</time>
      </trkpt>
      <trkpt lat="48.49096" lon="7.12891">
        <ele>782</ele>
        <time>2023-07-05T11:37:24Z</time>
      </trkpt>
      <trkpt lat="48.49076" lon="7.12867">
        <ele>784</ele>
        <time>2023-07-05T11:37:54Z</time>
      </trkpt>
      <trkpt lat="48.49072" lon="7.12865">
        <ele>785</ele>
        <time>2023-07-05T11:37:58Z</time>
      </trkpt>
      <trkpt lat="48.49064" lon="7.12853">
        <ele>786</ele>
        <time>2023-07-05T11:38:12Z</time>
      </trkpt>
      <trkpt lat="48.49056" lon="7.12842">
        <ele>788</ele>
        <time>2023-07-05T11:38:24Z</time>
      </trkpt>
      <trkpt lat="48.49053" lon="7.12837">
        <ele>789</ele>
        <time>2023-07-05T11:38:27Z</time>
      </trkpt>
      <trkpt lat="48.49036" lon="7.12824">
        <ele>790</ele>
        <time>2023-07-05T11:38:45Z</time>
      </trkpt>
      <trkpt lat="48.49031" lon="7.12819">
        <ele>790</ele>
        <time>2023-07-05T11:38:52Z</time>
      </trkpt>
      <trkpt lat="48.49029" lon="7.1281">
        <ele>791</ele>
        <time>2023-07-05T11:38:58Z</time>
      </trkpt>
      <trkpt lat="48.49016" lon="7.12793">
        <ele>792</ele>
        <time>2023-07-05T11:39:16Z</time>
      </trkpt>
      <trkpt lat="48.49012" lon="7.1278">
        <ele>793</ele>
        <time>2023-07-05T11:39:26Z</time>
      </trkpt>
      <trkpt lat="48.49007" lon="7.12775">
        <ele>794</ele>
        <time>2023-07-05T11:39:33Z</time>
      </trkpt>
      <trkpt lat="48.49004" lon="7.1277">
        <ele>794</ele>
        <time>2023-07-05T11:39:36Z</time>
      </trkpt>
      <trkpt lat="48.49001" lon="7.12761">
        <ele>795</ele>
        <time>2023-07-05T11:39:44Z</time>
      </trkpt>
      <trkpt lat="48.4899" lon="7.12745">
        <ele>796</ele>
        <time>2023-07-05T11:39:59Z</time>
      </trkpt>
      <trkpt lat="48.48985" lon="7.12734">
        <ele>797</ele>
        <time>2023-07-05T11:40:08Z</time>
      </trkpt>
      <trkpt lat="48.48983" lon="7.12728">
        <ele>797</ele>
        <time>2023-07-05T11:40:13Z</time>
      </trkpt>
      <trkpt lat="48.48966" lon="7.12703">
        <ele>800</ele>
        <time>2023-07-05T11:40:39Z</time>
      </trkpt>
      <trkpt lat="48.48958" lon="7.12687">
        <ele>802</ele>
        <time>2023-07-05T11:40:53Z</time>
      </trkpt>
      <trkpt lat="48.48952" lon="7.12678">
        <ele>803</ele>
        <time>2023-07-05T11:41:02Z</time>
      </trkpt>
      <trkpt lat="48.48947" lon="7.12663">
        <ele>804</ele>
        <time>2023-07-05T11:41:14Z</time>
      </trkpt>
      <trkpt lat="48.48936" lon="7.12651">
        <ele>806</ele>
        <time>2023-07-05T11:41:30Z</time>
      </trkpt>
      <trkpt lat="48.48931" lon="7.12643">
        <ele>807</ele>
        <time>2023-07-05T11:41:40Z</time>
      </trkpt>
      <trkpt lat="48.48909" lon="7.12627">
        <ele>811</ele>
        <time>2023-07-05T11:42:07Z</time>
      </trkpt>
      <trkpt lat="48.4889" lon="7.1262">
        <ele>815</ele>
        <time>2023-07-05T11:42:37Z</time>
      </trkpt>
      <trkpt lat="48.48885" lon="7.12617">
        <ele>815</ele>
        <time>2023-07-05T11:42:49Z</time>
      </trkpt>
      <trkpt lat="48.48881" lon="7.12612">
        <ele>816</ele>
        <time>2023-07-05T11:42:53Z</time>
      </trkpt>
      <trkpt lat="48.48874" lon="7.12608">
        <ele>816</ele>
        <time>2023-07-05T11:43:01Z</time>
      </trkpt>
      <trkpt lat="48.48869" lon="7.12609">
        <ele>816</ele>
        <time>2023-07-05T11:43:08Z</time>
      </trkpt>
      <trkpt lat="48.48853" lon="7.12592">
        <ele>816</ele>
        <time>2023-07-05T11:43:26Z</time>
      </trkpt>
      <trkpt lat="48.48847" lon="7.1258">
        <ele>816</ele>
        <time>2023-07-05T11:43:34Z</time>
      </trkpt>
      <trkpt lat="48.48845" lon="7.12571">
        <ele>815</ele>
        <time>2023-07-05T11:43:41Z</time>
      </trkpt>
      <trkpt lat="48.48834" lon="7.12548">
        <ele>815</ele>
        <time>2023-07-05T11:43:57Z</time>
      </trkpt>
      <trkpt lat="48.48818" lon="7.12534">
        <ele>816</ele>
        <time>2023-07-05T11:44:13Z</time>
      </trkpt>
      <trkpt lat="48.48791" lon="7.12521">
        <ele>817</ele>
        <time>2023-07-05T11:44:34Z</time>
      </trkpt>
      <trkpt lat="48.48787" lon="7.12521">
        <ele>818</ele>
        <time>2023-07-05T11:44:41Z</time>
      </trkpt>
      <trkpt lat="48.48782" lon="7.12518">
        <ele>819</ele>
        <time>2023-07-05T11:44:45Z</time>
      </trkpt>
      <trkpt lat="48.48777" lon="7.12513">
        <ele>819</ele>
        <time>2023-07-05T11:44:49Z</time>
      </trkpt>
      <trkpt lat="48.48773" lon="7.12514">
        <ele>819</ele>
        <time>2023-07-05T11:44:52Z</time>
      </trkpt>
      <trkpt lat="48.48766" lon="7.12516">
        <ele>820</ele>
        <time>2023-07-05T11:44:57Z</time>
      </trkpt>
      <trkpt lat="48.48762" lon="7.12513">
        <ele>820</ele>
        <time>2023-07-05T11:45:00Z</time>
      </trkpt>
      <trkpt lat="48.48758" lon="7.12512">
        <ele>820</ele>
        <time>2023-07-05T11:45:03Z</time>
      </trkpt>
      <trkpt lat="48.4875" lon="7.12513">
        <ele>821</ele>
        <time>2023-07-05T11:45:16Z</time>
      </trkpt>
      <trkpt lat="48.48728" lon="7.12509">
        <ele>825</ele>
        <time>2023-07-05T11:45:42Z</time>
      </trkpt>
      <trkpt lat="48.48722" lon="7.12512">
        <ele>826</ele>
        <time>2023-07-05T11:45:51Z</time>
      </trkpt>
      <trkpt lat="48.48716" lon="7.12508">
        <ele>827</ele>
        <time>2023-07-05T11:45:56Z</time>
      </trkpt>
      <trkpt lat="48.48712" lon="7.12505">
        <ele>827</ele>
        <time>2023-07-05T11:45:58Z</time>
      </trkpt>
      <trkpt lat="48.48703" lon="7.12508">
        <ele>827</ele>
        <time>2023-07-05T11:46:07Z</time>
      </trkpt>
      <trkpt lat="48.48697" lon="7.125">
        <ele>828</ele>
        <time>2023-07-05T11:46:18Z</time>
      </trkpt>
      <trkpt lat="48.48682" lon="7.12494">
        <ele>830</ele>
        <time>2023-07-05T11:46:32Z</time>
      </trkpt>
      <trkpt lat="48.48679" lon="7.12491">
        <ele>830</ele>
        <time>2023-07-05T11:46:36Z</time>
      </trkpt>
      <trkpt lat="48.48673" lon="7.12489">
        <ele>830</ele>
        <time>2023-07-05T11:46:42Z</time>
      </trkpt>
      <trkpt lat="48.48661" lon="7.12483">
        <ele>832</ele>
        <time>2023-07-05T11:46:55Z</time>
      </trkpt>
      <trkpt lat="48.4865" lon="7.12481">
        <ele>833</ele>
        <time>2023-07-05T11:47:04Z</time>
      </trkpt>
      <trkpt lat="48.48644" lon="7.12483">
        <ele>833</ele>
        <time>2023-07-05T11:47:10Z</time>
      </trkpt>
      <trkpt lat="48.48634" lon="7.12484">
        <ele>834</ele>
        <time>2023-07-05T11:47:20Z</time>
      </trkpt>
      <trkpt lat="48.48623" lon="7.12491">
        <ele>834</ele>
        <time>2023-07-05T11:47:31Z</time>
      </trkpt>
      <trkpt lat="48.4862" lon="7.12498">
        <ele>834</ele>
        <time>2023-07-05T11:47:35Z</time>
      </trkpt>
      <trkpt lat="48.48613" lon="7.12508">
        <ele>834</ele>
        <time>2023-07-05T11:47:43Z</time>
      </trkpt>
      <trkpt lat="48.48608" lon="7.12514">
        <ele>834</ele>
        <time>2023-07-05T11:47:50Z</time>
      </trkpt>
      <trkpt lat="48.48603" lon="7.12516">
        <ele>835</ele>
        <time>2023-07-05T11:47:54Z</time>
      </trkpt>
      <trkpt lat="48.48599" lon="7.12522">
        <ele>836</ele>
        <time>2023-07-05T11:48:02Z</time>
      </trkpt>
      <trkpt lat="48.48595" lon="7.12524">
        <ele>837</ele>
        <time>2023-07-05T11:48:05Z</time>
      </trkpt>
      <trkpt lat="48.48587" lon="7.12524">
        <ele>838</ele>
        <time>2023-07-05T11:48:13Z</time>
      </trkpt>
      <trkpt lat="48.48582" lon="7.12523">
        <ele>839</ele>
        <time>2023-07-05T11:48:21Z</time>
      </trkpt>
      <trkpt lat="48.48577" lon="7.12522">
        <ele>839</ele>
        <time>2023-07-05T11:48:25Z</time>
      </trkpt>
      <trkpt lat="48.48567" lon="7.12523">
        <ele>839</ele>
        <time>2023-07-05T11:48:33Z</time>
      </trkpt>
      <trkpt lat="48.48561" lon="7.12519">
        <ele>839</ele>
        <time>2023-07-05T11:48:40Z</time>
      </trkpt>
      <trkpt lat="48.48557" lon="7.12515">
        <ele>839</ele>
        <time>2023-07-05T11:48:42Z</time>
      </trkpt>
      <trkpt lat="48.48549" lon="7.1251">
        <ele>839</ele>
        <time>2023-07-05T11:48:50Z</time>
      </trkpt>
      <trkpt lat="48.48545" lon="7.12511">
        <ele>839</ele>
        <time>2023-07-05T11:48:54Z</time>
      </trkpt>
      <trkpt lat="48.48532" lon="7.12501">
        <ele>839</ele>
        <time>2023-07-05T11:49:09Z</time>
      </trkpt>
      <trkpt lat="48.48524" lon="7.12491">
        <ele>840</ele>
        <time>2023-07-05T11:49:17Z</time>
      </trkpt>
      <trkpt lat="48.48507" lon="7.12485">
        <ele>841</ele>
        <time>2023-07-05T11:49:35Z</time>
      </trkpt>
      <trkpt lat="48.48496" lon="7.12483">
        <ele>842</ele>
        <time>2023-07-05T11:49:43Z</time>
      </trkpt>
      <trkpt lat="48.48492" lon="7.12483">
        <ele>842</ele>
        <time>2023-07-05T11:49:47Z</time>
      </trkpt>
      <trkpt lat="48.48477" lon="7.12478">
        <ele>842</ele>
        <time>2023-07-05T11:49:59Z</time>
      </trkpt>
      <trkpt lat="48.48472" lon="7.12478">
        <ele>842</ele>
        <time>2023-07-05T11:50:04Z</time>
      </trkpt>
      <trkpt lat="48.48464" lon="7.12477">
        <ele>841</ele>
        <time>2023-07-05T11:50:12Z</time>
      </trkpt>
      <trkpt lat="48.48448" lon="7.12461">
        <ele>839</ele>
        <time>2023-07-05T11:50:27Z</time>
      </trkpt>
      <trkpt lat="48.48446" lon="7.12455">
        <ele>839</ele>
        <time>2023-07-05T11:50:31Z</time>
      </trkpt>
      <trkpt lat="48.48438" lon="7.12449">
        <ele>838</ele>
        <time>2023-07-05T11:50:38Z</time>
      </trkpt>
      <trkpt lat="48.48431" lon="7.12445">
        <ele>837</ele>
        <time>2023-07-05T11:50:45Z</time>
      </trkpt>
      <trkpt lat="48.48426" lon="7.12438">
        <ele>837</ele>
        <time>2023-07-05T11:50:51Z</time>
      </trkpt>
      <trkpt lat="48.48421" lon="7.12431">
        <ele>837</ele>
        <time>2023-07-05T11:50:57Z</time>
      </trkpt>
      <trkpt lat="48.48386" lon="7.12405">
        <ele>834</ele>
        <time>2023-07-05T11:51:28Z</time>
      </trkpt>
      <trkpt lat="48.48379" lon="7.12394">
        <ele>832</ele>
        <time>2023-07-05T11:51:37Z</time>
      </trkpt>
      <trkpt lat="48.48363" lon="7.12377">
        <ele>832</ele>
        <time>2023-07-05T11:51:53Z</time>
      </trkpt>
      <trkpt lat="48.48362" lon="7.12369">
        <ele>831</ele>
        <time>2023-07-05T11:51:58Z</time>
      </trkpt>
      <trkpt lat="48.48357" lon="7.12367">
        <ele>831</ele>
        <time>2023-07-05T11:52:01Z</time>
      </trkpt>
      <trkpt lat="48.48327" lon="7.12331">
        <ele>827</ele>
        <time>2023-07-05T11:52:33Z</time>
      </trkpt>
      <trkpt lat="48.4831" lon="7.12302">
        <ele>823</ele>
        <time>2023-07-05T11:52:56Z</time>
      </trkpt>
      <trkpt lat="48.48302" lon="7.12293">
        <ele>822</ele>
        <time>2023-07-05T11:53:03Z</time>
      </trkpt>
      <trkpt lat="48.483" lon="7.12285">
        <ele>821</ele>
        <time>2023-07-05T11:53:07Z</time>
      </trkpt>
      <trkpt lat="48.48297" lon="7.12279">
        <ele>821</ele>
        <time>2023-07-05T11:53:11Z</time>
      </trkpt>
      <trkpt lat="48.48292" lon="7.12272">
        <ele>821</ele>
        <time>2023-07-05T11:53:15Z</time>
      </trkpt>
      <trkpt lat="48.48289" lon="7.12269">
        <ele>821</ele>
        <time>2023-07-05T11:53:19Z</time>
      </trkpt>
      <trkpt lat="48.48281" lon="7.12253">
        <ele>819</ele>
        <time>2023-07-05T11:53:31Z</time>
      </trkpt>
      <trkpt lat="48.48277" lon="7.12248">
        <ele>819</ele>
        <time>2023-07-05T11:53:35Z</time>
      </trkpt>
      <trkpt lat="48.48274" lon="7.12242">
        <ele>818</ele>
        <time>2023-07-05T11:53:39Z</time>
      </trkpt>
      <trkpt lat="48.4827" lon="7.12223">
        <ele>816</ele>
        <time>2023-07-05T11:53:49Z</time>
      </trkpt>
      <trkpt lat="48.48264" lon="7.12209">
        <ele>815</ele>
        <time>2023-07-05T11:53:57Z</time>
      </trkpt>
      <trkpt lat="48.48259" lon="7.12191">
        <ele>815</ele>
        <time>2023-07-05T11:54:08Z</time>
      </trkpt>
      <trkpt lat="48.48254" lon="7.12189">
        <ele>814</ele>
        <time>2023-07-05T11:54:20Z</time>
      </trkpt>
      <trkpt lat="48.48254" lon="7.12187">
        <ele>815</ele>
        <time>2023-07-05T11:55:13Z</time>
      </trkpt>
      <trkpt lat="48.48244" lon="7.1215">
        <ele>816</ele>
        <time>2023-07-05T11:55:38Z</time>
      </trkpt>
      <trkpt lat="48.48241" lon="7.12119">
        <ele>819</ele>
        <time>2023-07-05T11:55:58Z</time>
      </trkpt>
      <trkpt lat="48.48239" lon="7.12106">
        <ele>819</ele>
        <time>2023-07-05T11:56:06Z</time>
      </trkpt>
      <trkpt lat="48.48236" lon="7.121">
        <ele>819</ele>
        <time>2023-07-05T11:56:11Z</time>
      </trkpt>
      <trkpt lat="48.48235" lon="7.12093">
        <ele>820</ele>
        <time>2023-07-05T11:56:14Z</time>
      </trkpt>
      <trkpt lat="48.48228" lon="7.12084">
        <ele>820</ele>
        <time>2023-07-05T11:56:22Z</time>
      </trkpt>
      <trkpt lat="48.48224" lon="7.12081">
        <ele>821</ele>
        <time>2023-07-05T11:56:26Z</time>
      </trkpt>
      <trkpt lat="48.48222" lon="7.12076">
        <ele>821</ele>
        <time>2023-07-05T11:56:30Z</time>
      </trkpt>
      <trkpt lat="48.48213" lon="7.12058">
        <ele>821</ele>
        <time>2023-07-05T11:56:43Z</time>
      </trkpt>
      <trkpt lat="48.48211" lon="7.12051">
        <ele>821</ele>
        <time>2023-07-05T11:56:47Z</time>
      </trkpt>
      <trkpt lat="48.48203" lon="7.12041">
        <ele>822</ele>
        <time>2023-07-05T11:56:55Z</time>
      </trkpt>
      <trkpt lat="48.4819" lon="7.1203">
        <ele>821</ele>
        <time>2023-07-05T11:57:06Z</time>
      </trkpt>
      <trkpt lat="48.48186" lon="7.12026">
        <ele>821</ele>
        <time>2023-07-05T11:57:10Z</time>
      </trkpt>
      <trkpt lat="48.48182" lon="7.12024">
        <ele>821</ele>
        <time>2023-07-05T11:57:14Z</time>
      </trkpt>
      <trkpt lat="48.4816" lon="7.12005">
        <ele>818</ele>
        <time>2023-07-05T11:57:35Z</time>
        <extensions>
          <visugpx:TrkExtension xmlns:visugpx="https://www.visugpx.com/editgpx/">
            <visugpx:node>10</visugpx:node>
            </visugpx:TrkExtension>
        </extensions>
      </trkpt>
      <trkpt lat="48.48156" lon="7.12004">
        <ele>803.5</ele>
      </trkpt>
      <trkpt lat="48.48146" lon="7.11993">
        <ele>802.9</ele>
      </trkpt>
      <trkpt lat="48.48125" lon="7.11972">
        <ele>801.1</ele>
      </trkpt>
      <trkpt lat="48.48106" lon="7.11953">
        <ele>799.5</ele>
      </trkpt>
      <trkpt lat="48.48087" lon="7.1193">
        <ele>798.3</ele>
      </trkpt>
      <trkpt lat="48.48071" lon="7.11918">
        <ele>796.2</ele>
      </trkpt>
      <trkpt lat="48.48057" lon="7.11907">
        <ele>794.2</ele>
      </trkpt>
      <trkpt lat="48.48048" lon="7.11896">
        <ele>793.5</ele>
      </trkpt>
      <trkpt lat="48.48035" lon="7.11875">
        <ele>793.7</ele>
      </trkpt>
      <trkpt lat="48.48022" lon="7.11859">
        <ele>793.1</ele>
      </trkpt>
      <trkpt lat="48.48005" lon="7.11844">
        <ele>791.7</ele>
      </trkpt>
      <trkpt lat="48.47989" lon="7.11832">
        <ele>789.8</ele>
      </trkpt>
      <trkpt lat="48.47981" lon="7.11822">
        <ele>789.2</ele>
      </trkpt>
      <trkpt lat="48.47967" lon="7.118">
        <ele>788.8</ele>
      </trkpt>
      <trkpt lat="48.47935" lon="7.11749">
        <ele>788.1</ele>
      </trkpt>
      <trkpt lat="48.47923" lon="7.11734">
        <ele>788</ele>
      </trkpt>
      <trkpt lat="48.47911" lon="7.11726">
        <ele>786.7</ele>
      </trkpt>
      <trkpt lat="48.47896" lon="7.11721">
        <ele>784.3</ele>
      </trkpt>
      <trkpt lat="48.47876" lon="7.11722">
        <ele>783.5</ele>
        <extensions>
          <visugpx:TrkExtension xmlns:visugpx="https://www.visugpx.com/editgpx/">
            <visugpx:node>11</visugpx:node>
            </visugpx:TrkExtension>
        </extensions>
      </trkpt>
      <trkpt lat="48.47864" lon="7.11723">
        <ele>783.9</ele>
      </trkpt>
      <trkpt lat="48.47857" lon="7.11702">
        <ele>784.9</ele>
      </trkpt>
      <trkpt lat="48.47844" lon="7.11706">
        <ele>785.5</ele>
      </trkpt>
      <trkpt lat="48.47823" lon="7.11713">
        <ele>787.1</ele>
      </trkpt>
      <trkpt lat="48.47807" lon="7.11719">
        <ele>788.8</ele>
      </trkpt>
      <trkpt lat="48.47797" lon="7.1172">
        <ele>790.8</ele>
      </trkpt>
      <trkpt lat="48.47792" lon="7.1172">
        <ele>791.9</ele>
        <extensions>
          <visugpx:TrkExtension xmlns:visugpx="https://www.visugpx.com/editgpx/">
            <visugpx:node>12</visugpx:node>
            </visugpx:TrkExtension>
        </extensions>
      </trkpt>
      <trkpt lat="48.47797" lon="7.1172">
        <ele>790.8</ele>
      </trkpt>
      <trkpt lat="48.47807" lon="7.11719">
        <ele>788.8</ele>
      </trkpt>
      <trkpt lat="48.47799" lon="7.11735">
        <ele>790.9</ele>
      </trkpt>
      <trkpt lat="48.47768" lon="7.11793">
        <ele>800.2</ele>
      </trkpt>
      <trkpt lat="48.47753" lon="7.11829">
        <ele>806</ele>
      </trkpt>
      <trkpt lat="48.4774" lon="7.11861">
        <ele>812.2</ele>
      </trkpt>
      <trkpt lat="48.47735" lon="7.11881">
        <ele>815.3</ele>
      </trkpt>
      <trkpt lat="48.47733" lon="7.11893">
        <ele>816.8</ele>
      </trkpt>
      <trkpt lat="48.47731" lon="7.11926">
        <ele>819.8</ele>
      </trkpt>
      <trkpt lat="48.47729" lon="7.11943">
        <ele>821.7</ele>
      </trkpt>
      <trkpt lat="48.47727" lon="7.11955">
        <ele>823.2</ele>
      </trkpt>
      <trkpt lat="48.47723" lon="7.11968">
        <ele>825.4</ele>
      </trkpt>
      <trkpt lat="48.4772" lon="7.11981">
        <ele>827.4</ele>
      </trkpt>
      <trkpt lat="48.47716" lon="7.12001">
        <ele>830.1</ele>
      </trkpt>
      <trkpt lat="48.47713" lon="7.12033">
        <ele>832.4</ele>
      </trkpt>
      <trkpt lat="48.47709" lon="7.12057">
        <ele>835.3</ele>
      </trkpt>
      <trkpt lat="48.47702" lon="7.1209">
        <ele>838.8</ele>
      </trkpt>
      <trkpt lat="48.477" lon="7.12112">
        <ele>840.2</ele>
      </trkpt>
      <trkpt lat="48.47699" lon="7.12132">
        <ele>841.3</ele>
      </trkpt>
      <trkpt lat="48.47696" lon="7.12162">
        <ele>843.3</ele>
      </trkpt>
      <trkpt lat="48.4769" lon="7.12219">
        <ele>846.5</ele>
      </trkpt>
      <trkpt lat="48.47685" lon="7.12258">
        <ele>849.2</ele>
      </trkpt>
      <trkpt lat="48.47681" lon="7.12285">
        <ele>851.1</ele>
      </trkpt>
      <trkpt lat="48.47678" lon="7.12293">
        <ele>852.5</ele>
      </trkpt>
      <trkpt lat="48.47674" lon="7.12303">
        <ele>854.3</ele>
      </trkpt>
      <trkpt lat="48.47666" lon="7.12312">
        <ele>857.1</ele>
      </trkpt>
      <trkpt lat="48.47659" lon="7.12318">
        <ele>855.7</ele>
      </trkpt>
      <trkpt lat="48.47653" lon="7.12319">
        <ele>854.3</ele>
      </trkpt>
      <trkpt lat="48.47649" lon="7.12318">
        <ele>853.3</ele>
      </trkpt>
      <trkpt lat="48.47645" lon="7.12312">
        <ele>852.4</ele>
      </trkpt>
      <trkpt lat="48.47643" lon="7.12304">
        <ele>851.9</ele>
      </trkpt>
      <trkpt lat="48.47641" lon="7.12297">
        <ele>851.7</ele>
        <extensions>
          <visugpx:TrkExtension xmlns:visugpx="https://www.visugpx.com/editgpx/">
            <visugpx:node>13</visugpx:node>
            </visugpx:TrkExtension>
        </extensions>
      </trkpt>
      <trkpt lat="48.4764" lon="7.12287">
        <ele>869</ele>
        <time>2023-07-05T12:30:41Z</time>
        <extensions>
          <visugpx:TrkExtension xmlns:visugpx="https://www.visugpx.com/editgpx/">
            <visugpx:node>1</visugpx:node>
            </visugpx:TrkExtension>
        </extensions>
      </trkpt>
      <trkpt lat="48.4764" lon="7.12286">
        <ele>869</ele>
        <time>2023-07-05T12:30:42Z</time>
      </trkpt>
      <trkpt lat="48.4764" lon="7.12273">
        <ele>869</ele>
        <time>2023-07-05T12:30:51Z</time>
      </trkpt>
      <trkpt lat="48.47641" lon="7.12266">
        <ele>869</ele>
        <time>2023-07-05T12:30:55Z</time>
      </trkpt>
      <trkpt lat="48.47641" lon="7.12249">
        <ele>869</ele>
        <time>2023-07-05T12:31:04Z</time>
      </trkpt>
      <trkpt lat="48.47639" lon="7.12244">
        <ele>869</ele>
        <time>2023-07-05T12:31:08Z</time>
      </trkpt>
      <trkpt lat="48.47636" lon="7.12221">
        <ele>870</ele>
        <time>2023-07-05T12:31:21Z</time>
      </trkpt>
      <trkpt lat="48.47627" lon="7.12192">
        <ele>871</ele>
        <time>2023-07-05T12:31:39Z</time>
      </trkpt>
      <trkpt lat="48.47624" lon="7.12187">
        <ele>871</ele>
        <time>2023-07-05T12:31:43Z</time>
      </trkpt>
      <trkpt lat="48.47622" lon="7.12179">
        <ele>872</ele>
        <time>2023-07-05T12:31:47Z</time>
      </trkpt>
      <trkpt lat="48.47616" lon="7.12169">
        <ele>872</ele>
        <time>2023-07-05T12:31:54Z</time>
      </trkpt>
      <trkpt lat="48.47614" lon="7.12162">
        <ele>872</ele>
        <time>2023-07-05T12:31:59Z</time>
      </trkpt>
      <trkpt lat="48.47612" lon="7.12155">
        <ele>872</ele>
        <time>2023-07-05T12:32:03Z</time>
      </trkpt>
      <trkpt lat="48.47601" lon="7.12138">
        <ele>872</ele>
        <time>2023-07-05T12:32:15Z</time>
      </trkpt>
      <trkpt lat="48.47599" lon="7.12131">
        <ele>872</ele>
        <time>2023-07-05T12:32:20Z</time>
      </trkpt>
      <trkpt lat="48.4759" lon="7.12108">
        <ele>877</ele>
        <time>2023-07-05T12:32:57Z</time>
      </trkpt>
      <trkpt lat="48.47588" lon="7.12101">
        <ele>877</ele>
        <time>2023-07-05T12:33:02Z</time>
      </trkpt>
      <trkpt lat="48.47585" lon="7.12096">
        <ele>877</ele>
        <time>2023-07-05T12:33:06Z</time>
      </trkpt>
      <trkpt lat="48.4758" lon="7.12087">
        <ele>878</ele>
        <time>2023-07-05T12:33:37Z</time>
      </trkpt>
      <trkpt lat="48.47575" lon="7.12082">
        <ele>878</ele>
        <time>2023-07-05T12:33:42Z</time>
      </trkpt>
      <trkpt lat="48.47571" lon="7.12076">
        <ele>878</ele>
        <time>2023-07-05T12:33:47Z</time>
      </trkpt>
      <trkpt lat="48.47569" lon="7.1207">
        <ele>879</ele>
        <time>2023-07-05T12:33:51Z</time>
      </trkpt>
      <trkpt lat="48.47561" lon="7.12059">
        <ele>880</ele>
        <time>2023-07-05T12:34:02Z</time>
      </trkpt>
      <trkpt lat="48.47553" lon="7.12045">
        <ele>883</ele>
        <time>2023-07-05T12:34:19Z</time>
      </trkpt>
      <trkpt lat="48.47536" lon="7.12022">
        <ele>885</ele>
        <time>2023-07-05T12:34:46Z</time>
      </trkpt>
      <trkpt lat="48.47532" lon="7.12014">
        <ele>885</ele>
        <time>2023-07-05T12:35:20Z</time>
      </trkpt>
      <trkpt lat="48.47527" lon="7.12005">
        <ele>886</ele>
        <time>2023-07-05T12:35:28Z</time>
      </trkpt>
      <trkpt lat="48.47526" lon="7.11998">
        <ele>887</ele>
        <time>2023-07-05T12:35:35Z</time>
      </trkpt>
      <trkpt lat="48.47517" lon="7.1198">
        <ele>890</ele>
        <time>2023-07-05T12:35:52Z</time>
      </trkpt>
      <trkpt lat="48.47513" lon="7.11976">
        <ele>890</ele>
        <time>2023-07-05T12:35:56Z</time>
      </trkpt>
      <trkpt lat="48.4751" lon="7.11968">
        <ele>890</ele>
        <time>2023-07-05T12:36:02Z</time>
      </trkpt>
      <trkpt lat="48.47504" lon="7.11958">
        <ele>891</ele>
        <time>2023-07-05T12:36:10Z</time>
      </trkpt>
      <trkpt lat="48.47498" lon="7.11945">
        <ele>893</ele>
        <time>2023-07-05T12:36:27Z</time>
      </trkpt>
      <trkpt lat="48.47495" lon="7.11939">
        <ele>896</ele>
        <time>2023-07-05T12:36:37Z</time>
      </trkpt>
      <trkpt lat="48.47491" lon="7.11933">
        <ele>897</ele>
        <time>2023-07-05T12:36:47Z</time>
      </trkpt>
      <trkpt lat="48.47485" lon="7.11929">
        <ele>898</ele>
        <time>2023-07-05T12:36:57Z</time>
      </trkpt>
      <trkpt lat="48.47484" lon="7.11921">
        <ele>900</ele>
        <time>2023-07-05T12:37:07Z</time>
      </trkpt>
      <trkpt lat="48.47468" lon="7.11899">
        <ele>905</ele>
        <time>2023-07-05T12:37:38Z</time>
      </trkpt>
      <trkpt lat="48.47465" lon="7.11891">
        <ele>907</ele>
        <time>2023-07-05T12:37:51Z</time>
      </trkpt>
      <trkpt lat="48.47463" lon="7.11885">
        <ele>907</ele>
        <time>2023-07-05T12:37:57Z</time>
      </trkpt>
      <trkpt lat="48.47449" lon="7.11877">
        <ele>909</ele>
        <time>2023-07-05T12:38:15Z</time>
      </trkpt>
      <trkpt lat="48.47432" lon="7.11882">
        <ele>912</ele>
        <time>2023-07-05T12:38:43Z</time>
      </trkpt>
      <trkpt lat="48.47424" lon="7.11874">
        <ele>911</ele>
        <time>2023-07-05T12:41:02Z</time>
      </trkpt>
      <trkpt lat="48.47419" lon="7.1187">
        <ele>910</ele>
        <time>2023-07-05T12:41:10Z</time>
      </trkpt>
      <trkpt lat="48.47414" lon="7.11867">
        <ele>910</ele>
        <time>2023-07-05T12:41:15Z</time>
      </trkpt>
      <trkpt lat="48.4741" lon="7.11866">
        <ele>910</ele>
        <time>2023-07-05T12:41:19Z</time>
      </trkpt>
      <trkpt lat="48.47403" lon="7.11862">
        <ele>908</ele>
        <time>2023-07-05T12:43:38Z</time>
      </trkpt>
      <trkpt lat="48.474" lon="7.11853">
        <ele>907</ele>
        <time>2023-07-05T12:43:46Z</time>
      </trkpt>
      <trkpt lat="48.47393" lon="7.11845">
        <ele>907</ele>
        <time>2023-07-05T12:43:56Z</time>
      </trkpt>
      <trkpt lat="48.4739" lon="7.11838">
        <ele>906</ele>
        <time>2023-07-05T12:44:01Z</time>
      </trkpt>
      <trkpt lat="48.47387" lon="7.11834">
        <ele>906</ele>
        <time>2023-07-05T12:44:05Z</time>
      </trkpt>
      <trkpt lat="48.47382" lon="7.11822">
        <ele>905</ele>
        <time>2023-07-05T12:44:14Z</time>
      </trkpt>
      <trkpt lat="48.47379" lon="7.11817">
        <ele>904</ele>
        <time>2023-07-05T12:44:18Z</time>
      </trkpt>
      <trkpt lat="48.47378" lon="7.1181">
        <ele>903</ele>
        <time>2023-07-05T12:44:22Z</time>
      </trkpt>
      <trkpt lat="48.47373" lon="7.11801">
        <ele>903</ele>
        <time>2023-07-05T12:44:31Z</time>
      </trkpt>
      <trkpt lat="48.47371" lon="7.11793">
        <ele>902</ele>
        <time>2023-07-05T12:44:35Z</time>
      </trkpt>
      <trkpt lat="48.47369" lon="7.11788">
        <ele>901</ele>
        <time>2023-07-05T12:44:39Z</time>
      </trkpt>
      <trkpt lat="48.47367" lon="7.11774">
        <ele>901</ele>
        <time>2023-07-05T12:44:47Z</time>
      </trkpt>
      <trkpt lat="48.47363" lon="7.11762">
        <ele>900</ele>
        <time>2023-07-05T12:44:55Z</time>
      </trkpt>
      <trkpt lat="48.47362" lon="7.11756">
        <ele>900</ele>
        <time>2023-07-05T12:44:59Z</time>
      </trkpt>
      <trkpt lat="48.47364" lon="7.11749">
        <ele>900</ele>
        <time>2023-07-05T12:45:03Z</time>
      </trkpt>
      <trkpt lat="48.47357" lon="7.11737">
        <ele>898</ele>
        <time>2023-07-05T12:45:13Z</time>
      </trkpt>
      <trkpt lat="48.47356" lon="7.1173">
        <ele>898</ele>
        <time>2023-07-05T12:45:17Z</time>
      </trkpt>
      <trkpt lat="48.47354" lon="7.11716">
        <ele>898</ele>
        <time>2023-07-05T12:45:25Z</time>
      </trkpt>
      <trkpt lat="48.47353" lon="7.11705">
        <ele>897</ele>
        <time>2023-07-05T12:45:32Z</time>
      </trkpt>
      <trkpt lat="48.4735" lon="7.11699">
        <ele>897</ele>
        <time>2023-07-05T12:45:36Z</time>
      </trkpt>
      <trkpt lat="48.47349" lon="7.11692">
        <ele>897</ele>
        <time>2023-07-05T12:45:40Z</time>
      </trkpt>
      <trkpt lat="48.47344" lon="7.11687">
        <ele>897</ele>
        <time>2023-07-05T12:45:45Z</time>
      </trkpt>
      <trkpt lat="48.47338" lon="7.11661">
        <ele>894</ele>
        <time>2023-07-05T12:46:02Z</time>
      </trkpt>
      <trkpt lat="48.47338" lon="7.11654">
        <ele>894</ele>
        <time>2023-07-05T12:46:06Z</time>
      </trkpt>
      <trkpt lat="48.47326" lon="7.11617">
        <ele>894</ele>
        <time>2023-07-05T12:46:32Z</time>
      </trkpt>
      <trkpt lat="48.47325" lon="7.11607">
        <ele>894</ele>
        <time>2023-07-05T12:46:40Z</time>
      </trkpt>
      <trkpt lat="48.47323" lon="7.1159">
        <ele>894</ele>
        <time>2023-07-05T12:46:49Z</time>
      </trkpt>
      <trkpt lat="48.47322" lon="7.11578">
        <ele>895</ele>
        <time>2023-07-05T12:46:57Z</time>
      </trkpt>
      <trkpt lat="48.47319" lon="7.11572">
        <ele>895</ele>
        <time>2023-07-05T12:47:01Z</time>
      </trkpt>
      <trkpt lat="48.47315" lon="7.11569">
        <ele>895</ele>
        <time>2023-07-05T12:47:04Z</time>
      </trkpt>
      <trkpt lat="48.47311" lon="7.11564">
        <ele>895</ele>
        <time>2023-07-05T12:47:09Z</time>
      </trkpt>
      <trkpt lat="48.47308" lon="7.1156">
        <ele>894</ele>
        <time>2023-07-05T12:47:12Z</time>
      </trkpt>
      <trkpt lat="48.47304" lon="7.11557">
        <ele>894</ele>
        <time>2023-07-05T12:47:16Z</time>
      </trkpt>
      <trkpt lat="48.47297" lon="7.11542">
        <ele>894</ele>
        <time>2023-07-05T12:47:28Z</time>
      </trkpt>
      <trkpt lat="48.47294" lon="7.11537">
        <ele>894</ele>
        <time>2023-07-05T12:47:32Z</time>
      </trkpt>
      <trkpt lat="48.47287" lon="7.11529">
        <ele>894</ele>
        <time>2023-07-05T12:47:43Z</time>
      </trkpt>
      <trkpt lat="48.47284" lon="7.11524">
        <ele>893</ele>
        <time>2023-07-05T12:47:48Z</time>
      </trkpt>
      <trkpt lat="48.47282" lon="7.11518">
        <ele>894</ele>
        <time>2023-07-05T12:47:53Z</time>
      </trkpt>
      <trkpt lat="48.47278" lon="7.11508">
        <ele>894</ele>
        <time>2023-07-05T12:48:02Z</time>
      </trkpt>
      <trkpt lat="48.47273" lon="7.11504">
        <ele>893</ele>
        <time>2023-07-05T12:48:07Z</time>
      </trkpt>
      <trkpt lat="48.47259" lon="7.11483">
        <ele>895</ele>
        <time>2023-07-05T12:48:30Z</time>
      </trkpt>
      <trkpt lat="48.47253" lon="7.11477">
        <ele>897</ele>
        <time>2023-07-05T12:48:41Z</time>
      </trkpt>
      <trkpt lat="48.47249" lon="7.11469">
        <ele>900</ele>
        <time>2023-07-05T12:48:51Z</time>
      </trkpt>
      <trkpt lat="48.47243" lon="7.11463">
        <ele>901</ele>
        <time>2023-07-05T12:49:01Z</time>
      </trkpt>
      <trkpt lat="48.47239" lon="7.11461">
        <ele>901</ele>
        <time>2023-07-05T12:49:05Z</time>
      </trkpt>
      <trkpt lat="48.47229" lon="7.11454">
        <ele>903</ele>
        <time>2023-07-05T12:49:20Z</time>
      </trkpt>
      <trkpt lat="48.47224" lon="7.11449">
        <ele>904</ele>
        <time>2023-07-05T12:49:32Z</time>
      </trkpt>
      <trkpt lat="48.47219" lon="7.11447">
        <ele>905</ele>
        <time>2023-07-05T12:49:38Z</time>
      </trkpt>
      <trkpt lat="48.47215" lon="7.11444">
        <ele>906</ele>
        <time>2023-07-05T12:49:50Z</time>
      </trkpt>
      <trkpt lat="48.47211" lon="7.11443">
        <ele>907</ele>
        <time>2023-07-05T12:49:53Z</time>
      </trkpt>
      <trkpt lat="48.47195" lon="7.11433">
        <ele>910</ele>
        <time>2023-07-05T12:50:18Z</time>
      </trkpt>
      <trkpt lat="48.47193" lon="7.11429">
        <ele>911</ele>
        <time>2023-07-05T12:50:28Z</time>
      </trkpt>
      <trkpt lat="48.47181" lon="7.1142">
        <ele>913</ele>
        <time>2023-07-05T12:50:50Z</time>
      </trkpt>
      <trkpt lat="48.47176" lon="7.11417">
        <ele>914</ele>
        <time>2023-07-05T12:50:57Z</time>
      </trkpt>
      <trkpt lat="48.47168" lon="7.11412">
        <ele>916</ele>
        <time>2023-07-05T12:51:08Z</time>
      </trkpt>
      <trkpt lat="48.47154" lon="7.11402">
        <ele>917</ele>
        <time>2023-07-05T12:51:27Z</time>
      </trkpt>
      <trkpt lat="48.47148" lon="7.11401">
        <ele>917</ele>
        <time>2023-07-05T12:51:43Z</time>
      </trkpt>
      <trkpt lat="48.47142" lon="7.11395">
        <ele>917</ele>
        <time>2023-07-05T12:51:50Z</time>
      </trkpt>
      <trkpt lat="48.47137" lon="7.11387">
        <ele>918</ele>
        <time>2023-07-05T12:51:58Z</time>
      </trkpt>
      <trkpt lat="48.47139" lon="7.11378">
        <ele>919</ele>
        <time>2023-07-05T12:52:10Z</time>
      </trkpt>
      <trkpt lat="48.47137" lon="7.11371">
        <ele>920</ele>
        <time>2023-07-05T12:52:16Z</time>
      </trkpt>
      <trkpt lat="48.47135" lon="7.11364">
        <ele>920</ele>
        <time>2023-07-05T12:52:23Z</time>
      </trkpt>
      <trkpt lat="48.47133" lon="7.11358">
        <ele>920</ele>
        <time>2023-07-05T12:52:31Z</time>
      </trkpt>
      <trkpt lat="48.47137" lon="7.11348">
        <ele>920</ele>
        <time>2023-07-05T12:52:41Z</time>
      </trkpt>
      <trkpt lat="48.4713" lon="7.11326">
        <ele>920</ele>
        <time>2023-07-05T12:52:56Z</time>
      </trkpt>
      <trkpt lat="48.4713" lon="7.11319">
        <ele>920</ele>
        <time>2023-07-05T12:53:01Z</time>
      </trkpt>
      <trkpt lat="48.4713" lon="7.11312">
        <ele>919</ele>
        <time>2023-07-05T12:53:06Z</time>
      </trkpt>
      <trkpt lat="48.4713" lon="7.11305">
        <ele>918</ele>
        <time>2023-07-05T12:53:10Z</time>
      </trkpt>
      <trkpt lat="48.47129" lon="7.11281">
        <ele>917</ele>
        <time>2023-07-05T12:53:23Z</time>
      </trkpt>
      <trkpt lat="48.47127" lon="7.11275">
        <ele>917</ele>
        <time>2023-07-05T12:53:27Z</time>
      </trkpt>
      <trkpt lat="48.47138" lon="7.11237">
        <ele>914</ele>
        <time>2023-07-05T12:53:58Z</time>
      </trkpt>
      <trkpt lat="48.47144" lon="7.11223">
        <ele>913</ele>
        <time>2023-07-05T12:54:10Z</time>
      </trkpt>
      <trkpt lat="48.4715" lon="7.11212">
        <ele>913</ele>
        <time>2023-07-05T12:54:19Z</time>
      </trkpt>
      <trkpt lat="48.47153" lon="7.11208">
        <ele>912</ele>
        <time>2023-07-05T12:54:23Z</time>
      </trkpt>
      <trkpt lat="48.47158" lon="7.11201">
        <ele>912</ele>
        <time>2023-07-05T12:54:30Z</time>
      </trkpt>
      <trkpt lat="48.47164" lon="7.1119">
        <ele>910</ele>
        <time>2023-07-05T12:54:40Z</time>
      </trkpt>
      <trkpt lat="48.47159" lon="7.11192">
        <ele>911</ele>
        <time>2023-07-05T12:55:54Z</time>
      </trkpt>
      <trkpt lat="48.47146" lon="7.11209">
        <ele>913</ele>
        <time>2023-07-05T12:56:13Z</time>
      </trkpt>
      <trkpt lat="48.47141" lon="7.11216">
        <ele>913</ele>
        <time>2023-07-05T12:56:19Z</time>
      </trkpt>
      <trkpt lat="48.47138" lon="7.11223">
        <ele>914</ele>
        <time>2023-07-05T12:56:27Z</time>
      </trkpt>
      <trkpt lat="48.47135" lon="7.1123">
        <ele>914</ele>
        <time>2023-07-05T12:56:32Z</time>
      </trkpt>
      <trkpt lat="48.47129" lon="7.11249">
        <ele>916</ele>
        <time>2023-07-05T12:56:47Z</time>
      </trkpt>
      <trkpt lat="48.47125" lon="7.11262">
        <ele>917</ele>
        <time>2023-07-05T12:56:56Z</time>
      </trkpt>
      <trkpt lat="48.47123" lon="7.11272">
        <ele>917</ele>
        <time>2023-07-05T12:57:04Z</time>
      </trkpt>
      <trkpt lat="48.47125" lon="7.11281">
        <ele>918</ele>
        <time>2023-07-05T12:57:11Z</time>
      </trkpt>
      <trkpt lat="48.47125" lon="7.1129">
        <ele>919</ele>
        <time>2023-07-05T12:57:17Z</time>
      </trkpt>
      <trkpt lat="48.47127" lon="7.11297">
        <ele>919</ele>
        <time>2023-07-05T12:57:21Z</time>
      </trkpt>
      <trkpt lat="48.47127" lon="7.11304">
        <ele>919</ele>
        <time>2023-07-05T12:57:25Z</time>
      </trkpt>
      <trkpt lat="48.47127" lon="7.11313">
        <ele>920</ele>
        <time>2023-07-05T12:57:31Z</time>
      </trkpt>
      <trkpt lat="48.47127" lon="7.11318">
        <ele>920</ele>
        <time>2023-07-05T12:57:48Z</time>
      </trkpt>
      <trkpt lat="48.47122" lon="7.11319">
        <ele>920</ele>
        <time>2023-07-05T12:58:10Z</time>
      </trkpt>
      <trkpt lat="48.47115" lon="7.11315">
        <ele>920</ele>
        <time>2023-07-05T12:58:21Z</time>
      </trkpt>
      <trkpt lat="48.47114" lon="7.11308">
        <ele>920</ele>
        <time>2023-07-05T12:58:38Z</time>
      </trkpt>
      <trkpt lat="48.47106" lon="7.11292">
        <ele>918</ele>
        <time>2023-07-05T12:59:11Z</time>
      </trkpt>
      <trkpt lat="48.47096" lon="7.11281">
        <ele>917</ele>
        <time>2023-07-05T12:59:25Z</time>
      </trkpt>
      <trkpt lat="48.47091" lon="7.11274">
        <ele>916</ele>
        <time>2023-07-05T12:59:32Z</time>
      </trkpt>
      <trkpt lat="48.47087" lon="7.11273">
        <ele>916</ele>
        <time>2023-07-05T12:59:36Z</time>
      </trkpt>
      <trkpt lat="48.47081" lon="7.11272">
        <ele>915</ele>
        <time>2023-07-05T12:59:43Z</time>
      </trkpt>
      <trkpt lat="48.47076" lon="7.11268">
        <ele>915</ele>
        <time>2023-07-05T12:59:52Z</time>
      </trkpt>
      <trkpt lat="48.47072" lon="7.11265">
        <ele>913</ele>
        <time>2023-07-05T13:00:02Z</time>
      </trkpt>
      <trkpt lat="48.47066" lon="7.11265">
        <ele>913</ele>
        <time>2023-07-05T13:01:34Z</time>
      </trkpt>
      <trkpt lat="48.47064" lon="7.1127">
        <ele>911</ele>
        <time>2023-07-05T13:01:44Z</time>
      </trkpt>
      <trkpt lat="48.47061" lon="7.1128">
        <ele>910</ele>
        <time>2023-07-05T13:01:58Z</time>
      </trkpt>
      <trkpt lat="48.4706" lon="7.11287">
        <ele>908</ele>
        <time>2023-07-05T13:02:29Z</time>
      </trkpt>
      <trkpt lat="48.47061" lon="7.11292">
        <ele>908</ele>
        <time>2023-07-05T13:03:51Z</time>
      </trkpt>
      <trkpt lat="48.47065" lon="7.1129">
        <ele>909</ele>
        <time>2023-07-05T13:04:16Z</time>
      </trkpt>
      <trkpt lat="48.47069" lon="7.11291">
        <ele>911</ele>
        <time>2023-07-05T13:04:31Z</time>
      </trkpt>
      <trkpt lat="48.47074" lon="7.11287">
        <ele>912</ele>
        <time>2023-07-05T13:04:41Z</time>
      </trkpt>
      <trkpt lat="48.47079" lon="7.11284">
        <ele>913</ele>
        <time>2023-07-05T13:04:51Z</time>
      </trkpt>
      <trkpt lat="48.47084" lon="7.11275">
        <ele>914</ele>
        <time>2023-07-05T13:05:24Z</time>
      </trkpt>
      <trkpt lat="48.47091" lon="7.11275">
        <ele>915</ele>
        <time>2023-07-05T13:05:34Z</time>
      </trkpt>
      <trkpt lat="48.47096" lon="7.11282">
        <ele>915</ele>
        <time>2023-07-05T13:05:44Z</time>
      </trkpt>
      <trkpt lat="48.47099" lon="7.11286">
        <ele>915</ele>
        <time>2023-07-05T13:05:54Z</time>
      </trkpt>
      <trkpt lat="48.47103" lon="7.11292">
        <ele>916</ele>
        <time>2023-07-05T13:06:04Z</time>
      </trkpt>
      <trkpt lat="48.47106" lon="7.11298">
        <ele>917</ele>
        <time>2023-07-05T13:06:15Z</time>
      </trkpt>
      <trkpt lat="48.47114" lon="7.11312">
        <ele>918</ele>
        <time>2023-07-05T13:06:40Z</time>
      </trkpt>
      <trkpt lat="48.47118" lon="7.11316">
        <ele>918</ele>
        <time>2023-07-05T13:06:45Z</time>
      </trkpt>
      <trkpt lat="48.47124" lon="7.11321">
        <ele>917</ele>
        <time>2023-07-05T13:06:53Z</time>
      </trkpt>
      <trkpt lat="48.47128" lon="7.11316">
        <ele>918</ele>
        <time>2023-07-05T13:07:08Z</time>
      </trkpt>
      <trkpt lat="48.47127" lon="7.11301">
        <ele>918</ele>
        <time>2023-07-05T13:07:16Z</time>
      </trkpt>
      <trkpt lat="48.47127" lon="7.11294">
        <ele>918</ele>
        <time>2023-07-05T13:07:20Z</time>
      </trkpt>
      <trkpt lat="48.47127" lon="7.11288">
        <ele>918</ele>
        <time>2023-07-05T13:07:24Z</time>
      </trkpt>
      <trkpt lat="48.47126" lon="7.1128">
        <ele>917</ele>
        <time>2023-07-05T13:07:28Z</time>
      </trkpt>
      <trkpt lat="48.47126" lon="7.11273">
        <ele>918</ele>
        <time>2023-07-05T13:07:32Z</time>
      </trkpt>
      <trkpt lat="48.4713" lon="7.11258">
        <ele>916</ele>
        <time>2023-07-05T13:07:43Z</time>
      </trkpt>
      <trkpt lat="48.47132" lon="7.11251">
        <ele>916</ele>
        <time>2023-07-05T13:07:48Z</time>
      </trkpt>
      <trkpt lat="48.47134" lon="7.11244">
        <ele>916</ele>
        <time>2023-07-05T13:07:53Z</time>
      </trkpt>
      <trkpt lat="48.47142" lon="7.11225">
        <ele>914</ele>
        <time>2023-07-05T13:08:06Z</time>
      </trkpt>
      <trkpt lat="48.47163" lon="7.1119">
        <ele>911</ele>
        <time>2023-07-05T13:08:36Z</time>
      </trkpt>
      <trkpt lat="48.47168" lon="7.11179">
        <ele>910</ele>
        <time>2023-07-05T13:08:44Z</time>
      </trkpt>
      <trkpt lat="48.47172" lon="7.11171">
        <ele>910</ele>
        <time>2023-07-05T13:08:51Z</time>
      </trkpt>
      <trkpt lat="48.47173" lon="7.11164">
        <ele>908</ele>
        <time>2023-07-05T13:08:59Z</time>
      </trkpt>
      <trkpt lat="48.47174" lon="7.11157">
        <ele>908</ele>
        <time>2023-07-05T13:09:26Z</time>
      </trkpt>
      <trkpt lat="48.47175" lon="7.11149">
        <ele>907</ele>
        <time>2023-07-05T13:10:09Z</time>
      </trkpt>
      <trkpt lat="48.47181" lon="7.11138">
        <ele>907</ele>
        <time>2023-07-05T13:10:20Z</time>
      </trkpt>
      <trkpt lat="48.47187" lon="7.11124">
        <ele>905</ele>
        <time>2023-07-05T13:10:32Z</time>
      </trkpt>
      <trkpt lat="48.472" lon="7.11111">
        <ele>903</ele>
        <time>2023-07-05T13:10:48Z</time>
      </trkpt>
      <trkpt lat="48.47205" lon="7.11108">
        <ele>903</ele>
        <time>2023-07-05T13:10:52Z</time>
      </trkpt>
      <trkpt lat="48.47209" lon="7.11104">
        <ele>902</ele>
        <time>2023-07-05T13:10:56Z</time>
      </trkpt>
      <trkpt lat="48.47212" lon="7.11099">
        <ele>902</ele>
        <time>2023-07-05T13:11:01Z</time>
      </trkpt>
      <trkpt lat="48.47217" lon="7.11093">
        <ele>901</ele>
        <time>2023-07-05T13:11:09Z</time>
      </trkpt>
      <trkpt lat="48.47219" lon="7.11079">
        <ele>899</ele>
        <time>2023-07-05T13:11:17Z</time>
      </trkpt>
      <trkpt lat="48.47229" lon="7.11049">
        <ele>896</ele>
        <time>2023-07-05T13:11:39Z</time>
      </trkpt>
      <trkpt lat="48.47232" lon="7.11044">
        <ele>896</ele>
        <time>2023-07-05T13:11:44Z</time>
      </trkpt>
      <trkpt lat="48.47242" lon="7.11007">
        <ele>891</ele>
        <time>2023-07-05T13:12:10Z</time>
      </trkpt>
      <trkpt lat="48.47245" lon="7.11002">
        <ele>890</ele>
        <time>2023-07-05T13:12:17Z</time>
      </trkpt>
      <trkpt lat="48.47248" lon="7.10995">
        <ele>889</ele>
        <time>2023-07-05T13:14:25Z</time>
      </trkpt>
      <trkpt lat="48.4726" lon="7.10953">
        <ele>884</ele>
        <time>2023-07-05T13:14:59Z</time>
      </trkpt>
      <trkpt lat="48.47261" lon="7.10946">
        <ele>883</ele>
        <time>2023-07-05T13:15:03Z</time>
      </trkpt>
      <trkpt lat="48.47265" lon="7.10937">
        <ele>883</ele>
        <time>2023-07-05T13:15:12Z</time>
      </trkpt>
      <trkpt lat="48.47268" lon="7.10923">
        <ele>882</ele>
        <time>2023-07-05T13:15:21Z</time>
      </trkpt>
      <trkpt lat="48.47271" lon="7.10918">
        <ele>882</ele>
        <time>2023-07-05T13:15:26Z</time>
      </trkpt>
      <trkpt lat="48.47274" lon="7.10909">
        <ele>881</ele>
        <time>2023-07-05T13:15:33Z</time>
      </trkpt>
      <trkpt lat="48.47271" lon="7.10902">
        <ele>881</ele>
        <time>2023-07-05T13:15:38Z</time>
      </trkpt>
      <trkpt lat="48.47268" lon="7.10898">
        <ele>881</ele>
        <time>2023-07-05T13:15:42Z</time>
      </trkpt>
      <trkpt lat="48.47259" lon="7.10891">
        <ele>881</ele>
        <time>2023-07-05T13:15:50Z</time>
      </trkpt>
      <trkpt lat="48.47252" lon="7.10883">
        <ele>880</ele>
        <time>2023-07-05T13:15:58Z</time>
      </trkpt>
      <trkpt lat="48.47216" lon="7.10877">
        <ele>878</ele>
        <time>2023-07-05T13:16:28Z</time>
      </trkpt>
      <trkpt lat="48.47211" lon="7.10876">
        <ele>877</ele>
        <time>2023-07-05T13:16:32Z</time>
      </trkpt>
      <trkpt lat="48.47205" lon="7.10877">
        <ele>877</ele>
        <time>2023-07-05T13:16:36Z</time>
      </trkpt>
      <trkpt lat="48.472" lon="7.10877">
        <ele>877</ele>
        <time>2023-07-05T13:16:40Z</time>
      </trkpt>
      <trkpt lat="48.47166" lon="7.10886">
        <ele>874</ele>
        <time>2023-07-05T13:17:08Z</time>
      </trkpt>
      <trkpt lat="48.47157" lon="7.10888">
        <ele>874</ele>
        <time>2023-07-05T13:17:16Z</time>
      </trkpt>
      <trkpt lat="48.47124" lon="7.10901">
        <ele>871</ele>
        <time>2023-07-05T13:17:44Z</time>
      </trkpt>
      <trkpt lat="48.47086" lon="7.10909">
        <ele>869</ele>
        <time>2023-07-05T13:18:16Z</time>
      </trkpt>
      <trkpt lat="48.47063" lon="7.10916">
        <ele>867</ele>
        <time>2023-07-05T13:18:36Z</time>
      </trkpt>
      <trkpt lat="48.47038" lon="7.1092">
        <ele>865</ele>
        <time>2023-07-05T13:18:56Z</time>
      </trkpt>
      <trkpt lat="48.46999" lon="7.10911">
        <ele>862</ele>
        <time>2023-07-05T13:19:28Z</time>
      </trkpt>
      <trkpt lat="48.46995" lon="7.1091">
        <ele>862</ele>
        <time>2023-07-05T13:19:32Z</time>
      </trkpt>
      <trkpt lat="48.4699" lon="7.10909">
        <ele>862</ele>
        <time>2023-07-05T13:19:36Z</time>
      </trkpt>
      <trkpt lat="48.46951" lon="7.10893">
        <ele>858</ele>
        <time>2023-07-05T13:20:09Z</time>
      </trkpt>
      <trkpt lat="48.46941" lon="7.10888">
        <ele>859</ele>
        <time>2023-07-05T13:20:17Z</time>
      </trkpt>
      <trkpt lat="48.46904" lon="7.10867">
        <ele>859</ele>
        <time>2023-07-05T13:20:47Z</time>
      </trkpt>
      <trkpt lat="48.46869" lon="7.1085">
        <ele>860</ele>
        <time>2023-07-05T13:21:20Z</time>
      </trkpt>
      <trkpt lat="48.46858" lon="7.10836">
        <ele>860</ele>
        <time>2023-07-05T13:21:34Z</time>
      </trkpt>
      <trkpt lat="48.46852" lon="7.10836">
        <ele>860</ele>
        <time>2023-07-05T13:21:41Z</time>
      </trkpt>
      <trkpt lat="48.46843" lon="7.10837">
        <ele>861</ele>
        <time>2023-07-05T13:21:50Z</time>
      </trkpt>
      <trkpt lat="48.46826" lon="7.10834">
        <ele>864</ele>
        <time>2023-07-05T13:22:09Z</time>
      </trkpt>
      <trkpt lat="48.46821" lon="7.10835">
        <ele>864</ele>
        <time>2023-07-05T13:22:13Z</time>
      </trkpt>
      <trkpt lat="48.46817" lon="7.10838">
        <ele>864</ele>
        <time>2023-07-05T13:22:17Z</time>
      </trkpt>
      <trkpt lat="48.46804" lon="7.10848">
        <ele>866</ele>
        <time>2023-07-05T13:22:34Z</time>
      </trkpt>
      <trkpt lat="48.468" lon="7.10851">
        <ele>866</ele>
        <time>2023-07-05T13:22:39Z</time>
      </trkpt>
      <trkpt lat="48.46794" lon="7.10857">
        <ele>869</ele>
        <time>2023-07-05T13:22:47Z</time>
      </trkpt>
      <trkpt lat="48.46781" lon="7.10866">
        <ele>869</ele>
        <time>2023-07-05T13:23:04Z</time>
      </trkpt>
      <trkpt lat="48.46759" lon="7.10888">
        <ele>873</ele>
        <time>2023-07-05T13:23:38Z</time>
      </trkpt>
      <trkpt lat="48.46755" lon="7.10891">
        <ele>874</ele>
        <time>2023-07-05T13:23:43Z</time>
      </trkpt>
      <trkpt lat="48.46752" lon="7.10894">
        <ele>874</ele>
        <time>2023-07-05T13:23:48Z</time>
      </trkpt>
      <trkpt lat="48.4673" lon="7.10917">
        <ele>876</ele>
        <time>2023-07-05T13:24:14Z</time>
      </trkpt>
      <trkpt lat="48.46722" lon="7.10923">
        <ele>876</ele>
        <time>2023-07-05T13:24:27Z</time>
      </trkpt>
      <trkpt lat="48.46717" lon="7.10924">
        <ele>877</ele>
        <time>2023-07-05T13:24:34Z</time>
      </trkpt>
      <trkpt lat="48.46709" lon="7.10921">
        <ele>877</ele>
        <time>2023-07-05T13:24:43Z</time>
      </trkpt>
      <trkpt lat="48.46704" lon="7.10922">
        <ele>877</ele>
        <time>2023-07-05T13:24:47Z</time>
      </trkpt>
      <trkpt lat="48.46692" lon="7.10918">
        <ele>877</ele>
        <time>2023-07-05T13:24:55Z</time>
      </trkpt>
      <trkpt lat="48.46685" lon="7.1092">
        <ele>878</ele>
        <time>2023-07-05T13:25:14Z</time>
      </trkpt>
      <trkpt lat="48.46679" lon="7.10922">
        <ele>878</ele>
        <time>2023-07-05T13:25:19Z</time>
      </trkpt>
      <trkpt lat="48.4666" lon="7.10914">
        <ele>879</ele>
        <time>2023-07-05T13:25:36Z</time>
      </trkpt>
      <trkpt lat="48.4665" lon="7.10913">
        <ele>879</ele>
        <time>2023-07-05T13:25:46Z</time>
      </trkpt>
      <trkpt lat="48.46645" lon="7.10911">
        <ele>880</ele>
        <time>2023-07-05T13:26:00Z</time>
      </trkpt>
      <trkpt lat="48.46644" lon="7.10922">
        <ele>879</ele>
        <time>2023-07-05T13:26:36Z</time>
      </trkpt>
      <trkpt lat="48.4664" lon="7.10913">
        <ele>879</ele>
        <time>2023-07-05T13:26:46Z</time>
      </trkpt>
      <trkpt lat="48.46631" lon="7.10912">
        <ele>880</ele>
        <time>2023-07-05T13:26:56Z</time>
      </trkpt>
      <trkpt lat="48.46625" lon="7.10911">
        <ele>881</ele>
        <time>2023-07-05T13:27:00Z</time>
      </trkpt>
      <trkpt lat="48.46606" lon="7.10925">
        <ele>883</ele>
        <time>2023-07-05T13:27:21Z</time>
      </trkpt>
      <trkpt lat="48.46602" lon="7.1093">
        <ele>883</ele>
        <time>2023-07-05T13:27:25Z</time>
      </trkpt>
      <trkpt lat="48.46598" lon="7.10932">
        <ele>884</ele>
        <time>2023-07-05T13:27:30Z</time>
      </trkpt>
      <trkpt lat="48.46593" lon="7.10946">
        <ele>886</ele>
        <time>2023-07-05T13:27:38Z</time>
      </trkpt>
      <trkpt lat="48.46589" lon="7.10952">
        <ele>886</ele>
        <time>2023-07-05T13:27:56Z</time>
      </trkpt>
      <trkpt lat="48.46579" lon="7.10956">
        <ele>887</ele>
        <time>2023-07-05T13:28:06Z</time>
      </trkpt>
      <trkpt lat="48.46574" lon="7.10963">
        <ele>887</ele>
        <time>2023-07-05T13:28:13Z</time>
      </trkpt>
      <trkpt lat="48.46569" lon="7.10969">
        <ele>888</ele>
        <time>2023-07-05T13:28:21Z</time>
      </trkpt>
      <trkpt lat="48.46561" lon="7.10984">
        <ele>890</ele>
        <time>2023-07-05T13:28:35Z</time>
      </trkpt>
      <trkpt lat="48.46557" lon="7.10987">
        <ele>891</ele>
        <time>2023-07-05T13:28:42Z</time>
      </trkpt>
      <trkpt lat="48.46552" lon="7.10987">
        <ele>892</ele>
        <time>2023-07-05T13:28:52Z</time>
      </trkpt>
      <trkpt lat="48.46547" lon="7.1099">
        <ele>893</ele>
        <time>2023-07-05T13:28:57Z</time>
      </trkpt>
      <trkpt lat="48.46543" lon="7.10994">
        <ele>893</ele>
        <time>2023-07-05T13:29:02Z</time>
      </trkpt>
      <trkpt lat="48.4654" lon="7.11">
        <ele>894</ele>
        <time>2023-07-05T13:29:07Z</time>
      </trkpt>
      <trkpt lat="48.46533" lon="7.11006">
        <ele>894</ele>
        <time>2023-07-05T13:29:16Z</time>
      </trkpt>
      <trkpt lat="48.46528" lon="7.11008">
        <ele>895</ele>
        <time>2023-07-05T13:29:26Z</time>
      </trkpt>
      <trkpt lat="48.46522" lon="7.10999">
        <ele>896</ele>
        <time>2023-07-05T13:29:59Z</time>
      </trkpt>
      <trkpt lat="48.46516" lon="7.10992">
        <ele>897</ele>
        <time>2023-07-05T13:30:11Z</time>
      </trkpt>
      <trkpt lat="48.46513" lon="7.11">
        <ele>897</ele>
        <time>2023-07-05T13:31:12Z</time>
      </trkpt>
      <trkpt lat="48.46514" lon="7.11008">
        <ele>898</ele>
        <time>2023-07-05T13:31:20Z</time>
      </trkpt>
      <trkpt lat="48.46509" lon="7.11009">
        <ele>898</ele>
        <time>2023-07-05T13:31:30Z</time>
      </trkpt>
      <trkpt lat="48.46504" lon="7.11002">
        <ele>899</ele>
        <time>2023-07-05T13:32:15Z</time>
      </trkpt>
      <trkpt lat="48.465" lon="7.10997">
        <ele>899</ele>
        <time>2023-07-05T13:32:20Z</time>
      </trkpt>
      <trkpt lat="48.46497" lon="7.10993">
        <ele>899</ele>
        <time>2023-07-05T13:32:28Z</time>
      </trkpt>
      <trkpt lat="48.46491" lon="7.10991">
        <ele>901</ele>
        <time>2023-07-05T13:32:38Z</time>
      </trkpt>
      <trkpt lat="48.4649" lon="7.10996">
        <ele>901</ele>
        <time>2023-07-05T13:33:24Z</time>
      </trkpt>
      <trkpt lat="48.46484" lon="7.11001">
        <ele>902</ele>
        <time>2023-07-05T13:34:00Z</time>
      </trkpt>
      <trkpt lat="48.4648" lon="7.11009">
        <ele>902</ele>
        <time>2023-07-05T13:34:15Z</time>
      </trkpt>
      <trkpt lat="48.4648" lon="7.11015">
        <ele>902</ele>
        <time>2023-07-05T13:34:21Z</time>
      </trkpt>
      <trkpt lat="48.46479" lon="7.11022">
        <ele>902</ele>
        <time>2023-07-05T13:34:25Z</time>
      </trkpt>
      <trkpt lat="48.46481" lon="7.11029">
        <ele>901</ele>
        <time>2023-07-05T13:34:31Z</time>
      </trkpt>
      <trkpt lat="48.4648" lon="7.11037">
        <ele>901</ele>
        <time>2023-07-05T13:34:37Z</time>
      </trkpt>
      <trkpt lat="48.46475" lon="7.11037">
        <ele>901</ele>
        <time>2023-07-05T13:34:44Z</time>
      </trkpt>
      <trkpt lat="48.46476" lon="7.11046">
        <ele>900</ele>
        <time>2023-07-05T13:34:52Z</time>
      </trkpt>
      <trkpt lat="48.46474" lon="7.11053">
        <ele>900</ele>
        <time>2023-07-05T13:34:56Z</time>
      </trkpt>
      <trkpt lat="48.46469" lon="7.11056">
        <ele>900</ele>
        <time>2023-07-05T13:35:00Z</time>
      </trkpt>
      <trkpt lat="48.46464" lon="7.11057">
        <ele>899</ele>
        <time>2023-07-05T13:35:07Z</time>
      </trkpt>
      <trkpt lat="48.46455" lon="7.11058">
        <ele>901</ele>
        <time>2023-07-05T13:35:16Z</time>
      </trkpt>
      <trkpt lat="48.46451" lon="7.11062">
        <ele>901</ele>
        <time>2023-07-05T13:35:28Z</time>
      </trkpt>
      <trkpt lat="48.46445" lon="7.11062">
        <ele>901</ele>
        <time>2023-07-05T13:35:34Z</time>
      </trkpt>
      <trkpt lat="48.46434" lon="7.11063">
        <ele>902</ele>
        <time>2023-07-05T13:35:45Z</time>
      </trkpt>
      <trkpt lat="48.46426" lon="7.11066">
        <ele>902</ele>
        <time>2023-07-05T13:35:53Z</time>
      </trkpt>
      <trkpt lat="48.46417" lon="7.11065">
        <ele>901</ele>
        <time>2023-07-05T13:36:01Z</time>
      </trkpt>
      <trkpt lat="48.46413" lon="7.11064">
        <ele>901</ele>
        <time>2023-07-05T13:36:04Z</time>
      </trkpt>
      <trkpt lat="48.46408" lon="7.11066">
        <ele>902</ele>
        <time>2023-07-05T13:36:07Z</time>
      </trkpt>
      <trkpt lat="48.46404" lon="7.11063">
        <ele>902</ele>
        <time>2023-07-05T13:36:11Z</time>
      </trkpt>
      <trkpt lat="48.46403" lon="7.11069">
        <ele>902</ele>
        <time>2023-07-05T13:36:22Z</time>
      </trkpt>
      <trkpt lat="48.46398" lon="7.11063">
        <ele>901</ele>
        <time>2023-07-05T13:36:42Z</time>
      </trkpt>
      <trkpt lat="48.46387" lon="7.11063">
        <ele>902</ele>
        <time>2023-07-05T13:36:52Z</time>
      </trkpt>
      <trkpt lat="48.46367" lon="7.11063">
        <ele>900</ele>
        <time>2023-07-05T13:37:09Z</time>
      </trkpt>
      <trkpt lat="48.46361" lon="7.11065">
        <ele>900</ele>
        <time>2023-07-05T13:37:15Z</time>
      </trkpt>
      <trkpt lat="48.46348" lon="7.11064">
        <ele>899</ele>
        <time>2023-07-05T13:37:27Z</time>
      </trkpt>
      <trkpt lat="48.46336" lon="7.1106">
        <ele>898</ele>
        <time>2023-07-05T13:37:37Z</time>
      </trkpt>
      <trkpt lat="48.46332" lon="7.11059">
        <ele>898</ele>
        <time>2023-07-05T13:37:41Z</time>
      </trkpt>
      <trkpt lat="48.46323" lon="7.11059">
        <ele>898</ele>
        <time>2023-07-05T13:37:51Z</time>
      </trkpt>
      <trkpt lat="48.4631" lon="7.11054">
        <ele>898</ele>
        <time>2023-07-05T13:38:02Z</time>
      </trkpt>
      <trkpt lat="48.46297" lon="7.11048">
        <ele>898</ele>
        <time>2023-07-05T13:38:14Z</time>
      </trkpt>
      <trkpt lat="48.46283" lon="7.11043">
        <ele>898</ele>
        <time>2023-07-05T13:38:25Z</time>
      </trkpt>
      <trkpt lat="48.46278" lon="7.11042">
        <ele>898</ele>
        <time>2023-07-05T13:38:29Z</time>
      </trkpt>
      <trkpt lat="48.46267" lon="7.11038">
        <ele>899</ele>
        <time>2023-07-05T13:38:40Z</time>
      </trkpt>
      <trkpt lat="48.46263" lon="7.11035">
        <ele>899</ele>
        <time>2023-07-05T13:38:45Z</time>
      </trkpt>
      <trkpt lat="48.46258" lon="7.11034">
        <ele>900</ele>
        <time>2023-07-05T13:38:49Z</time>
      </trkpt>
      <trkpt lat="48.46253" lon="7.1103">
        <ele>899</ele>
        <time>2023-07-05T13:38:55Z</time>
      </trkpt>
      <trkpt lat="48.46244" lon="7.11026">
        <ele>900</ele>
        <time>2023-07-05T13:39:04Z</time>
      </trkpt>
      <trkpt lat="48.4624" lon="7.11023">
        <ele>900</ele>
        <time>2023-07-05T13:39:09Z</time>
      </trkpt>
      <trkpt lat="48.46236" lon="7.11019">
        <ele>900</ele>
        <time>2023-07-05T13:39:13Z</time>
      </trkpt>
      <trkpt lat="48.46232" lon="7.11015">
        <ele>900</ele>
        <time>2023-07-05T13:39:17Z</time>
      </trkpt>
      <trkpt lat="48.46215" lon="7.11008">
        <ele>900</ele>
        <time>2023-07-05T13:39:32Z</time>
      </trkpt>
      <trkpt lat="48.4621" lon="7.11007">
        <ele>900</ele>
        <time>2023-07-05T13:39:36Z</time>
      </trkpt>
      <trkpt lat="48.46207" lon="7.11003">
        <ele>900</ele>
        <time>2023-07-05T13:39:40Z</time>
      </trkpt>
      <trkpt lat="48.46201" lon="7.11001">
        <ele>900</ele>
        <time>2023-07-05T13:39:44Z</time>
      </trkpt>
      <trkpt lat="48.46177" lon="7.10983">
        <ele>900</ele>
        <time>2023-07-05T13:40:08Z</time>
      </trkpt>
      <trkpt lat="48.46171" lon="7.10982">
        <ele>900</ele>
        <time>2023-07-05T13:40:13Z</time>
      </trkpt>
      <trkpt lat="48.46161" lon="7.10973">
        <ele>900</ele>
        <time>2023-07-05T13:40:22Z</time>
      </trkpt>
      <trkpt lat="48.46156" lon="7.10969">
        <ele>900</ele>
        <time>2023-07-05T13:40:27Z</time>
      </trkpt>
      <trkpt lat="48.46151" lon="7.10965">
        <ele>900</ele>
        <time>2023-07-05T13:40:32Z</time>
      </trkpt>
      <trkpt lat="48.46124" lon="7.10952">
        <ele>901</ele>
        <time>2023-07-05T13:40:58Z</time>
      </trkpt>
      <trkpt lat="48.46117" lon="7.10947">
        <ele>900</ele>
        <time>2023-07-05T13:41:08Z</time>
      </trkpt>
      <trkpt lat="48.46113" lon="7.10944">
        <ele>900</ele>
        <time>2023-07-05T13:41:33Z</time>
      </trkpt>
      <trkpt lat="48.46109" lon="7.1094">
        <ele>900</ele>
        <time>2023-07-05T13:41:38Z</time>
      </trkpt>
      <trkpt lat="48.46105" lon="7.10936">
        <ele>900</ele>
        <time>2023-07-05T13:41:43Z</time>
      </trkpt>
      <trkpt lat="48.46099" lon="7.10932">
        <ele>900</ele>
        <time>2023-07-05T13:41:49Z</time>
      </trkpt>
      <trkpt lat="48.46091" lon="7.10923">
        <ele>900</ele>
        <time>2023-07-05T13:41:58Z</time>
      </trkpt>
      <trkpt lat="48.46083" lon="7.10918">
        <ele>900</ele>
        <time>2023-07-05T13:42:05Z</time>
      </trkpt>
      <trkpt lat="48.46067" lon="7.10902">
        <ele>900</ele>
        <time>2023-07-05T13:42:21Z</time>
      </trkpt>
      <trkpt lat="48.46059" lon="7.10893">
        <ele>899</ele>
        <time>2023-07-05T13:42:29Z</time>
      </trkpt>
      <trkpt lat="48.46052" lon="7.10885">
        <ele>899</ele>
        <time>2023-07-05T13:42:37Z</time>
      </trkpt>
      <trkpt lat="48.46043" lon="7.10878">
        <ele>900</ele>
        <time>2023-07-05T13:42:46Z</time>
      </trkpt>
      <trkpt lat="48.46038" lon="7.10872">
        <ele>900</ele>
        <time>2023-07-05T13:42:52Z</time>
      </trkpt>
      <trkpt lat="48.46035" lon="7.10868">
        <ele>900</ele>
        <time>2023-07-05T13:42:56Z</time>
      </trkpt>
      <trkpt lat="48.46031" lon="7.10863">
        <ele>900</ele>
        <time>2023-07-05T13:43:00Z</time>
      </trkpt>
      <trkpt lat="48.46021" lon="7.10848">
        <ele>899</ele>
        <time>2023-07-05T13:43:12Z</time>
      </trkpt>
      <trkpt lat="48.46019" lon="7.10844">
        <ele>899</ele>
        <time>2023-07-05T13:43:15Z</time>
      </trkpt>
      <trkpt lat="48.46015" lon="7.10839">
        <ele>899</ele>
        <time>2023-07-05T13:43:19Z</time>
      </trkpt>
      <trkpt lat="48.4601" lon="7.10837">
        <ele>899</ele>
        <time>2023-07-05T13:43:23Z</time>
      </trkpt>
      <trkpt lat="48.45999" lon="7.10824">
        <ele>899</ele>
        <time>2023-07-05T13:43:35Z</time>
      </trkpt>
      <trkpt lat="48.45993" lon="7.10814">
        <ele>898</ele>
        <time>2023-07-05T13:43:43Z</time>
      </trkpt>
      <trkpt lat="48.45985" lon="7.10805">
        <ele>898</ele>
        <time>2023-07-05T13:43:50Z</time>
      </trkpt>
      <trkpt lat="48.45972" lon="7.1079">
        <ele>897</ele>
        <time>2023-07-05T13:44:03Z</time>
      </trkpt>
      <trkpt lat="48.45968" lon="7.10784">
        <ele>897</ele>
        <time>2023-07-05T13:44:08Z</time>
      </trkpt>
      <trkpt lat="48.45948" lon="7.10755">
        <ele>896</ele>
        <time>2023-07-05T13:44:32Z</time>
      </trkpt>
      <trkpt lat="48.45945" lon="7.1075">
        <ele>897</ele>
        <time>2023-07-05T13:44:36Z</time>
      </trkpt>
      <trkpt lat="48.45942" lon="7.10745">
        <ele>897</ele>
        <time>2023-07-05T13:44:40Z</time>
      </trkpt>
      <trkpt lat="48.45939" lon="7.10741">
        <ele>897</ele>
        <time>2023-07-05T13:44:43Z</time>
      </trkpt>
      <trkpt lat="48.45936" lon="7.10735">
        <ele>897</ele>
        <time>2023-07-05T13:44:48Z</time>
      </trkpt>
      <trkpt lat="48.45928" lon="7.10726">
        <ele>898</ele>
        <time>2023-07-05T13:44:56Z</time>
      </trkpt>
      <trkpt lat="48.45925" lon="7.10721">
        <ele>898</ele>
        <time>2023-07-05T13:45:00Z</time>
      </trkpt>
      <trkpt lat="48.45921" lon="7.10717">
        <ele>898</ele>
        <time>2023-07-05T13:45:03Z</time>
      </trkpt>
      <trkpt lat="48.45918" lon="7.10713">
        <ele>898</ele>
        <time>2023-07-05T13:45:07Z</time>
      </trkpt>
      <trkpt lat="48.45915" lon="7.10708">
        <ele>898</ele>
        <time>2023-07-05T13:45:11Z</time>
      </trkpt>
      <trkpt lat="48.45911" lon="7.10703">
        <ele>898</ele>
        <time>2023-07-05T13:45:15Z</time>
      </trkpt>
      <trkpt lat="48.45899" lon="7.1069">
        <ele>898</ele>
        <time>2023-07-05T13:45:27Z</time>
      </trkpt>
      <trkpt lat="48.45892" lon="7.1068">
        <ele>898</ele>
        <time>2023-07-05T13:45:36Z</time>
      </trkpt>
      <trkpt lat="48.45888" lon="7.10676">
        <ele>898</ele>
        <time>2023-07-05T13:45:40Z</time>
      </trkpt>
      <trkpt lat="48.45884" lon="7.10671">
        <ele>898</ele>
        <time>2023-07-05T13:45:44Z</time>
      </trkpt>
      <trkpt lat="48.45865" lon="7.1065">
        <ele>896</ele>
        <time>2023-07-05T13:46:05Z</time>
      </trkpt>
      <trkpt lat="48.45862" lon="7.10647">
        <ele>897</ele>
        <time>2023-07-05T13:46:08Z</time>
      </trkpt>
      <trkpt lat="48.45856" lon="7.10642">
        <ele>896</ele>
        <time>2023-07-05T13:46:14Z</time>
      </trkpt>
      <trkpt lat="48.45852" lon="7.10639">
        <ele>896</ele>
        <time>2023-07-05T13:46:17Z</time>
      </trkpt>
      <trkpt lat="48.45847" lon="7.10635">
        <ele>896</ele>
        <time>2023-07-05T13:46:21Z</time>
      </trkpt>
      <trkpt lat="48.45838" lon="7.10631">
        <ele>896</ele>
        <time>2023-07-05T13:46:29Z</time>
      </trkpt>
      <trkpt lat="48.45834" lon="7.10629">
        <ele>896</ele>
        <time>2023-07-05T13:46:33Z</time>
      </trkpt>
      <trkpt lat="48.45829" lon="7.10628">
        <ele>896</ele>
        <time>2023-07-05T13:46:38Z</time>
      </trkpt>
      <trkpt lat="48.45825" lon="7.10625">
        <ele>895</ele>
        <time>2023-07-05T13:46:41Z</time>
      </trkpt>
      <trkpt lat="48.4582" lon="7.10623">
        <ele>895</ele>
        <time>2023-07-05T13:46:46Z</time>
      </trkpt>
      <trkpt lat="48.45815" lon="7.10621">
        <ele>895</ele>
        <time>2023-07-05T13:46:50Z</time>
      </trkpt>
      <trkpt lat="48.45808" lon="7.10612">
        <ele>896</ele>
        <time>2023-07-05T13:46:59Z</time>
      </trkpt>
      <trkpt lat="48.45798" lon="7.10603">
        <ele>895</ele>
        <time>2023-07-05T13:47:10Z</time>
      </trkpt>
      <trkpt lat="48.45793" lon="7.106">
        <ele>895</ele>
        <time>2023-07-05T13:47:14Z</time>
      </trkpt>
      <trkpt lat="48.4579" lon="7.10596">
        <ele>896</ele>
        <time>2023-07-05T13:47:17Z</time>
      </trkpt>
      <trkpt lat="48.45778" lon="7.1059">
        <ele>897</ele>
        <time>2023-07-05T13:47:29Z</time>
      </trkpt>
      <trkpt lat="48.45775" lon="7.10584">
        <ele>898</ele>
        <time>2023-07-05T13:47:37Z</time>
      </trkpt>
      <trkpt lat="48.4577" lon="7.10579">
        <ele>899</ele>
        <time>2023-07-05T13:47:42Z</time>
      </trkpt>
      <trkpt lat="48.45757" lon="7.10568">
        <ele>899</ele>
        <time>2023-07-05T13:47:54Z</time>
      </trkpt>
      <trkpt lat="48.45747" lon="7.1056">
        <ele>900</ele>
        <time>2023-07-05T13:48:08Z</time>
      </trkpt>
      <trkpt lat="48.45723" lon="7.10551">
        <ele>902</ele>
        <time>2023-07-05T13:48:29Z</time>
      </trkpt>
      <trkpt lat="48.4572" lon="7.10547">
        <ele>902</ele>
        <time>2023-07-05T13:48:33Z</time>
      </trkpt>
      <trkpt lat="48.45705" lon="7.10541">
        <ele>903</ele>
        <time>2023-07-05T13:48:49Z</time>
      </trkpt>
      <trkpt lat="48.45692" lon="7.10531">
        <ele>904</ele>
        <time>2023-07-05T13:49:05Z</time>
      </trkpt>
      <trkpt lat="48.45687" lon="7.10533">
        <ele>904</ele>
        <time>2023-07-05T13:49:07Z</time>
      </trkpt>
      <trkpt lat="48.45681" lon="7.10531">
        <ele>904</ele>
        <time>2023-07-05T13:49:13Z</time>
      </trkpt>
      <trkpt lat="48.45676" lon="7.10532">
        <ele>904</ele>
        <time>2023-07-05T13:49:21Z</time>
      </trkpt>
      <trkpt lat="48.45671" lon="7.10535">
        <ele>904</ele>
        <time>2023-07-05T13:49:36Z</time>
      </trkpt>
      <trkpt lat="48.45672" lon="7.10526">
        <ele>904</ele>
        <time>2023-07-05T13:49:42Z</time>
      </trkpt>
      <trkpt lat="48.45667" lon="7.10525">
        <ele>904</ele>
        <time>2023-07-05T13:49:53Z</time>
      </trkpt>
      <trkpt lat="48.45661" lon="7.10518">
        <ele>904</ele>
        <time>2023-07-05T13:49:59Z</time>
      </trkpt>
      <trkpt lat="48.45656" lon="7.10516">
        <ele>904</ele>
        <time>2023-07-05T13:50:03Z</time>
      </trkpt>
      <trkpt lat="48.45643" lon="7.10511">
        <ele>905</ele>
        <time>2023-07-05T13:50:18Z</time>
      </trkpt>
      <trkpt lat="48.45639" lon="7.10508">
        <ele>905</ele>
        <time>2023-07-05T13:50:22Z</time>
      </trkpt>
      <trkpt lat="48.45633" lon="7.10503">
        <ele>905</ele>
        <time>2023-07-05T13:50:31Z</time>
      </trkpt>
      <trkpt lat="48.45628" lon="7.10503">
        <ele>905</ele>
        <time>2023-07-05T13:50:46Z</time>
      </trkpt>
      <trkpt lat="48.45624" lon="7.10499">
        <ele>905</ele>
        <time>2023-07-05T13:50:49Z</time>
      </trkpt>
      <trkpt lat="48.45614" lon="7.10497">
        <ele>905</ele>
        <time>2023-07-05T13:51:00Z</time>
      </trkpt>
      <trkpt lat="48.45609" lon="7.10496">
        <ele>906</ele>
        <time>2023-07-05T13:51:04Z</time>
      </trkpt>
      <trkpt lat="48.45602" lon="7.10492">
        <ele>906</ele>
        <time>2023-07-05T13:51:13Z</time>
      </trkpt>
      <trkpt lat="48.45592" lon="7.10492">
        <ele>906</ele>
        <time>2023-07-05T13:51:50Z</time>
      </trkpt>
      <trkpt lat="48.45584" lon="7.10487">
        <ele>906</ele>
        <time>2023-07-05T13:51:59Z</time>
      </trkpt>
      <trkpt lat="48.45579" lon="7.10487">
        <ele>906</ele>
        <time>2023-07-05T13:52:03Z</time>
      </trkpt>
      <trkpt lat="48.45562" lon="7.10476">
        <ele>906</ele>
        <time>2023-07-05T13:52:21Z</time>
      </trkpt>
      <trkpt lat="48.45552" lon="7.10472">
        <ele>907</ele>
        <time>2023-07-05T13:52:33Z</time>
      </trkpt>
      <trkpt lat="48.45548" lon="7.1047">
        <ele>908</ele>
        <time>2023-07-05T13:52:37Z</time>
      </trkpt>
      <trkpt lat="48.45541" lon="7.1046">
        <ele>908</ele>
        <time>2023-07-05T13:52:46Z</time>
      </trkpt>
      <trkpt lat="48.45532" lon="7.10454">
        <ele>908</ele>
        <time>2023-07-05T13:52:54Z</time>
      </trkpt>
      <trkpt lat="48.45527" lon="7.10447">
        <ele>909</ele>
        <time>2023-07-05T13:53:02Z</time>
      </trkpt>
      <trkpt lat="48.45522" lon="7.1044">
        <ele>909</ele>
        <time>2023-07-05T13:53:10Z</time>
      </trkpt>
      <trkpt lat="48.45518" lon="7.10436">
        <ele>909</ele>
        <time>2023-07-05T13:53:13Z</time>
      </trkpt>
      <trkpt lat="48.45512" lon="7.10432">
        <ele>909</ele>
        <time>2023-07-05T13:53:20Z</time>
      </trkpt>
      <trkpt lat="48.45508" lon="7.10428">
        <ele>909</ele>
        <time>2023-07-05T13:53:24Z</time>
      </trkpt>
      <trkpt lat="48.45494" lon="7.10419">
        <ele>909</ele>
        <time>2023-07-05T13:53:37Z</time>
      </trkpt>
      <trkpt lat="48.45481" lon="7.10407">
        <ele>909</ele>
        <time>2023-07-05T13:53:50Z</time>
      </trkpt>
      <trkpt lat="48.45477" lon="7.10403">
        <ele>909</ele>
        <time>2023-07-05T13:53:54Z</time>
      </trkpt>
      <trkpt lat="48.45469" lon="7.10393">
        <ele>909</ele>
        <time>2023-07-05T13:54:03Z</time>
      </trkpt>
      <trkpt lat="48.45465" lon="7.10389">
        <ele>909</ele>
        <time>2023-07-05T13:54:11Z</time>
      </trkpt>
      <trkpt lat="48.4546" lon="7.10384">
        <ele>909</ele>
        <time>2023-07-05T13:54:21Z</time>
      </trkpt>
      <trkpt lat="48.45453" lon="7.10376">
        <ele>908</ele>
        <time>2023-07-05T13:54:29Z</time>
      </trkpt>
      <trkpt lat="48.45446" lon="7.10366">
        <ele>908</ele>
        <time>2023-07-05T13:54:37Z</time>
      </trkpt>
      <trkpt lat="48.45442" lon="7.1036">
        <ele>908</ele>
        <time>2023-07-05T13:54:41Z</time>
      </trkpt>
      <trkpt lat="48.45436" lon="7.1035">
        <ele>908</ele>
        <time>2023-07-05T13:54:49Z</time>
      </trkpt>
      <trkpt lat="48.45433" lon="7.10345">
        <ele>908</ele>
        <time>2023-07-05T13:54:53Z</time>
      </trkpt>
      <trkpt lat="48.45428" lon="7.10342">
        <ele>908</ele>
        <time>2023-07-05T13:54:57Z</time>
      </trkpt>
      <trkpt lat="48.4542" lon="7.10336">
        <ele>908</ele>
        <time>2023-07-05T13:55:05Z</time>
      </trkpt>
      <trkpt lat="48.45411" lon="7.10334">
        <ele>908</ele>
        <time>2023-07-05T13:55:13Z</time>
      </trkpt>
      <trkpt lat="48.45389" lon="7.10318">
        <ele>907</ele>
        <time>2023-07-05T13:55:35Z</time>
      </trkpt>
      <trkpt lat="48.45371" lon="7.10296">
        <ele>907</ele>
        <time>2023-07-05T13:55:55Z</time>
      </trkpt>
      <trkpt lat="48.45364" lon="7.10287">
        <ele>905</ele>
        <time>2023-07-05T13:56:03Z</time>
      </trkpt>
      <trkpt lat="48.4536" lon="7.10283">
        <ele>905</ele>
        <time>2023-07-05T13:56:07Z</time>
      </trkpt>
      <trkpt lat="48.45356" lon="7.10279">
        <ele>905</ele>
        <time>2023-07-05T13:56:11Z</time>
      </trkpt>
      <trkpt lat="48.45353" lon="7.10274">
        <ele>905</ele>
        <time>2023-07-05T13:56:15Z</time>
      </trkpt>
      <trkpt lat="48.45346" lon="7.10263">
        <ele>905</ele>
        <time>2023-07-05T13:56:24Z</time>
      </trkpt>
      <trkpt lat="48.4532" lon="7.10236">
        <ele>903</ele>
        <time>2023-07-05T13:56:56Z</time>
      </trkpt>
      <trkpt lat="48.45312" lon="7.10228">
        <ele>903</ele>
        <time>2023-07-05T13:57:04Z</time>
      </trkpt>
      <trkpt lat="48.453" lon="7.10215">
        <ele>902</ele>
        <time>2023-07-05T13:57:16Z</time>
      </trkpt>
      <trkpt lat="48.45296" lon="7.10212">
        <ele>902</ele>
        <time>2023-07-05T13:57:20Z</time>
      </trkpt>
      <trkpt lat="48.45292" lon="7.10209">
        <ele>902</ele>
        <time>2023-07-05T13:57:24Z</time>
      </trkpt>
      <trkpt lat="48.45289" lon="7.10204">
        <ele>902</ele>
        <time>2023-07-05T13:57:27Z</time>
      </trkpt>
      <trkpt lat="48.45285" lon="7.102">
        <ele>902</ele>
        <time>2023-07-05T13:57:31Z</time>
      </trkpt>
      <trkpt lat="48.45281" lon="7.10196">
        <ele>902</ele>
        <time>2023-07-05T13:57:35Z</time>
      </trkpt>
      <trkpt lat="48.45268" lon="7.10185">
        <ele>902</ele>
        <time>2023-07-05T13:57:47Z</time>
      </trkpt>
      <trkpt lat="48.45263" lon="7.10185">
        <ele>902</ele>
        <time>2023-07-05T13:57:51Z</time>
      </trkpt>
      <trkpt lat="48.45234" lon="7.1016">
        <ele>901</ele>
        <time>2023-07-05T13:58:21Z</time>
      </trkpt>
      <trkpt lat="48.4523" lon="7.10154">
        <ele>901</ele>
        <time>2023-07-05T13:58:25Z</time>
      </trkpt>
      <trkpt lat="48.45225" lon="7.10151">
        <ele>900</ele>
        <time>2023-07-05T13:58:29Z</time>
      </trkpt>
      <trkpt lat="48.4522" lon="7.10148">
        <ele>900</ele>
        <time>2023-07-05T13:58:34Z</time>
      </trkpt>
      <trkpt lat="48.45186" lon="7.10123">
        <ele>898</ele>
        <time>2023-07-05T13:59:05Z</time>
      </trkpt>
      <trkpt lat="48.45182" lon="7.1012">
        <ele>899</ele>
        <time>2023-07-05T13:59:09Z</time>
      </trkpt>
      <trkpt lat="48.45167" lon="7.10114">
        <ele>899</ele>
        <time>2023-07-05T13:59:20Z</time>
      </trkpt>
      <trkpt lat="48.45153" lon="7.10114">
        <ele>898</ele>
        <time>2023-07-05T13:59:32Z</time>
      </trkpt>
      <trkpt lat="48.45147" lon="7.10111">
        <ele>898</ele>
        <time>2023-07-05T13:59:38Z</time>
      </trkpt>
      <trkpt lat="48.45137" lon="7.1011">
        <ele>897</ele>
        <time>2023-07-05T13:59:47Z</time>
      </trkpt>
      <trkpt lat="48.45133" lon="7.10109">
        <ele>897</ele>
        <time>2023-07-05T13:59:50Z</time>
      </trkpt>
      <trkpt lat="48.45124" lon="7.10106">
        <ele>896</ele>
        <time>2023-07-05T13:59:58Z</time>
      </trkpt>
      <trkpt lat="48.45113" lon="7.10098">
        <ele>895</ele>
        <time>2023-07-05T14:00:07Z</time>
      </trkpt>
      <trkpt lat="48.45109" lon="7.10099">
        <ele>895</ele>
        <time>2023-07-05T14:00:11Z</time>
      </trkpt>
      <trkpt lat="48.45105" lon="7.10098">
        <ele>895</ele>
        <time>2023-07-05T14:00:14Z</time>
      </trkpt>
      <trkpt lat="48.45099" lon="7.10099">
        <ele>894</ele>
        <time>2023-07-05T14:00:19Z</time>
      </trkpt>
      <trkpt lat="48.45093" lon="7.10098">
        <ele>895</ele>
        <time>2023-07-05T14:00:25Z</time>
      </trkpt>
      <trkpt lat="48.45088" lon="7.10097">
        <ele>895</ele>
        <time>2023-07-05T14:00:29Z</time>
      </trkpt>
      <trkpt lat="48.45065" lon="7.10092">
        <ele>894</ele>
        <time>2023-07-05T14:00:49Z</time>
      </trkpt>
      <trkpt lat="48.45061" lon="7.10094">
        <ele>894</ele>
        <time>2023-07-05T14:00:54Z</time>
      </trkpt>
      <trkpt lat="48.45056" lon="7.10091">
        <ele>894</ele>
        <time>2023-07-05T14:00:59Z</time>
      </trkpt>
      <trkpt lat="48.45046" lon="7.10088">
        <ele>895</ele>
        <time>2023-07-05T14:01:09Z</time>
      </trkpt>
      <trkpt lat="48.45036" lon="7.10085">
        <ele>895</ele>
        <time>2023-07-05T14:01:17Z</time>
      </trkpt>
      <trkpt lat="48.45027" lon="7.1008">
        <ele>895</ele>
        <time>2023-07-05T14:01:25Z</time>
      </trkpt>
      <trkpt lat="48.45022" lon="7.10078">
        <ele>895</ele>
        <time>2023-07-05T14:01:29Z</time>
      </trkpt>
      <trkpt lat="48.45003" lon="7.10071">
        <ele>894</ele>
        <time>2023-07-05T14:01:45Z</time>
      </trkpt>
      <trkpt lat="48.44999" lon="7.10067">
        <ele>894</ele>
        <time>2023-07-05T14:01:49Z</time>
      </trkpt>
      <trkpt lat="48.44994" lon="7.10066">
        <ele>894</ele>
        <time>2023-07-05T14:01:53Z</time>
      </trkpt>
      <trkpt lat="48.44989" lon="7.10065">
        <ele>894</ele>
        <time>2023-07-05T14:01:57Z</time>
      </trkpt>
      <trkpt lat="48.4496" lon="7.10068">
        <ele>894</ele>
        <time>2023-07-05T14:02:22Z</time>
      </trkpt>
      <trkpt lat="48.44956" lon="7.10069">
        <ele>893</ele>
        <time>2023-07-05T14:02:26Z</time>
      </trkpt>
      <trkpt lat="48.44941" lon="7.10069">
        <ele>893</ele>
        <time>2023-07-05T14:02:38Z</time>
      </trkpt>
      <trkpt lat="48.44937" lon="7.10072">
        <ele>893</ele>
        <time>2023-07-05T14:02:42Z</time>
      </trkpt>
      <trkpt lat="48.44928" lon="7.10074">
        <ele>892</ele>
        <time>2023-07-05T14:02:50Z</time>
      </trkpt>
      <trkpt lat="48.44923" lon="7.10076">
        <ele>893</ele>
        <time>2023-07-05T14:02:54Z</time>
      </trkpt>
      <trkpt lat="48.44918" lon="7.10076">
        <ele>893</ele>
        <time>2023-07-05T14:02:59Z</time>
      </trkpt>
      <trkpt lat="48.44914" lon="7.10077">
        <ele>893</ele>
        <time>2023-07-05T14:03:03Z</time>
      </trkpt>
      <trkpt lat="48.44895" lon="7.10083">
        <ele>893</ele>
        <time>2023-07-05T14:03:20Z</time>
      </trkpt>
      <trkpt lat="48.4488" lon="7.10087">
        <ele>893</ele>
        <time>2023-07-05T14:03:33Z</time>
      </trkpt>
      <trkpt lat="48.44877" lon="7.1009">
        <ele>892</ele>
        <time>2023-07-05T14:03:42Z</time>
      </trkpt>
      <trkpt lat="48.44868" lon="7.10092">
        <ele>892</ele>
        <time>2023-07-05T14:04:19Z</time>
      </trkpt>
      <trkpt lat="48.44863" lon="7.1009">
        <ele>891</ele>
        <time>2023-07-05T14:04:24Z</time>
      </trkpt>
      <trkpt lat="48.44858" lon="7.10092">
        <ele>892</ele>
        <time>2023-07-05T14:04:28Z</time>
      </trkpt>
      <trkpt lat="48.44853" lon="7.10094">
        <ele>892</ele>
        <time>2023-07-05T14:04:32Z</time>
      </trkpt>
      <trkpt lat="48.44848" lon="7.10096">
        <ele>892</ele>
        <time>2023-07-05T14:04:36Z</time>
      </trkpt>
      <trkpt lat="48.44839" lon="7.10096">
        <ele>891</ele>
        <time>2023-07-05T14:04:44Z</time>
      </trkpt>
      <trkpt lat="48.44835" lon="7.10099">
        <ele>891</ele>
        <time>2023-07-05T14:04:56Z</time>
      </trkpt>
      <trkpt lat="48.44825" lon="7.10102">
        <ele>891</ele>
        <time>2023-07-05T14:05:06Z</time>
      </trkpt>
      <trkpt lat="48.4482" lon="7.10103">
        <ele>891</ele>
        <time>2023-07-05T14:05:10Z</time>
      </trkpt>
      <trkpt lat="48.44808" lon="7.10113">
        <ele>891</ele>
        <time>2023-07-05T14:05:22Z</time>
      </trkpt>
      <trkpt lat="48.44803" lon="7.10114">
        <ele>891</ele>
        <time>2023-07-05T14:05:26Z</time>
      </trkpt>
      <trkpt lat="48.44781" lon="7.10125">
        <ele>891</ele>
        <time>2023-07-05T14:05:47Z</time>
      </trkpt>
      <trkpt lat="48.44777" lon="7.10128">
        <ele>891</ele>
        <time>2023-07-05T14:05:51Z</time>
      </trkpt>
      <trkpt lat="48.44773" lon="7.1013">
        <ele>891</ele>
        <time>2023-07-05T14:05:55Z</time>
      </trkpt>
      <trkpt lat="48.44767" lon="7.10135">
        <ele>892</ele>
        <time>2023-07-05T14:06:02Z</time>
      </trkpt>
      <trkpt lat="48.44763" lon="7.10138">
        <ele>892</ele>
        <time>2023-07-05T14:06:06Z</time>
      </trkpt>
      <trkpt lat="48.44759" lon="7.10141">
        <ele>892</ele>
        <time>2023-07-05T14:06:11Z</time>
      </trkpt>
      <trkpt lat="48.44753" lon="7.10145">
        <ele>892</ele>
        <time>2023-07-05T14:06:28Z</time>
      </trkpt>
      <trkpt lat="48.44746" lon="7.10154">
        <ele>893</ele>
        <time>2023-07-05T14:06:37Z</time>
      </trkpt>
      <trkpt lat="48.44738" lon="7.10164">
        <ele>892</ele>
        <time>2023-07-05T14:06:45Z</time>
      </trkpt>
      <trkpt lat="48.44735" lon="7.1017">
        <ele>892</ele>
        <time>2023-07-05T14:06:49Z</time>
      </trkpt>
      <trkpt lat="48.44731" lon="7.10172">
        <ele>892</ele>
        <time>2023-07-05T14:06:53Z</time>
      </trkpt>
      <trkpt lat="48.44723" lon="7.10182">
        <ele>893</ele>
        <time>2023-07-05T14:07:02Z</time>
      </trkpt>
      <trkpt lat="48.44718" lon="7.10193">
        <ele>894</ele>
        <time>2023-07-05T14:07:11Z</time>
      </trkpt>
      <trkpt lat="48.44714" lon="7.1019">
        <ele>895</ele>
        <time>2023-07-05T14:08:37Z</time>
      </trkpt>
      <trkpt lat="48.44702" lon="7.10208">
        <ele>897</ele>
        <time>2023-07-05T14:08:54Z</time>
      </trkpt>
      <trkpt lat="48.44694" lon="7.10218">
        <ele>897</ele>
        <time>2023-07-05T14:09:03Z</time>
      </trkpt>
      <trkpt lat="48.44692" lon="7.10223">
        <ele>897</ele>
        <time>2023-07-05T14:09:07Z</time>
      </trkpt>
      <trkpt lat="48.44687" lon="7.10227">
        <ele>897</ele>
        <time>2023-07-05T14:09:11Z</time>
      </trkpt>
      <trkpt lat="48.44683" lon="7.10231">
        <ele>897</ele>
        <time>2023-07-05T14:09:15Z</time>
      </trkpt>
      <trkpt lat="48.44679" lon="7.10234">
        <ele>898</ele>
        <time>2023-07-05T14:09:19Z</time>
      </trkpt>
      <trkpt lat="48.44671" lon="7.10241">
        <ele>899</ele>
        <time>2023-07-05T14:09:27Z</time>
      </trkpt>
      <trkpt lat="48.44668" lon="7.10247">
        <ele>899</ele>
        <time>2023-07-05T14:09:31Z</time>
      </trkpt>
      <trkpt lat="48.44658" lon="7.10253">
        <ele>900</ele>
        <time>2023-07-05T14:09:41Z</time>
      </trkpt>
      <trkpt lat="48.44644" lon="7.10273">
        <ele>900</ele>
        <time>2023-07-05T14:09:58Z</time>
      </trkpt>
      <trkpt lat="48.44635" lon="7.1028">
        <ele>901</ele>
        <time>2023-07-05T14:10:10Z</time>
      </trkpt>
      <trkpt lat="48.4463" lon="7.10282">
        <ele>902</ele>
        <time>2023-07-05T14:10:15Z</time>
      </trkpt>
      <trkpt lat="48.44627" lon="7.10276">
        <ele>901</ele>
        <time>2023-07-05T14:10:23Z</time>
      </trkpt>
      <trkpt lat="48.44623" lon="7.10275">
        <ele>902</ele>
        <time>2023-07-05T14:11:03Z</time>
      </trkpt>
      <trkpt lat="48.44615" lon="7.10275">
        <ele>903</ele>
        <time>2023-07-05T14:11:29Z</time>
      </trkpt>
      <trkpt lat="48.44609" lon="7.10279">
        <ele>903</ele>
        <time>2023-07-05T14:11:39Z</time>
      </trkpt>
      <trkpt lat="48.44611" lon="7.10287">
        <ele>903</ele>
        <time>2023-07-05T14:11:53Z</time>
      </trkpt>
      <trkpt lat="48.44607" lon="7.10292">
        <ele>903</ele>
        <time>2023-07-05T14:12:15Z</time>
      </trkpt>
      <trkpt lat="48.44596" lon="7.10301">
        <ele>901</ele>
        <time>2023-07-05T14:12:37Z</time>
      </trkpt>
      <trkpt lat="48.44603" lon="7.10296">
        <ele>901</ele>
        <time>2023-07-05T14:13:27Z</time>
      </trkpt>
      <trkpt lat="48.44609" lon="7.10296">
        <ele>902</ele>
        <time>2023-07-05T14:13:42Z</time>
      </trkpt>
      <trkpt lat="48.44612" lon="7.1029">
        <ele>903</ele>
        <time>2023-07-05T14:14:02Z</time>
      </trkpt>
      <trkpt lat="48.44615" lon="7.10285">
        <ele>904</ele>
        <time>2023-07-05T14:14:12Z</time>
      </trkpt>
      <trkpt lat="48.44619" lon="7.10274">
        <ele>904</ele>
        <time>2023-07-05T14:14:38Z</time>
      </trkpt>
      <trkpt lat="48.44613" lon="7.10268">
        <ele>905</ele>
        <time>2023-07-05T14:14:43Z</time>
      </trkpt>
      <trkpt lat="48.44604" lon="7.10269">
        <ele>906</ele>
        <time>2023-07-05T14:14:51Z</time>
      </trkpt>
      <trkpt lat="48.446" lon="7.10271">
        <ele>906</ele>
        <time>2023-07-05T14:14:58Z</time>
      </trkpt>
      <trkpt lat="48.44595" lon="7.10274">
        <ele>907</ele>
        <time>2023-07-05T14:15:08Z</time>
      </trkpt>
      <trkpt lat="48.44591" lon="7.10278">
        <ele>907</ele>
        <time>2023-07-05T14:15:52Z</time>
      </trkpt>
      <trkpt lat="48.44582" lon="7.1028">
        <ele>908</ele>
        <time>2023-07-05T14:16:00Z</time>
      </trkpt>
      <trkpt lat="48.44575" lon="7.10282">
        <ele>907</ele>
        <time>2023-07-05T14:16:06Z</time>
      </trkpt>
      <trkpt lat="48.4457" lon="7.1029">
        <ele>908</ele>
        <time>2023-07-05T14:16:15Z</time>
      </trkpt>
      <trkpt lat="48.44549" lon="7.10307">
        <ele>909</ele>
        <time>2023-07-05T14:16:42Z</time>
      </trkpt>
      <trkpt lat="48.44545" lon="7.10311">
        <ele>909</ele>
        <time>2023-07-05T14:16:47Z</time>
      </trkpt>
      <trkpt lat="48.4454" lon="7.10313">
        <ele>910</ele>
        <time>2023-07-05T14:16:55Z</time>
      </trkpt>
      <trkpt lat="48.44535" lon="7.10312">
        <ele>910</ele>
        <time>2023-07-05T14:17:05Z</time>
      </trkpt>
      <trkpt lat="48.44522" lon="7.10312">
        <ele>913</ele>
        <time>2023-07-05T14:17:25Z</time>
      </trkpt>
      <trkpt lat="48.44518" lon="7.10312">
        <ele>914</ele>
        <time>2023-07-05T14:17:35Z</time>
      </trkpt>
      <trkpt lat="48.44513" lon="7.10303">
        <ele>916</ele>
        <time>2023-07-05T14:17:50Z</time>
      </trkpt>
      <trkpt lat="48.44509" lon="7.103">
        <ele>917</ele>
        <time>2023-07-05T14:17:55Z</time>
      </trkpt>
      <trkpt lat="48.44492" lon="7.10297">
        <ele>920</ele>
        <time>2023-07-05T14:18:22Z</time>
      </trkpt>
      <trkpt lat="48.44486" lon="7.10298">
        <ele>921</ele>
        <time>2023-07-05T14:18:30Z</time>
      </trkpt>
      <trkpt lat="48.44481" lon="7.103">
        <ele>922</ele>
        <time>2023-07-05T14:18:36Z</time>
      </trkpt>
      <trkpt lat="48.44461" lon="7.10295">
        <ele>927</ele>
        <time>2023-07-05T14:19:12Z</time>
      </trkpt>
      <trkpt lat="48.44455" lon="7.10293">
        <ele>928</ele>
        <time>2023-07-05T14:19:22Z</time>
      </trkpt>
      <trkpt lat="48.4445" lon="7.10292">
        <ele>930</ele>
        <time>2023-07-05T14:19:32Z</time>
      </trkpt>
      <trkpt lat="48.44444" lon="7.10288">
        <ele>931</ele>
        <time>2023-07-05T14:19:42Z</time>
      </trkpt>
      <trkpt lat="48.4443" lon="7.10287">
        <ele>934</ele>
        <time>2023-07-05T14:20:02Z</time>
      </trkpt>
      <trkpt lat="48.44426" lon="7.10286">
        <ele>935</ele>
        <time>2023-07-05T14:20:08Z</time>
      </trkpt>
      <trkpt lat="48.44418" lon="7.10288">
        <ele>935</ele>
        <time>2023-07-05T14:20:18Z</time>
      </trkpt>
      <trkpt lat="48.4441" lon="7.10288">
        <ele>936</ele>
        <time>2023-07-05T14:20:28Z</time>
      </trkpt>
      <trkpt lat="48.44406" lon="7.10286">
        <ele>937</ele>
        <time>2023-07-05T14:20:33Z</time>
      </trkpt>
      <trkpt lat="48.44396" lon="7.10287">
        <ele>938</ele>
        <time>2023-07-05T14:20:53Z</time>
      </trkpt>
      <trkpt lat="48.44392" lon="7.10288">
        <ele>938</ele>
        <time>2023-07-05T14:20:58Z</time>
      </trkpt>
      <trkpt lat="48.44386" lon="7.10287">
        <ele>939</ele>
        <time>2023-07-05T14:21:07Z</time>
      </trkpt>
      <trkpt lat="48.44385" lon="7.10283">
        <ele>940</ele>
        <time>2023-07-05T14:22:02Z</time>
      </trkpt>
      <trkpt lat="48.4438" lon="7.10293">
        <ele>941</ele>
        <time>2023-07-05T14:22:18Z</time>
      </trkpt>
    </trkseg>
  </trk>
</gpx>